ftp/pub/palmer/observations_modified/2019/September/original_files/AR190906_BASE.txt
Download
Sample DateTime Unit Id WS Avg 2min WD Avg 2min WGS 10min WGD 10min Air Temp Rel Humidity Dew Point Pyranometer Quantum Air Pressure Snow Level Rainfall PW Current Visibility CBase 1 CBase 2 CBase 3 Vert Vis
2019/09/06 00:00:00 BASE 5.09 348 6.48 353 -2.3 100 -2.3 0 0 1003.3 NA 0.0000 9999 200 0 0 0
2019/09/06 00:01:00 BASE 5.68 351 6.69 2 -2.3 100 -2.3 0 0 1003.2 NA 0.0000 9999 260 0 0 0
2019/09/06 00:02:00 BASE 6.64 355 7.61 128 -2.3 100 -2.3 0 0 1003.2 NA 0.0000 9999 230 0 0 0
2019/09/06 00:03:00 BASE 6.99 352 7.61 128 -2.3 100 -2.3 0 0 1003.1 NA 0.0000 9999 230 0 0 0
2019/09/06 00:04:00 BASE 6.63 351 7.61 128 -2.3 100 -2.3 0 0 1003.1 NA 0.0000 9999 260 0 0 0
2019/09/06 00:05:00 BASE 6.80 351 7.72 354 -2.3 100 -2.3 0 0 1003.0 NA 0.0000 9999 300 1740 0 0
2019/09/06 00:06:00 BASE 7.52 350 8.75 350 -2.3 100 -2.3 0 0 1003.0 NA 0.0000 9999 300 1670 0 0
2019/09/06 00:07:01 BASE 8.31 348 9.41 344 -2.3 100 -2.3 0 0 1003.0 NA 0.0000 9999 300 1610 0 0
2019/09/06 00:08:01 BASE 8.10 348 9.41 344 -2.3 100 -2.3 0 0 1003.0 NA 0.0000 9999 300 1570 0 0
2019/09/06 00:09:01 BASE 7.54 349 9.41 344 -2.3 100 -2.3 0 0 1002.9 NA 0.0000 9999 330 1540 0 0
2019/09/06 00:10:01 BASE 7.43 349 9.41 344 -2.3 100 -2.3 0 0 1002.9 NA 0.0000 9999 330 1540 0 0
2019/09/06 00:11:01 BASE 6.99 346 9.41 344 -2.3 100 -2.3 0 0 1002.9 NA 0.0000 9999 330 1510 0 0
2019/09/06 00:12:01 BASE 7.22 343 9.41 344 -2.3 100 -2.3 0 0 1002.9 NA 0.0000 9999 330 1480 0 0
2019/09/06 00:13:01 BASE 7.39 341 9.41 344 -2.3 100 -2.3 0 0 1002.9 NA 0.0000 9999 330 1510 0 0
2019/09/06 00:14:01 BASE 6.70 343 9.41 344 -2.3 100 -2.3 0 0 1002.9 NA 0.0000 9999 330 1120 0 0
2019/09/06 00:15:01 BASE 6.31 350 9.41 344 -2.3 100 -2.3 0 0 1002.8 NA 0.0000 9999 330 1510 0 0
2019/09/06 00:16:01 BASE 6.50 354 9.41 344 -2.3 100 -2.3 0 0 1002.8 NA 0.0000 9999 360 1570 0 0
2019/09/06 00:17:01 BASE 6.72 354 8.44 323 -2.3 100 -2.3 0 0 1002.9 NA 0.0000 9999 330 1540 0 0
2019/09/06 00:18:01 BASE 6.75 351 8.44 323 -2.3 100 -2.3 0 0 1002.8 NA 0.0000 9999 330 1540 0 0
2019/09/06 00:19:01 BASE 6.89 353 8.44 323 -2.3 100 -2.3 0 0 1002.8 NA 0.0000 9999 360 1570 0 0
2019/09/06 00:20:01 BASE 6.82 359 8.39 338 -2.3 100 -2.3 0 0 1002.8 NA 0.0000 9999 360 1610 0 0
2019/09/06 00:21:01 BASE 6.79 360 8.39 338 -2.3 100 -2.3 0 0 1002.8 NA 0.0000 9999 390 1570 0 0
2019/09/06 00:22:01 BASE 7.10 353 7.67 337 -2.3 100 -2.3 0 0 1002.8 NA 0.0000 9999 360 1670 0 0
2019/09/06 00:23:01 BASE 7.42 344 9.93 337 -2.3 100 -2.3 0 0 1002.8 NA 0.0000 9999 430 1670 0 0
2019/09/06 00:24:01 BASE 7.58 333 9.93 337 -2.3 100 -2.3 0 0 1002.8 NA 0.0000 9999 390 0 0 0
2019/09/06 00:25:01 BASE 7.09 337 9.93 337 -2.3 100 -2.3 0 0 1002.9 NA 0.0000 9999 360 0 0 0
2019/09/06 00:26:01 BASE 6.71 347 9.93 337 -2.3 100 -2.3 0 0 1002.9 NA 0.0000 9999 430 0 0 0
2019/09/06 00:27:01 BASE 6.72 346 9.93 337 -2.3 100 -2.3 0 0 1002.9 NA 0.0000 9999 360 1740 0 0
2019/09/06 00:28:01 BASE 6.66 350 9.93 337 -2.3 100 -2.3 0 0 1002.9 NA 0.0000 9999 430 1670 0 0
2019/09/06 00:29:01 BASE 6.97 357 9.93 337 -2.3 100 -2.3 0 0 1002.9 NA 0.0000 9999 430 1710 0 0
2019/09/06 00:30:01 BASE 7.04 354 9.93 337 -2.3 100 -2.3 0 0 1003.0 NA 0.0000 9999 360 1710 0 0
2019/09/06 00:31:01 BASE 6.60 351 9.93 337 -2.3 100 -2.3 0 0 1002.9 NA 0.0000 9999 330 1740 0 0
2019/09/06 00:32:01 BASE 6.40 356 9.93 337 -2.3 100 -2.3 0 0 1003.0 NA 0.0000 9999 390 1740 0 0
2019/09/06 00:33:01 BASE 6.35 356 9.31 327 -2.3 100 -2.3 0 0 1003.0 NA 0.0000 9999 360 0 0 0
2019/09/06 00:34:01 BASE 5.98 349 7.82 353 -2.3 100 -2.3 0 0 1003.0 NA 0.0000 9999 430 0 0 0
2019/09/06 00:35:01 BASE 6.37 351 7.82 353 -2.2 100 -2.2 0 0 1003.0 NA 0.0000 9999 360 1770 0 0
2019/09/06 00:36:01 BASE 6.96 358 7.87 3 -2.2 100 -2.2 0 0 1003.0 NA 0.0000 9999 360 0 0 0
2019/09/06 00:37:01 BASE 6.55 2 7.87 3 -2.2 100 -2.2 0 0 1003.0 NA 0.0000 9999 390 1770 0 0
2019/09/06 00:38:01 BASE 6.48 359 7.87 3 -2.2 100 -2.2 0 0 1003.0 NA 0.0000 9999 390 1770 0 0
2019/09/06 00:39:01 BASE 5.85 359 7.87 3 -2.2 100 -2.2 0 0 1003.1 NA 0.0000 9999 300 1770 0 0
2019/09/06 00:40:01 BASE 4.97 2 7.87 3 -2.2 100 -2.2 0 0 1003.2 NA 0.0000 9999 460 1770 0 0
2019/09/06 00:41:01 BASE 5.01 354 7.87 3 -2.2 100 -2.2 0 0 1003.2 NA 0.0000 9999 360 1740 0 0
2019/09/06 00:42:01 BASE 4.88 353 7.87 3 -2.2 100 -2.2 0 0 1003.2 NA 0.0000 9999 360 1710 0 0
2019/09/06 00:43:01 BASE 4.80 2 7.87 3 -2.2 100 -2.2 0 0 1003.2 NA 0.0000 9999 490 1640 0 0
2019/09/06 00:44:01 BASE 5.05 359 7.87 3 -2.2 100 -2.2 0 0 1003.2 NA 0.0000 9999 390 1610 0 0
2019/09/06 00:45:01 BASE 5.10 359 7.87 3 -2.2 100 -2.2 0 0 1003.2 NA 0.0000 9999 390 1670 0 0
2019/09/06 00:46:01 BASE 4.84 1 7.82 352 -2.2 100 -2.2 0 0 1003.1 NA 0.0000 9999 490 1610 0 0
2019/09/06 00:47:01 BASE 4.43 1 7.82 352 -2.2 100 -2.2 0 0 1003.1 NA 0.0000 9999 490 1640 0 0
2019/09/06 00:48:01 BASE 5.01 2 6.74 360 -2.2 100 -2.2 0 0 1003.0 NA 0.0000 9999 560 1570 0 0
2019/09/06 00:49:01 BASE 5.81 359 7.61 354 -2.2 100 -2.2 0 0 1003.0 NA 0.0000 9999 390 1570 0 0
2019/09/06 00:50:01 BASE 6.06 356 7.61 354 -2.2 100 -2.2 0 0 1003.0 NA 0.0000 9999 330 1610 0 0
2019/09/06 00:51:01 BASE 5.67 348 7.61 354 -2.2 100 -2.2 0 0 1003.0 NA 0.0000 9999 390 1640 0 0
2019/09/06 00:52:01 BASE 5.54 356 7.61 354 -2.2 100 -2.2 0 0 1003.0 NA 0.0000 9999 360 1570 0 0
2019/09/06 00:53:01 BASE 6.19 1 7.61 354 -2.2 100 -2.2 0 0 1002.9 NA 0.0000 9999 360 1670 0 0
2019/09/06 00:54:01 BASE 6.13 350 7.61 354 -2.2 100 -2.2 0 0 1002.9 NA 0.0000 9999 330 1640 0 0
2019/09/06 00:55:01 BASE 5.08 351 7.61 354 -2.2 100 -2.2 0 0 1002.9 NA 0.0000 9999 300 1610 0 0
2019/09/06 00:56:01 BASE 4.56 358 7.61 354 -2.1 100 -2.1 0 0 1002.9 NA 0.0000 9999 490 1540 0 0
2019/09/06 00:57:01 BASE 5.46 1 7.61 354 -2.1 100 -2.1 0 0 1002.9 NA 0.0000 9999 330 1570 0 0
2019/09/06 00:58:01 BASE 6.24 354 7.61 354 -2.1 100 -2.1 0 0 1002.8 NA 0.0000 9999 330 1570 0 0
2019/09/06 00:59:01 BASE 6.70 346 7.56 8 -2.1 100 -2.1 0 0 1002.8 NA 0.0000 9999 300 1540 0 0
2019/09/06 01:00:01 BASE 6.73 346 7.56 8 -2.2 100 -2.2 0 0 1002.8 NA 0.0000 9999 230 1610 0 0
2019/09/06 01:01:01 BASE 6.43 344 7.56 8 -2.2 100 -2.2 0 0 1002.8 NA 0.0000 9999 260 1610 0 0
2019/09/06 01:02:01 BASE 6.79 345 7.67 351 -2.2 100 -2.2 0 0 1002.8 NA 0.0000 9999 260 1640 0 0
2019/09/06 01:03:01 BASE 7.65 346 8.64 344 -2.2 100 -2.2 0 0 1002.7 NA 0.0000 9999 330 1610 0 0
2019/09/06 01:04:01 BASE 7.97 342 8.64 344 -2.2 100 -2.2 0 0 1002.7 NA 0.0000 9999 330 1570 0 0
2019/09/06 01:05:00 BASE 7.46 339 8.64 344 -2.1 100 -2.1 0 0 1002.7 NA 0.0000 9999 330 1510 0 0
2019/09/06 01:06:01 BASE 6.95 340 8.64 344 -2.1 100 -2.1 0 0 1002.7 NA 0.0000 9999 330 1380 0 0
2019/09/06 01:07:01 BASE 6.93 340 8.64 344 -2.1 100 -2.1 0 0 1002.7 NA 0.0000 9999 360 1380 0 0
2019/09/06 01:08:01 BASE 6.76 341 8.64 344 -2.1 100 -2.1 0 0 1002.7 NA 0.0000 9999 300 1310 0 0
2019/09/06 01:09:00 BASE 7.19 342 8.95 338 -2.1 100 -2.1 0 0 1002.6 NA 0.0000 9999 360 1280 0 0
2019/09/06 01:10:01 BASE 7.39 343 8.95 338 -2.1 100 -2.1 0 0 1002.6 NA 0.0000 9999 360 1210 0 0
2019/09/06 01:11:01 BASE 7.41 340 8.95 338 -2.1 100 -2.1 0 0 1002.6 NA 0.0000 9999 430 1250 0 0
2019/09/06 01:12:01 BASE 7.89 337 8.95 338 -2.1 100 -2.1 0 0 1002.6 NA 0.0000 9999 430 1210 0 0
2019/09/06 01:13:00 BASE 7.88 336 8.95 338 -2.1 100 -2.1 0 0 1002.6 NA 0.0000 9999 390 1280 0 0
2019/09/06 01:14:01 BASE 7.72 335 8.95 338 -2.1 100 -2.1 0 0 1002.6 NA 0.0000 9999 390 1280 0 0
2019/09/06 01:15:00 BASE 7.79 338 8.95 338 -2.1 100 -2.1 0 0 1002.6 NA 0.0000 9999 390 1310 0 0
2019/09/06 01:16:00 BASE 8.24 333 8.95 322 -2.1 100 -2.1 0 0 1002.7 NA 0.0000 9999 360 1380 0 0
2019/09/06 01:17:00 BASE 8.03 327 8.95 322 -2.1 100 -2.1 0 0 1002.7 NA 0.0000 9999 330 1410 0 0
2019/09/06 01:18:01 BASE 7.78 331 9.00 342 -2.1 100 -2.1 0 0 1002.6 NA 0.0000 9999 330 1480 0 0
2019/09/06 01:19:00 BASE 8.32 336 9.16 333 -2.1 100 -2.1 0 0 1002.6 NA 0.0000 9999 230 1510 0 0
2019/09/06 01:20:00 BASE 8.80 339 9.21 337 -2.1 100 -2.1 0 0 1002.6 NA 0.0000 9999 230 1480 0 0
2019/09/06 01:21:00 BASE 8.96 341 9.67 348 -2.1 100 -2.1 0 0 1002.6 NA 0.0000 9999 260 1540 0 0
2019/09/06 01:22:01 BASE 9.38 342 10.44 346 -2.1 100 -2.1 0 0 1002.6 NA 0.0000 9999 260 1610 0 0
2019/09/06 01:23:00 BASE 9.68 343 10.44 346 -2.1 100 -2.1 0 0 1002.5 NA 0.0000 9999 230 0 0 0
2019/09/06 01:24:01 BASE 9.76 344 10.44 347 -2.1 100 -2.1 0 0 1002.5 NA 0.0000 9999 260 0 0 0
2019/09/06 01:25:00 BASE 10.03 343 10.44 339 -2.1 100 -2.1 0 0 1002.5 NA 0.0000 9999 230 0 0 0
2019/09/06 01:26:01 BASE 9.88 344 10.44 339 -2.1 100 -2.1 0 0 1002.5 NA 0.0000 9999 230 0 0 0
2019/09/06 01:27:00 BASE 9.74 345 10.44 339 -2.1 100 -2.1 0 0 1002.5 NA 0.0000 9999 230 0 0 0
2019/09/06 01:28:00 BASE 9.76 344 10.44 339 -2.1 100 -2.1 0 0 1002.5 NA 0.0000 9999 200 0 0 0
2019/09/06 01:29:01 BASE 9.31 344 10.44 339 -2.1 100 -2.1 0 0 1002.4 NA 0.0000 9999 200 0 0 0
2019/09/06 01:30:00 BASE 9.02 345 10.44 339 -2.1 100 -2.1 0 0 1002.4 NA 0.0000 9999 0 0 0 1740
2019/09/06 01:31:00 BASE 8.81 345 10.44 339 -2.1 100 -2.1 0 0 1002.3 NA 0.0000 9999 200 0 0 0
2019/09/06 01:32:00 BASE 8.12 345 10.44 339 -2.1 100 -2.1 0 0 1002.4 NA 0.0000 9999 0 0 0 1670
2019/09/06 01:33:00 BASE 7.83 343 10.44 339 -2.1 100 -2.1 0 0 1002.3 NA 0.0000 9999 0 0 0 1670
2019/09/06 01:34:01 BASE 8.27 344 10.44 339 -2.1 100 -2.1 0 0 1002.3 NA 0.0000 9999 0 0 0 1740
2019/09/06 01:35:00 BASE 8.23 343 10.29 343 -2.1 100 -2.1 0 0 1002.3 NA 0.0000 9999 0 0 0 1670
2019/09/06 01:36:00 BASE 7.97 343 10.29 343 -2.1 100 -2.1 0 0 1002.3 NA 0.0000 9999 0 0 0 1640
2019/09/06 01:37:00 BASE 8.14 345 10.13 346 -2.1 100 -2.1 0 0 1002.3 NA 0.0000 9999 0 0 0 1670
2019/09/06 01:38:01 BASE 8.33 343 9.83 344 -2.1 100 -2.1 0 0 1002.3 NA 0.0000 9999 0 0 0 1570
2019/09/06 01:39:00 BASE 8.33 344 9.83 344 -2.1 100 -2.1 0 0 1002.3 NA 0.0000 9999 0 0 0 1280
2019/09/06 01:40:01 BASE 8.89 344 10.44 341 -2.1 100 -2.1 0 0 1002.3 NA 0.0000 9999 0 0 0 1250
2019/09/06 01:41:00 BASE 9.97 341 10.85 342 -2.1 100 -2.1 0 0 1002.2 NA 0.0000 9999 0 0 0 1280
2019/09/06 01:42:00 BASE 10.09 342 10.85 342 -2.1 100 -2.1 0 0 1002.2 NA 0.0000 9999 0 0 0 1280
2019/09/06 01:43:01 BASE 9.81 342 10.85 342 -2.1 100 -2.1 0 0 1002.3 NA 0.0000 9999 0 0 0 1050
2019/09/06 01:44:00 BASE 9.27 343 10.85 342 -2.0 100 -2.0 0 0 1002.3 NA 0.0000 9999 0 0 0 1050
2019/09/06 01:45:00 BASE 8.97 343 10.85 342 -2.0 100 -2.0 0 0 1002.3 NA 0.0000 9999 0 0 0 1080
2019/09/06 01:46:01 BASE 9.38 341 10.85 342 -2.0 100 -2.0 0 0 1002.3 NA 0.0000 9999 0 0 0 1020
2019/09/06 01:47:00 BASE 9.03 341 10.85 342 -2.0 100 -2.0 0 0 1002.3 NA 0.0000 9999 0 0 0 1080
2019/09/06 01:48:00 BASE 8.62 341 10.85 342 -2.0 100 -2.0 0 0 1002.3 NA 0.0000 9999 0 0 0 1080
2019/09/06 01:49:00 BASE 8.57 340 10.85 342 -2.0 100 -2.0 0 0 1002.3 NA 0.0000 9999 0 0 0 1050
2019/09/06 01:50:00 BASE 8.39 338 10.85 342 -2.0 100 -2.0 0 0 1002.3 NA 0.0000 9999 0 0 0 1120
2019/09/06 01:51:00 BASE 7.96 336 10.70 344 -2.0 100 -2.0 0 0 1002.3 NA 0.0000 9999 0 0 0 920
2019/09/06 01:52:00 BASE 7.68 336 10.34 345 -2.0 100 -2.0 0 0 1002.3 NA 0.0000 9999 0 0 0 850
2019/09/06 01:53:00 BASE 7.86 338 10.08 340 -2.0 100 -2.0 0 0 1002.3 NA 0.0000 9999 0 0 0 820
2019/09/06 01:54:01 BASE 8.00 340 10.08 340 -2.0 100 -2.0 0 0 1002.2 NA 0.0000 9999 0 0 0 820
2019/09/06 01:55:01 BASE 8.00 341 10.08 340 -2.0 100 -2.0 0 0 1002.2 NA 0.0000 9999 0 0 0 790
2019/09/06 01:56:01 BASE 8.02 338 9.26 342 -2.0 100 -2.0 0 0 1002.2 NA 0.0000 9999 0 0 0 980
2019/09/06 01:57:01 BASE 8.16 337 9.26 342 -2.0 100 -2.0 0 0 1002.2 NA 0.0000 9999 0 0 0 980
2019/09/06 01:58:01 BASE 8.21 335 8.90 336 -2.0 100 -2.0 0 0 1002.2 NA 0.0000 9999 0 0 0 820
2019/09/06 01:59:01 BASE 7.73 333 8.90 336 -2.0 100 -2.0 0 0 1002.2 NA 0.0000 9000 0 0 0 850
2019/09/06 02:00:01 BASE 7.22 333 8.85 335 -2.0 100 -2.0 0 0 1002.2 NA 0.0000 9000 0 0 0 1050
2019/09/06 02:01:01 BASE 7.08 331 8.85 335 -2.0 100 -2.0 0 0 1002.2 NA 0.0000 8000 0 0 0 850
2019/09/06 02:02:01 BASE 6.81 334 8.85 335 -2.0 100 -2.0 0 0 1002.2 NA 0.0000 7000 0 0 0 1050
2019/09/06 02:03:01 BASE 7.23 336 8.85 335 -2.0 100 -2.0 0 0 1002.2 NA 0.0000 BR 7000 0 0 0 1080
2019/09/06 02:04:01 BASE 7.47 337 8.85 335 -2.0 100 -2.0 0 0 1002.2 NA 0.0000 BR 9000 0 0 0 1050
2019/09/06 02:05:01 BASE 7.27 339 8.85 335 -2.0 100 -2.0 0 0 1002.2 NA 0.0000 BR 9000 0 0 0 1150
2019/09/06 02:06:01 BASE 7.62 340 8.85 335 -2.0 100 -2.0 0 0 1002.2 NA 0.0000 BR 9999 0 0 0 1150
2019/09/06 02:07:01 BASE 7.77 340 8.75 337 -2.0 100 -2.0 0 0 1002.2 NA 0.0000 BR 9999 0 0 0 1180
2019/09/06 02:08:01 BASE 7.87 339 8.75 337 -2.0 100 -2.0 0 0 1002.2 NA 0.0000 BR 9999 0 0 0 1080
2019/09/06 02:09:01 BASE 7.75 341 8.75 337 -2.0 100 -2.0 0 0 1002.2 NA 0.0000 BR 9999 0 0 0 1080
2019/09/06 02:10:01 BASE 7.57 342 8.75 337 -2.0 100 -2.0 0 0 1002.2 NA 0.0000 BR 9999 0 0 0 1020
2019/09/06 02:11:01 BASE 7.81 343 8.75 337 -2.0 100 -2.0 0 0 1002.2 NA 0.0000 9999 0 0 0 950
2019/09/06 02:12:01 BASE 8.25 343 8.80 343 -2.0 100 -2.0 0 0 1002.2 NA 0.0000 9999 0 0 0 920
2019/09/06 02:13:01 BASE 8.32 342 8.80 343 -2.1 100 -2.1 0 0 1002.2 NA 0.0000 9999 0 0 0 980
2019/09/06 02:14:01 BASE 8.18 342 8.80 343 -2.1 100 -2.1 0 0 1002.2 NA 0.0000 9999 0 0 0 950
2019/09/06 02:15:01 BASE 8.07 342 8.80 343 -2.1 100 -2.1 0 0 1002.2 NA 0.0000 9999 0 0 0 1020
2019/09/06 02:16:01 BASE 8.10 342 9.05 341 -2.1 100 -2.1 0 0 1002.2 NA 0.0000 9999 0 0 0 950
2019/09/06 02:17:01 BASE 8.38 342 9.05 341 -2.1 100 -2.1 0 0 1002.2 NA 0.0000 9999 0 0 0 1020
2019/09/06 02:18:01 BASE 8.25 341 9.05 341 -2.1 100 -2.1 0 0 1002.2 NA 0.0000 9999 0 0 0 950
2019/09/06 02:19:01 BASE 8.16 341 9.05 341 -2.1 100 -2.1 0 0 1002.2 NA 0.0000 9999 0 0 0 950
2019/09/06 02:20:01 BASE 8.05 341 9.05 341 -2.1 100 -2.1 0 0 1002.2 NA 0.0000 9999 0 0 0 790
2019/09/06 02:21:01 BASE 7.91 341 9.05 341 -2.1 100 -2.1 0 0 1002.2 NA 0.0000 9999 0 0 0 850
2019/09/06 02:22:01 BASE 8.00 342 9.05 341 -2.1 100 -2.1 0 0 1002.2 NA 0.0000 9999 0 0 0 790
2019/09/06 02:23:01 BASE 7.99 342 9.05 341 -2.1 100 -2.1 0 0 1002.2 NA 0.0000 9999 0 0 0 980
2019/09/06 02:24:01 BASE 8.00 341 9.05 341 -2.1 100 -2.1 0 0 1002.2 NA 0.0000 9999 0 0 0 820
2019/09/06 02:25:01 BASE 8.07 339 9.05 341 -2.1 100 -2.1 0 0 1002.2 NA 0.0000 9999 0 0 0 790
2019/09/06 02:26:16 BASE 8.16 337 8.85 343 -2.1 100 -2.1 0 0 1002.2 NA 0.0000 9999 0 0 0 850
2019/09/06 02:27:01 BASE 7.92 339 8.75 339 -2.1 100 -2.1 0 0 1002.2 NA 0.0000 9999 0 0 0 920
2019/09/06 02:28:01 BASE 7.52 340 8.75 339 -2.1 100 -2.1 0 0 1002.1 NA 0.0000 9999 0 0 0 820
2019/09/06 02:29:01 BASE 7.29 341 8.75 339 -2.1 100 -2.1 0 0 1002.2 NA 0.0000 9999 0 0 0 820
2019/09/06 02:30:01 BASE 7.34 340 8.75 339 -2.1 100 -2.1 0 0 1002.1 NA 0.0000 9999 0 0 0 720
2019/09/06 02:31:01 BASE 7.99 339 8.75 340 -2.0 100 -2.0 0 0 1002.1 NA 0.0000 9999 0 0 0 820
2019/09/06 02:32:01 BASE 8.27 339 8.75 340 -2.0 100 -2.0 0 0 1002.1 NA 0.0000 9999 0 0 0 850
2019/09/06 02:33:01 BASE 8.33 338 8.75 340 -2.0 100 -2.0 0 0 1002.1 NA 0.0000 9999 0 0 0 890
2019/09/06 02:34:01 BASE 8.17 337 8.75 340 -2.0 100 -2.0 0 0 1002.1 NA 0.0000 9999 0 0 0 920
2019/09/06 02:35:01 BASE 7.75 338 8.75 340 -2.0 100 -2.0 0 0 1002.1 NA 0.0000 9999 0 0 0 950
2019/09/06 02:36:01 BASE 7.62 340 8.75 340 -2.0 100 -2.0 0 0 1002.1 NA 0.0000 9999 0 0 0 980
2019/09/06 02:37:01 BASE 7.83 339 8.75 340 -2.0 100 -2.0 0 0 1002.1 NA 0.0000 9999 0 0 0 980
2019/09/06 02:38:01 BASE 7.86 339 8.75 340 -2.0 100 -2.0 0 0 1002.1 NA 0.0000 9999 0 0 0 1020
2019/09/06 02:39:01 BASE 7.73 339 8.75 340 -2.0 100 -2.0 0 0 1002.1 NA 0.0000 9999 0 0 0 1020
2019/09/06 02:40:01 BASE 7.65 339 8.75 340 -2.1 100 -2.1 0 0 1002.1 NA 0.0000 9999 0 0 0 1050
2019/09/06 02:41:01 BASE 7.27 339 8.69 335 -2.1 100 -2.1 0 0 1002.1 NA 0.0000 9999 0 0 0 1050
2019/09/06 02:42:01 BASE 7.15 340 8.69 335 -2.1 100 -2.1 0 0 1002.1 NA 0.0000 9000 0 0 0 1020
2019/09/06 02:43:00 BASE 7.40 339 8.54 339 -2.1 100 -2.1 0 0 1002.1 NA 0.0000 BR 9999 0 0 0 1050
2019/09/06 02:44:01 BASE 7.28 337 8.54 339 -2.1 100 -2.1 0 0 1002.2 NA 0.0000 BR 9999 0 0 0 1080
2019/09/06 02:45:00 BASE 6.56 338 8.54 339 -2.1 100 -2.1 0 0 1002.2 NA 0.0000 BR 9000 0 0 0 1080
2019/09/06 02:46:01 BASE 6.32 338 8.54 339 -2.1 100 -2.1 0 0 1002.2 NA 0.0000 BR 8000 0 0 0 1020
2019/09/06 02:47:00 BASE 6.62 337 8.54 339 -2.1 100 -2.1 0 0 1002.2 NA 0.0000 BR 8000 0 0 0 1080
2019/09/06 02:48:01 BASE 6.54 339 8.54 339 -2.1 100 -2.1 0 0 1002.2 NA 0.0000 BR 8000 0 0 0 1080
2019/09/06 02:49:00 BASE 6.57 342 8.03 335 -2.0 100 -2.0 0 0 1002.2 NA 0.0000 BR 9000 0 0 0 1050
2019/09/06 02:50:00 BASE 6.61 344 7.92 340 -2.0 100 -2.0 0 0 1002.2 NA 0.0000 BR 9000 0 0 0 1080
2019/09/06 02:51:01 BASE 6.27 344 7.92 340 -2.0 100 -2.0 0 0 1002.2 NA 0.0000 BR 9000 0 0 0 1180
2019/09/06 02:52:01 BASE 5.96 346 7.92 340 -2.0 100 -2.0 0 0 1002.2 NA 0.0000 BR 9000 0 0 0 1150
2019/09/06 02:53:00 BASE 6.24 348 7.56 337 -2.0 100 -2.0 0 0 1002.2 NA 0.0000 BR 9000 0 0 0 1180
2019/09/06 02:54:01 BASE 6.43 349 7.36 334 -2.0 100 -2.0 0 0 1002.2 NA 0.0000 BR 9999 0 0 0 1150
2019/09/06 02:55:00 BASE 6.04 350 7.36 334 -2.0 100 -2.0 0 0 1002.2 NA 0.0000 BR 9999 0 0 0 1120
2019/09/06 02:56:01 BASE 5.84 352 7.36 334 -2.0 100 -2.0 0 0 1002.2 NA 0.0000 BR 9999 0 0 0 1120
2019/09/06 02:57:00 BASE 6.00 350 7.25 343 -2.0 100 -2.0 0 0 1002.2 NA 0.0000 BR 9999 0 0 0 1150
2019/09/06 02:58:01 BASE 6.20 348 7.25 343 -2.0 100 -2.0 0 0 1002.2 NA 0.0000 BR 9999 0 0 0 1180
2019/09/06 02:59:00 BASE 6.37 348 7.20 343 -2.0 100 -2.0 0 0 1002.2 NA 0.0000 BR 9999 0 0 0 1210
2019/09/06 03:00:00 BASE 6.60 346 7.20 339 -2.0 100 -2.0 0 0 1002.1 NA 0.0000 UP BR 9000 0 0 0 1280
2019/09/06 03:01:00 BASE 6.53 346 7.20 339 -2.0 100 -2.0 0 0 1002.1 NA 0.0000 UP BR 9000 0 0 0 1280
2019/09/06 03:02:01 BASE 6.43 347 7.20 339 -2.0 100 -2.0 0 0 1002.1 NA 0.0000 UP BR 8000 0 0 0 1350
2019/09/06 03:03:00 BASE 6.47 349 7.20 339 -2.0 100 -2.0 0 0 1002.1 NA 0.0000 UP BR 9000 0 0 0 1480
2019/09/06 03:04:00 BASE 6.53 350 7.20 339 -2.0 100 -2.0 0 0 1002.0 NA 0.0000 UP BR 9999 0 0 0 1440
2019/09/06 03:05:00 BASE 6.65 351 7.20 339 -2.0 100 -2.0 0 0 1002.0 NA 0.0000 UP BR 9999 0 0 0 1380
2019/09/06 03:06:00 BASE 6.69 349 7.25 343 -2.0 100 -2.0 0 0 1002.1 NA 0.0000 UP BR 9999 0 0 0 1350
2019/09/06 03:07:00 BASE 6.48 347 7.25 343 -2.0 100 -2.0 0 0 1002.1 NA 0.0000 UP BR 9999 0 0 0 1350
2019/09/06 03:08:00 BASE 6.40 348 7.25 343 -2.0 100 -2.0 0 0 1002.0 NA 0.0000 UP BR 9999 0 0 0 1250
2019/09/06 03:09:00 BASE 6.68 350 7.41 352 -2.0 100 -2.0 0 0 1002.0 NA 0.0000 UP BR 9999 0 0 0 1150
2019/09/06 03:10:00 BASE 6.72 350 7.41 352 -2.0 100 -2.0 0 0 1002.0 NA 0.0000 UP 9999 0 0 0 1080
2019/09/06 03:11:00 BASE 6.67 350 7.41 352 -2.0 100 -2.0 0 0 1001.9 NA 0.0000 UP 9999 0 0 0 1080
2019/09/06 03:12:00 BASE 6.74 353 7.41 352 -2.0 100 -2.0 0 0 1001.9 NA 0.0000 UP 9999 0 0 0 1120
2019/09/06 03:13:00 BASE 6.96 351 7.56 352 -2.0 100 -2.0 0 0 1001.8 NA 0.0000 UP 9999 0 0 0 1210
2019/09/06 03:14:00 BASE 7.06 350 7.72 350 -2.0 100 -2.0 0 0 1001.8 NA 0.0000 UP 9999 0 0 0 1440
2019/09/06 03:15:00 BASE 6.87 351 7.72 350 -2.0 100 -2.0 0 0 1001.9 NA 0.0000 9999 0 0 0 1670
2019/09/06 03:16:00 BASE 6.57 348 7.72 350 -2.0 100 -2.0 0 0 1002.0 NA 0.0000 9999 0 0 0 1800
2019/09/06 03:17:00 BASE 6.68 348 7.72 350 -2.0 100 -2.0 0 0 1001.9 NA 0.0000 UP 9999 0 0 0 1870
2019/09/06 03:18:00 BASE 6.90 349 7.72 350 -2.0 100 -2.0 0 0 1001.9 NA 0.0000 UP 9999 0 0 0 1870
2019/09/06 03:19:00 BASE 6.63 349 7.72 350 -2.0 100 -2.0 0 0 1001.9 NA 0.0000 UP 9999 0 0 0 1870
2019/09/06 03:20:00 BASE 6.54 348 7.72 350 -2.0 100 -2.0 0 0 1002.0 NA 0.0000 UP 9999 0 0 0 1840
2019/09/06 03:21:00 BASE 6.87 350 7.77 350 -2.0 100 -2.0 0 0 1001.9 NA 0.0000 UP 9999 0 0 0 1800
2019/09/06 03:22:00 BASE 6.90 347 7.77 350 -2.0 100 -2.0 0 0 1001.9 NA 0.0000 UP 9999 0 0 0 1800
2019/09/06 03:23:00 BASE 7.03 346 7.82 348 -2.0 100 -2.0 0 0 1001.9 NA 0.0000 9999 0 0 0 1770
2019/09/06 03:24:00 BASE 7.09 350 7.82 348 -2.0 100 -2.0 0 0 1001.9 NA 0.0000 9999 0 0 0 1710
2019/09/06 03:25:00 BASE 6.76 346 7.82 348 -2.0 100 -2.0 0 0 1001.9 NA 0.0000 9999 0 0 0 1610
2019/09/06 03:26:00 BASE 6.85 346 7.82 348 -2.0 100 -2.0 0 0 1001.9 NA 0.0000 UP 9999 0 0 0 1570
2019/09/06 03:27:00 BASE 7.04 350 7.82 350 -2.0 100 -2.0 0 0 1001.9 NA 0.0000 UP 9999 0 0 0 1540
2019/09/06 03:28:00 BASE 7.32 350 8.08 350 -2.0 100 -2.0 0 0 1001.8 NA 0.0000 UP 9999 0 0 0 1610
2019/09/06 03:29:00 BASE 7.39 350 8.08 350 -2.0 100 -2.0 0 0 1001.8 NA 0.0000 UP 9999 0 0 0 1970
2019/09/06 03:30:00 BASE 7.02 349 8.08 350 -2.0 100 -2.0 0 0 1001.8 NA 0.0000 UP 9999 0 0 0 2000
2019/09/06 03:31:00 BASE 6.71 350 8.08 350 -2.0 100 -2.0 0 0 1001.8 NA 0.0000 UP 9999 0 0 0 2030
2019/09/06 03:32:00 BASE 6.68 350 8.08 350 -2.0 100 -2.0 0 0 1001.8 NA 0.0000 UP 9999 0 0 0 2070
2019/09/06 03:33:00 BASE 6.90 348 8.08 350 -2.0 100 -2.0 0 0 1001.8 NA 0.0000 UP 9999 0 0 0 2030
2019/09/06 03:34:00 BASE 7.23 348 8.08 350 -2.0 100 -2.0 0 0 1001.8 NA 0.0000 UP 9999 0 0 0 1970
2019/09/06 03:35:00 BASE 7.65 350 8.69 345 -2.0 100 -2.0 0 0 1001.8 NA 0.0000 UP 9999 0 0 0 1800
2019/09/06 03:36:00 BASE 7.71 349 8.69 345 -1.9 100 -1.9 0 0 1001.8 NA 0.0000 UP 9999 0 0 0 1670
2019/09/06 03:37:00 BASE 7.66 349 8.69 345 -1.9 100 -1.9 0 0 1001.8 NA 0.0000 UP 9999 230 0 0 0
2019/09/06 03:38:00 BASE 7.72 348 8.69 345 -1.9 100 -1.9 0 0 1001.8 NA 0.0000 UP 9999 230 0 0 0
2019/09/06 03:39:00 BASE 7.71 347 8.69 345 -1.9 100 -1.9 0 0 1001.8 NA 0.0000 UP 9999 200 0 0 0
2019/09/06 03:40:00 BASE 7.84 349 8.69 345 -1.9 100 -1.9 0 0 1001.8 NA 0.0000 UP 9999 0 0 0 1670
2019/09/06 03:41:00 BASE 7.68 349 8.69 345 -1.9 100 -1.9 0 0 1001.8 NA 0.0000 9999 0 0 0 1840
2019/09/06 03:42:00 BASE 7.31 348 8.69 345 -1.9 100 -1.9 0 0 1001.9 NA 0.0000 9999 0 0 0 2460
2019/09/06 03:43:00 BASE 7.18 347 8.69 345 -1.9 100 -1.9 0 0 1001.9 NA 0.0000 9999 200 0 0 0
2019/09/06 03:44:00 BASE 7.16 347 8.69 345 -1.9 100 -1.9 0 0 1001.9 NA 0.0000 9999 200 0 0 0
2019/09/06 03:45:00 BASE 7.16 349 8.54 344 -1.9 100 -1.9 0 0 1001.9 NA 0.0000 9999 230 0 0 0
2019/09/06 03:46:00 BASE 7.26 350 8.54 344 -1.9 100 -1.9 0 0 1001.8 NA 0.0000 9999 230 0 0 0
2019/09/06 03:47:00 BASE 7.17 349 8.54 344 -1.9 100 -1.9 0 0 1001.8 NA 0.0000 9999 230 0 0 0
2019/09/06 03:48:00 BASE 7.03 348 8.54 344 -1.9 100 -1.9 0 0 1001.8 NA 0.0000 9999 230 0 0 0
2019/09/06 03:49:00 BASE 6.83 348 8.54 344 -1.9 100 -1.9 0 0 1001.8 NA 0.0000 9999 230 0 0 0
2019/09/06 03:50:00 BASE 6.89 346 8.18 350 -1.9 100 -1.9 0 0 1001.8 NA 0.0000 9999 230 0 0 0
2019/09/06 03:51:00 BASE 7.36 347 8.18 350 -1.9 100 -1.9 0 0 1001.8 NA 0.0000 9999 200 0 0 0
2019/09/06 03:52:00 BASE 7.55 347 8.18 344 -1.9 100 -1.9 0 0 1001.8 NA 0.0000 9999 200 0 0 0
2019/09/06 03:53:00 BASE 7.70 347 8.18 344 -1.9 100 -1.9 0 0 1001.8 NA 0.0000 9999 0 0 0 1840
2019/09/06 03:54:00 BASE 7.67 347 8.18 344 -1.8 100 -1.8 0 0 1001.9 NA 0.0000 9999 0 0 0 1670
2019/09/06 03:55:00 BASE 7.60 347 8.18 346 -1.8 100 -1.8 0 0 1001.8 NA 0.0000 9999 0 0 0 1610
2019/09/06 03:56:00 BASE 7.69 348 8.18 346 -1.8 100 -1.8 0 0 1001.8 NA 0.0000 9999 0 0 0 1480
2019/09/06 03:57:00 BASE 7.60 349 8.18 347 -1.8 100 -1.8 0 0 1001.8 NA 0.0000 9999 0 0 0 1310
2019/09/06 03:58:00 BASE 7.47 349 8.18 347 -1.8 100 -1.8 0 0 1001.8 NA 0.0000 9999 0 0 0 1350
2019/09/06 03:59:00 BASE 7.33 349 8.18 347 -1.8 100 -1.8 0 0 1001.8 NA 0.0000 9999 0 0 0 1510
2019/09/06 04:00:00 BASE 7.17 350 8.18 347 -1.8 100 -1.8 0 0 1001.8 NA 0.0000 UP 9000 0 0 0 1570
2019/09/06 04:03:00 BASE 6.99 350 8.18 347 -1.8 100 -1.8 0 0 1001.8 NA 0.0000 UP 8000 0 0 0 1740
2019/09/06 04:04:00 BASE 6.65 348 8.18 347 -1.8 100 -1.8 0 0 1001.8 NA 0.0000 -SN 9999 0 0 0 1800
2019/09/06 04:05:00 BASE 6.50 350 8.18 347 -1.8 100 -1.8 0 0 1001.7 NA 0.0000 -SN 9999 0 0 0 1800
2019/09/06 04:06:00 BASE 6.66 351 8.18 347 -1.8 100 -1.8 0 0 1001.7 NA 0.0000 -SN 9999 0 0 0 1770
2019/09/06 04:07:00 BASE 6.47 351 8.18 347 -1.8 100 -1.8 0 0 1001.7 NA 0.0000 -SN 9999 0 0 0 1710
2019/09/06 04:08:00 BASE 6.05 358 7.92 350 -1.8 100 -1.8 0 0 1001.7 NA 0.0000 -SN 9999 0 0 0 1640
2019/09/06 04:09:00 BASE 5.94 358 7.92 350 -1.8 100 -1.8 0 0 1001.7 NA 0.0000 -SN 9999 0 0 0 1570
2019/09/06 04:10:00 BASE 6.24 352 7.56 349 -1.8 100 -1.8 0 0 1001.7 NA 0.0000 -SN 9999 0 0 0 1440
2019/09/06 04:11:00 BASE 6.33 350 7.41 344 -1.8 100 -1.8 0 0 1001.7 NA 0.0000 -SN 9999 0 0 0 1380
2019/09/06 04:12:00 BASE 6.37 353 7.41 344 -1.8 100 -1.8 0 0 1001.6 NA 0.0000 -SN 7000 0 0 0 1410
2019/09/06 04:13:00 BASE 7.06 354 7.97 354 -1.8 100 -1.8 0 0 1001.6 NA 0.0000 -SN 9000 0 0 0 1410
2019/09/06 04:14:00 BASE 7.18 353 7.97 354 -1.8 100 -1.8 0 0 1001.6 NA 0.0000 -SN 9999 0 0 0 1510
2019/09/06 04:15:00 BASE 6.78 352 7.97 354 -1.8 100 -1.8 0 0 1001.6 NA 0.0000 -SN 9999 0 0 0 1870
2019/09/06 04:16:00 BASE 6.91 355 7.97 354 -1.8 100 -1.8 0 0 1001.5 NA 0.0000 -SN 9999 0 0 0 2490
2019/09/06 04:17:00 BASE 6.96 344 7.97 354 -1.8 100 -1.8 0 0 1001.5 NA 0.0000 -SN 8000 0 0 0 2460
2019/09/06 04:18:00 BASE 7.26 343 8.23 354 -1.8 100 -1.8 0 0 1001.5 NA 0.0000 -SN 9999 0 0 0 2490
2019/09/06 04:19:00 BASE 7.76 349 8.39 350 -1.8 100 -1.8 0 0 1001.4 NA 0.0000 -SN 9999 230 1050 0 0
2019/09/06 04:20:00 BASE 7.65 348 8.39 350 -1.8 100 -1.8 0 0 1001.5 NA 0.0000 -SN 9999 260 980 0 0
2019/09/06 04:21:00 BASE 7.51 350 8.39 350 -1.8 100 -1.8 0 0 1001.5 NA 0.0000 -SN 9999 300 2170 0 0
2019/09/06 04:22:00 BASE 7.37 347 8.39 350 -1.9 100 -1.9 0 0 1001.5 NA 0.0000 -SN 9999 300 2130 0 0
2019/09/06 04:23:00 BASE 7.49 349 8.49 350 -1.9 100 -1.9 0 0 1001.5 NA 0.0000 -SN 9999 360 2170 0 0
2019/09/06 04:24:00 BASE 7.88 350 8.49 351 -1.9 100 -1.9 0 0 1001.5 NA 0.0000 -SN 9999 360 2170 0 0
2019/09/06 04:25:00 BASE 8.04 350 8.54 354 -1.9 100 -1.9 0 0 1001.5 NA 0.0000 -SN 9999 330 2200 0 0
2019/09/06 04:26:00 BASE 8.06 352 8.75 353 -1.9 100 -1.9 0 0 1001.5 NA 0.0000 -SN 9999 330 1710 0 0
2019/09/06 04:27:00 BASE 8.11 352 8.75 351 -1.9 100 -1.9 0 0 1001.4 NA 0.0000 9999 300 1570 0 0
2019/09/06 04:28:00 BASE 8.29 352 9.00 350 -1.9 100 -1.9 0 0 1001.4 NA 0.0000 9999 330 1480 0 0
2019/09/06 04:29:00 BASE 8.16 353 9.00 350 -1.9 100 -1.9 0 0 1001.4 NA 0.0000 9999 330 1410 0 0
2019/09/06 04:30:00 BASE 8.39 355 9.21 353 -1.9 100 -1.9 0 0 1001.4 NA 0.0000 9999 330 1310 0 0
2019/09/06 04:31:00 BASE 8.82 351 9.41 354 -1.9 100 -1.9 0 0 1001.4 NA 0.0000 9999 330 1310 0 0
2019/09/06 04:32:00 BASE 8.69 347 9.41 354 -1.8 100 -1.8 0 0 1001.4 NA 0.0000 9999 360 1280 0 0
2019/09/06 04:33:00 BASE 8.63 349 9.41 354 -1.8 100 -1.8 0 0 1001.4 NA 0.0000 9999 430 1280 0 0
2019/09/06 04:34:00 BASE 8.46 350 9.41 354 -1.8 100 -1.8 0 0 1001.4 NA 0.0000 9999 430 1250 0 0
2019/09/06 04:35:00 BASE 8.26 350 9.41 354 -1.8 100 -1.8 0 0 1001.4 NA 0.0000 9999 360 1310 0 0
2019/09/06 04:36:00 BASE 8.46 349 9.41 354 -1.8 100 -1.8 0 0 1001.4 NA 0.0000 9999 360 0 0 0
2019/09/06 04:37:00 BASE 8.73 350 9.77 349 -1.8 100 -1.8 0 0 1001.4 NA 0.0000 9999 330 0 0 0
2019/09/06 04:38:00 BASE 8.67 349 9.77 349 -1.8 100 -1.8 0 0 1001.3 NA 0.0000 9999 360 0 0 0
2019/09/06 04:39:00 BASE 8.30 353 9.77 349 -1.7 100 -1.7 0 0 1001.3 NA 0.0000 9999 300 0 0 0
2019/09/06 04:40:00 BASE 7.97 358 9.77 349 -1.7 100 -1.7 0 0 1001.2 NA 0.0000 9999 300 0 0 0
2019/09/06 04:41:00 BASE 7.53 357 9.77 349 -1.7 100 -1.7 0 0 1001.3 NA 0.0000 9999 300 0 0 0
2019/09/06 04:42:00 BASE 7.64 356 9.77 349 -1.7 100 -1.7 0 0 1001.3 NA 0.0000 9999 300 0 0 0
2019/09/06 04:43:00 BASE 8.17 351 9.77 349 -1.7 100 -1.7 0 0 1001.2 NA 0.0000 9999 300 3450 0 0
2019/09/06 04:44:00 BASE 8.07 351 9.77 349 -1.7 100 -1.7 0 0 1001.3 NA 0.0000 9999 260 3280 0 0
2019/09/06 04:45:00 BASE 7.65 353 9.77 349 -1.7 100 -1.7 0 0 1001.3 NA 0.0000 9999 260 0 0 0
2019/09/06 04:46:00 BASE 7.53 351 9.77 349 -1.7 100 -1.7 0 0 1001.3 NA 0.0000 9999 330 0 0 0
2019/09/06 04:47:00 BASE 7.87 348 9.21 349 -1.7 100 -1.7 0 0 1001.2 NA 0.0000 9999 300 0 0 0
2019/09/06 04:48:00 BASE 8.15 345 9.00 349 -1.7 100 -1.7 0 0 1001.3 NA 0.0000 9999 300 0 0 0
2019/09/06 04:49:00 BASE 7.99 344 8.75 349 -1.7 100 -1.7 0 0 1001.3 NA 0.0000 9999 360 0 0 0
2019/09/06 04:50:00 BASE 7.48 345 8.75 349 -1.7 100 -1.7 0 0 1001.3 NA 0.0000 9999 330 0 0 0
2019/09/06 04:51:00 BASE 7.22 344 8.75 349 -1.7 100 -1.7 0 0 1001.3 NA 0.0000 9999 330 0 0 0
2019/09/06 04:52:00 BASE 7.18 344 8.75 349 -1.7 100 -1.7 0 0 1001.3 NA 0.0000 9999 330 0 0 0
2019/09/06 04:53:00 BASE 7.29 345 8.69 341 -1.7 100 -1.7 0 0 1001.3 NA 0.0000 9999 300 0 0 0
2019/09/06 04:54:00 BASE 7.08 348 8.69 341 -1.7 100 -1.7 0 0 1001.3 NA 0.0000 9999 230 0 0 0
2019/09/06 04:55:00 BASE 6.42 348 8.69 341 -1.7 100 -1.7 0 0 1001.3 NA 0.0000 9999 260 0 0 0
2019/09/06 04:56:00 BASE 6.60 346 8.69 341 -1.7 100 -1.7 0 0 1001.2 NA 0.0000 9999 230 0 0 0
2019/09/06 04:57:00 BASE 7.05 346 8.59 343 -1.7 100 -1.7 0 0 1001.3 NA 0.0000 9999 260 0 0 0
2019/09/06 04:58:00 BASE 6.90 345 8.39 339 -1.7 100 -1.7 0 0 1001.3 NA 0.0000 9999 300 0 0 0
2019/09/06 04:59:00 BASE 6.65 345 7.92 339 -1.7 100 -1.7 0 0 1001.3 NA 0.0000 9999 300 0 0 0
2019/09/06 05:00:00 BASE 6.58 349 7.92 339 -1.7 100 -1.7 0 0 1001.2 NA 0.0000 9999 260 0 0 0
2019/09/06 05:01:00 BASE 6.68 356 7.92 339 -1.6 100 -1.6 0 0 1001.1 NA 0.0000 9999 300 0 0 0
2019/09/06 05:02:00 BASE 6.82 3 7.92 339 -1.6 100 -1.6 0 0 1001.0 NA 0.0000 9999 260 0 0 0
2019/09/06 05:03:00 BASE 6.70 2 7.72 342 -1.6 100 -1.6 0 0 1001.1 NA 0.0000 9999 260 0 0 0
2019/09/06 05:04:00 BASE 6.57 357 7.72 342 -1.6 100 -1.6 0 0 1001.1 NA 0.0000 9999 300 2400 0 0
2019/09/06 05:05:00 BASE 6.34 355 7.72 342 -1.6 100 -1.6 0 0 1001.1 NA 0.0000 9999 300 0 0 0
2019/09/06 05:06:00 BASE 6.12 353 7.72 342 -1.6 100 -1.6 0 0 1001.2 NA 0.0000 9999 330 2360 0 0
2019/09/06 05:07:00 BASE 6.08 351 7.41 342 -1.6 100 -1.6 0 0 1001.2 NA 0.0000 9999 460 0 0 0
2019/09/06 05:08:00 BASE 5.78 351 7.31 355 -1.6 100 -1.6 0 0 1001.1 NA 0.0000 9999 430 0 0 0
2019/09/06 05:09:01 BASE 6.07 354 7.31 355 -1.6 100 -1.6 0 0 1001.1 NA 0.0000 9999 460 0 0 0
2019/09/06 05:10:00 BASE 6.71 353 7.31 355 -1.6 100 -1.6 0 0 1001.1 NA 0.0000 9999 490 0 0 0
2019/09/06 05:11:00 BASE 6.87 349 7.31 355 -1.6 100 -1.6 0 0 1001.1 NA 0.0000 9999 430 2330 0 0
2019/09/06 05:12:00 BASE 6.57 348 7.31 355 -1.6 100 -1.6 0 0 1001.2 NA 0.0000 9999 460 0 0 0
2019/09/06 05:13:00 BASE 6.45 346 7.25 346 -1.6 100 -1.6 0 0 1001.2 NA 0.0000 9999 430 0 0 0
2019/09/06 05:14:00 BASE 6.87 345 7.61 343 -1.6 100 -1.6 0 0 1001.2 NA 0.0000 9999 430 0 0 0
2019/09/06 05:15:00 BASE 6.66 346 7.61 343 -1.6 100 -1.6 0 0 1001.3 NA 0.0000 9999 390 0 0 0
2019/09/06 05:16:00 BASE 6.35 348 7.61 343 -1.6 100 -1.6 0 0 1001.2 NA 0.0000 9999 390 0 0 0
2019/09/06 05:17:00 BASE 6.47 350 7.61 343 -1.6 100 -1.6 0 0 1001.2 NA 0.0000 9999 360 0 0 0
2019/09/06 05:18:00 BASE 6.48 350 7.61 343 -1.6 100 -1.6 0 0 1001.2 NA 0.0000 9999 330 0 0 0
2019/09/06 05:19:00 BASE 6.40 348 7.61 343 -1.6 100 -1.6 0 0 1001.2 NA 0.0000 9999 360 0 0 0
2019/09/06 05:20:00 BASE 6.20 346 7.61 343 -1.6 100 -1.6 0 0 1001.2 NA 0.0000 9999 360 0 0 0
2019/09/06 05:21:00 BASE 5.98 346 7.61 343 -1.6 100 -1.6 0 0 1001.2 NA 0.0000 9999 330 0 0 0
2019/09/06 05:22:00 BASE 5.90 346 7.61 343 -1.6 100 -1.6 0 0 1001.3 NA 0.0000 9999 330 0 0 0
2019/09/06 05:23:00 BASE 6.19 344 7.61 343 -1.6 100 -1.6 0 0 1001.2 NA 0.0000 9999 330 0 0 0
2019/09/06 05:24:00 BASE 6.69 342 7.51 340 -1.6 100 -1.6 0 0 1001.2 NA 0.0000 9999 330 0 0 0
2019/09/06 05:25:00 BASE 6.53 342 7.51 340 -1.5 100 -1.6 0 0 1001.3 NA 0.0000 9999 360 0 0 0
2019/09/06 05:26:00 BASE 6.03 342 7.51 340 -1.5 100 -1.5 0 0 1001.3 NA 0.0000 9999 390 0 0 0
2019/09/06 05:27:01 BASE 5.82 342 7.51 340 -1.5 100 -1.5 0 0 1001.3 NA 0.0000 9999 430 0 0 0
2019/09/06 05:28:01 BASE 6.26 341 7.56 335 -1.5 100 -1.5 0 0 1001.2 NA 0.0000 9999 430 0 0 0
2019/09/06 05:29:00 BASE 6.81 340 7.56 335 -1.5 100 -1.5 0 0 1001.2 NA 0.0000 9999 430 0 0 0
2019/09/06 05:30:00 BASE 6.92 339 7.56 329 -1.5 100 -1.5 0 0 1001.2 NA 0.0000 9999 390 0 0 0
2019/09/06 05:31:00 BASE 6.90 337 7.56 329 -1.5 100 -1.5 0 0 1001.2 NA 0.0000 9999 360 0 0 0
2019/09/06 05:32:00 BASE 6.80 338 7.56 329 -1.5 100 -1.5 0 0 1001.2 NA 0.0000 9999 430 0 0 0
2019/09/06 05:33:00 BASE 6.93 337 7.56 329 -1.5 100 -1.5 0 0 1001.2 NA 0.0000 9999 390 0 0 0
2019/09/06 05:34:01 BASE 7.04 336 7.56 329 -1.5 100 -1.5 0 0 1001.2 NA 0.0000 9999 430 0 0 0
2019/09/06 05:35:01 BASE 7.16 336 7.87 341 -1.5 100 -1.5 0 0 1001.1 NA 0.0000 9999 430 0 0 0
2019/09/06 05:36:00 BASE 7.52 333 8.69 328 -1.5 100 -1.5 0 0 1001.1 NA 0.0000 9999 390 0 0 0
2019/09/06 05:37:00 BASE 7.64 332 8.69 328 -1.5 100 -1.5 0 0 1001.1 NA 0.0000 9999 360 0 0 0
2019/09/06 05:38:00 BASE 7.69 333 8.69 328 -1.5 100 -1.5 0 0 1001.1 NA 0.0000 9999 300 0 0 0
2019/09/06 05:39:00 BASE 7.63 333 8.69 328 -1.5 100 -1.5 0 0 1001.1 NA 0.0000 9999 330 0 0 0
2019/09/06 05:40:00 BASE 7.83 332 8.95 324 -1.5 100 -1.5 0 0 1001.1 NA 0.0000 9999 300 0 0 0
2019/09/06 05:41:00 BASE 8.28 330 8.95 324 -1.5 100 -1.5 0 0 1001.1 NA 0.0000 9999 300 0 0 0
2019/09/06 05:42:01 BASE 8.41 330 9.11 331 -1.5 100 -1.5 0 0 1001.1 NA 0.0000 9999 330 0 0 0
2019/09/06 05:43:01 BASE 8.68 328 9.67 324 -1.5 100 -1.5 0 0 1001.1 NA 0.0000 9999 300 0 0 0
2019/09/06 05:44:01 BASE 9.10 326 9.83 323 -1.5 100 -1.5 0 0 1001.1 NA 0.0000 9999 300 0 0 0
2019/09/06 05:45:00 BASE 9.27 325 9.83 323 -1.5 100 -1.5 0 0 1001.1 NA 0.0000 9999 260 0 0 0
2019/09/06 05:46:00 BASE 9.33 325 9.83 323 -1.5 100 -1.5 0 0 1001.1 NA 0.0000 9999 260 0 0 0
2019/09/06 05:47:00 BASE 9.20 325 9.83 323 -1.5 100 -1.5 0 0 1001.1 NA 0.0000 9999 260 0 0 0
2019/09/06 05:48:00 BASE 9.13 326 9.83 323 -1.5 100 -1.5 0 0 1001.1 NA 0.0000 9999 230 0 0 0
2019/09/06 05:49:00 BASE 9.18 327 10.55 318 -1.5 100 -1.5 0 0 1001.0 NA 0.0000 9999 200 0 0 0
2019/09/06 05:50:00 BASE 9.03 326 10.55 318 -1.5 100 -1.5 0 0 1001.0 NA 0.0000 9999 200 0 0 0
2019/09/06 05:51:01 BASE 9.16 327 10.55 318 -1.5 100 -1.5 0 0 1001.0 NA 0.0000 9999 200 0 0 0
2019/09/06 05:52:00 BASE 9.67 326 10.65 322 -1.5 100 -1.5 0 0 1001.0 NA 0.0000 9999 200 0 0 0
2019/09/06 05:53:00 BASE 9.80 326 10.65 322 -1.5 100 -1.5 0 0 1000.9 NA 0.0000 9999 200 0 0 0
2019/09/06 05:54:00 BASE 9.67 327 10.65 329 -1.5 100 -1.5 0 0 1000.9 NA 0.0000 9999 230 0 0 0
2019/09/06 05:55:00 BASE 9.90 327 10.65 326 -1.5 100 -1.5 0 0 1000.9 NA 0.0000 9999 200 0 0 0
2019/09/06 05:56:00 BASE 9.96 327 10.80 329 -1.5 100 -1.5 0 0 1000.9 NA 0.0000 9999 200 0 0 0
2019/09/06 05:57:00 BASE 9.78 328 10.80 329 -1.5 100 -1.5 0 0 1000.9 NA 0.0000 9999 230 0 0 0
2019/09/06 05:58:00 BASE 9.73 330 10.96 330 -1.5 100 -1.5 0 0 1000.8 NA 0.0000 9999 200 0 0 0
2019/09/06 05:59:01 BASE 9.92 331 11.21 332 -1.5 100 -1.5 0 0 1000.8 NA 0.0000 9999 230 0 0 0
2019/09/06 06:00:00 BASE 10.29 329 11.42 325 -1.5 100 -1.5 0 0 1000.8 NA 0.0000 9999 200 0 0 0
2019/09/06 06:01:00 BASE 10.32 327 11.42 325 -1.5 100 -1.5 0 0 1000.9 NA 0.0000 9999 200 0 0 0
2019/09/06 06:02:00 BASE 10.18 327 11.42 325 -1.5 100 -1.5 0 0 1000.9 NA 0.0000 9999 0 0 0 1210
2019/09/06 06:03:00 BASE 10.45 324 11.42 325 -1.5 100 -1.5 0 0 1001.0 NA 0.0000 9999 0 0 0 1350
2019/09/06 06:04:00 BASE 10.48 320 11.42 325 -1.5 100 -1.5 0 0 1001.0 NA 0.0000 9999 0 0 0 1310
2019/09/06 06:05:01 BASE 10.04 320 11.42 325 -1.5 100 -1.5 0 0 1001.0 NA 0.0000 9999 0 0 0 1210
2019/09/06 06:06:01 BASE 9.70 322 11.42 325 -1.5 100 -1.5 0 0 1001.1 NA 0.0000 9999 0 0 0 1250
2019/09/06 06:07:00 BASE 9.43 323 11.42 325 -1.5 100 -1.5 0 0 1001.0 NA 0.0000 9999 0 0 0 1210
2019/09/06 06:08:00 BASE 9.47 325 11.42 325 -1.5 100 -1.5 0 0 1001.0 NA 0.0000 9000 0 0 0 1280
2019/09/06 06:09:00 BASE 9.62 326 11.42 325 -1.5 100 -1.5 0 0 1000.9 NA 0.0000 8000 0 0 0 1570
2019/09/06 06:10:00 BASE 9.93 328 11.32 319 -1.5 100 -1.5 0 0 1000.9 NA 0.0000 8000 0 0 0 1710
2019/09/06 06:11:00 BASE 10.45 329 11.42 331 -1.5 100 -1.5 0 0 1000.9 NA 0.0000 8000 0 0 0 1770
2019/09/06 06:12:00 BASE 10.55 328 11.63 330 -1.5 100 -1.5 0 0 1000.9 NA 0.0000 8000 0 0 0 1840
2019/09/06 06:13:00 BASE 10.75 328 12.04 326 -1.5 100 -1.5 0 0 1000.9 NA 0.0000 BR 8000 0 0 0 1800
2019/09/06 06:14:00 BASE 11.39 327 12.81 328 -1.5 100 -1.5 0 0 1000.9 NA 0.0000 BR 8000 0 0 0 1710
2019/09/06 06:15:00 BASE 11.33 327 12.81 328 -1.5 100 -1.5 0 0 1001.0 NA 0.0000 BR 8000 0 0 0 1770
2019/09/06 06:16:00 BASE 10.92 328 12.81 328 -1.5 100 -1.5 0 0 M NA 0.0000 BR 8000 0 0 0 1740
2019/09/06 06:17:00 BASE 11.09 327 12.81 328 -1.5 100 -1.5 0 0 1001.0 NA 0.0000 BR 8000 0 0 0 1740
2019/09/06 06:18:00 BASE 11.27 327 12.81 328 -1.5 100 -1.5 0 0 1000.9 NA 0.0000 BR 9000 0 0 0 1770
2019/09/06 06:19:00 BASE 11.23 326 12.81 328 -1.5 100 -1.5 0 0 1000.9 NA 0.0000 BR 9999 0 0 0 1840
2019/09/06 06:20:00 BASE 11.26 327 12.81 328 -1.5 100 -1.5 0 0 1000.9 NA 0.0000 BR 9999 0 0 0 1800
2019/09/06 06:21:00 BASE 11.21 328 12.81 328 -1.5 100 -1.5 0 0 1000.9 NA 0.0000 BR 9999 0 0 0 1770
2019/09/06 06:22:00 BASE 11.29 328 12.81 328 -1.5 100 -1.5 0 0 1000.9 NA 0.0000 BR 9999 0 0 0 1670
2019/09/06 06:23:00 BASE 11.60 330 12.81 328 -1.5 100 -1.5 0 0 1000.9 NA 0.0000 BR 9000 0 0 0 1570
2019/09/06 06:24:00 BASE 11.88 332 12.76 334 -1.5 100 -1.5 0 0 1000.9 NA 0.0000 BR 9000 0 0 0 1440
2019/09/06 06:25:00 BASE 12.01 333 12.76 334 -1.4 100 -1.4 0 0 1000.9 NA 0.0000 BR 9000 0 0 0 1540
2019/09/06 06:26:00 BASE 11.46 333 12.76 334 -1.4 100 -1.4 0 0 1001.0 NA 0.0000 BR 8000 0 0 0 1480
2019/09/06 06:27:00 BASE 10.37 335 12.76 334 -1.4 100 -1.4 0 0 1001.0 NA 0.0000 UP BR 9000 0 0 0 1440
2019/09/06 06:28:00 BASE 10.04 336 12.76 334 -1.4 100 -1.4 0 0 1001.0 NA 0.0000 UP BR 9000 0 0 0 1770
2019/09/06 06:29:00 BASE 10.31 336 12.76 334 -1.4 100 -1.4 0 0 1001.0 NA 0.0000 UP BR 9999 0 0 0 1870
2019/09/06 06:30:00 BASE 10.27 335 12.76 334 -1.5 100 -1.5 0 0 1001.0 NA 0.0000 UP BR 9000 0 0 0 1900
2019/09/06 06:31:00 BASE 10.51 336 12.76 334 -1.5 100 -1.5 0 0 1001.0 NA 0.0000 UP BR 9999 0 0 0 1970
2019/09/06 06:32:00 BASE 10.66 336 12.76 334 -1.5 100 -1.5 0 0 1001.0 NA 0.0000 UP BR 9999 0 0 0 2460
2019/09/06 06:33:00 BASE 10.78 336 12.76 334 -1.5 100 -1.5 0 0 1001.0 NA 0.0000 UP BR 9999 0 0 0 2530
2019/09/06 06:34:00 BASE 10.98 338 12.35 327 -1.5 100 -1.5 0 0 1001.0 NA 0.0000 UP BR 9999 0 0 0 1740
2019/09/06 06:35:00 BASE 11.13 339 12.19 343 -1.5 100 -1.5 0 0 1000.9 NA 0.0000 UP 9999 0 0 0 1770
2019/09/06 06:36:00 BASE 11.23 338 12.19 343 -1.5 100 -1.5 0 0 1001.0 NA 0.0000 UP 9999 0 0 0 2530
2019/09/06 06:37:00 BASE 11.32 339 12.19 338 -1.4 100 -1.4 0 0 1000.9 NA 0.0000 UP 9999 230 0 0 0
2019/09/06 06:38:00 BASE 11.37 340 12.19 338 -1.4 100 -1.4 0 0 1001.0 NA 0.0000 UP 9999 260 0 0 0
2019/09/06 06:39:00 BASE 11.14 340 12.19 338 -1.4 100 -1.4 0 0 1001.0 NA 0.0000 UP 9999 300 0 0 0
2019/09/06 06:40:00 BASE 10.92 340 12.19 338 -1.4 100 -1.4 0 0 1001.0 NA 0.0000 9999 260 0 0 0
2019/09/06 06:41:00 BASE 10.98 340 12.19 338 -1.4 100 -1.4 0 0 1000.9 NA 0.0000 9999 260 0 0 0
2019/09/06 06:42:00 BASE 10.91 340 12.19 338 -1.4 100 -1.4 0 0 1000.9 NA 0.0000 9999 260 0 0 0
2019/09/06 06:43:00 BASE 10.65 342 12.19 338 -1.4 100 -1.4 0 0 1000.9 NA 0.0000 9999 260 0 0 0
2019/09/06 06:44:00 BASE 10.78 342 12.19 338 -1.4 100 -1.4 0 0 1000.9 NA 0.0000 9999 300 0 0 0
2019/09/06 06:45:00 BASE 10.91 341 12.19 338 -1.4 100 -1.4 0 0 1000.9 NA 0.0000 9999 300 0 0 0
2019/09/06 06:46:00 BASE 10.89 340 12.19 338 -1.4 100 -1.4 0 0 1000.9 NA 0.0000 9999 360 0 0 0
2019/09/06 06:47:00 BASE 10.64 339 11.99 338 -1.4 100 -1.4 0 0 1001.0 NA 0.0000 9999 330 0 0 0
2019/09/06 06:48:00 BASE 10.20 339 11.99 338 -1.4 100 -1.4 0 0 1001.0 NA 0.0000 9999 360 0 0 0
2019/09/06 06:49:00 BASE 10.10 339 11.99 338 -1.4 100 -1.4 0 0 1001.0 NA 0.0000 9999 330 0 0 0
2019/09/06 06:50:00 BASE 10.16 338 11.99 338 -1.4 100 -1.4 0 0 1001.0 NA 0.0000 9999 360 0 0 0
2019/09/06 06:51:00 BASE 10.59 338 11.99 338 -1.4 100 -1.4 0 0 1001.0 NA 0.0000 9999 360 0 0 0
2019/09/06 06:52:00 BASE 10.66 339 11.99 338 -1.4 100 -1.4 0 0 1001.0 NA 0.0000 9999 360 0 0 0
2019/09/06 06:53:00 BASE 10.44 339 11.99 338 -1.4 100 -1.4 0 0 1001.0 NA 0.0000 9999 330 0 0 0
2019/09/06 06:54:00 BASE 10.73 339 11.99 338 -1.4 100 -1.4 0 0 1001.0 NA 0.0000 9999 330 0 0 0
2019/09/06 06:55:00 BASE 10.58 340 11.83 336 -1.4 100 -1.4 0 0 1001.0 NA 0.0000 9999 360 0 0 0
2019/09/06 06:56:00 BASE 10.38 339 11.83 336 -1.4 100 -1.4 0 0 1001.0 NA 0.0000 9999 360 0 0 0
2019/09/06 06:57:00 BASE 10.22 339 11.83 336 -1.4 100 -1.4 0 0 1001.0 NA 0.0000 9999 330 0 0 0
2019/09/06 06:58:00 BASE 9.90 339 11.83 336 -1.4 100 -1.4 0 0 1001.0 NA 0.0000 9999 330 0 0 0
2019/09/06 06:59:00 BASE 10.13 339 11.83 336 -1.4 100 -1.4 0 0 1001.0 NA 0.0000 9999 300 0 0 0
2019/09/06 07:00:00 BASE 10.43 339 11.83 336 -1.4 100 -1.4 0 0 1001.0 NA 0.0000 9999 300 0 0 0
2019/09/06 07:01:00 BASE 10.32 341 11.83 336 -1.4 100 -1.4 0 0 1000.9 NA 0.0000 9999 260 0 0 0
2019/09/06 07:02:00 BASE 10.02 343 11.83 336 -1.4 100 -1.4 0 0 1000.9 NA 0.0000 9999 260 0 0 0
2019/09/06 07:03:00 BASE 9.54 341 11.83 336 -1.4 100 -1.4 0 0 1000.9 NA 0.0000 9999 230 0 0 0
2019/09/06 07:04:00 BASE 9.43 340 11.42 342 -1.4 100 -1.4 0 0 1000.9 NA 0.0000 9999 230 0 0 0
2019/09/06 07:05:00 BASE 9.46 341 11.01 338 -1.4 100 -1.4 0 0 1000.9 NA 0.0000 9999 0 0 0 950
2019/09/06 07:06:00 BASE 9.59 343 11.01 338 -1.4 100 -1.4 0 0 1000.9 NA 0.0000 9999 0 0 0 980
2019/09/06 07:07:00 BASE 9.74 344 11.01 338 -1.4 100 -1.4 0 0 1000.9 NA 0.0000 9999 0 0 0 950
2019/09/06 07:08:00 BASE 9.70 342 11.01 338 -1.4 100 -1.4 0 0 1000.9 NA 0.0000 9999 0 0 0 950
2019/09/06 07:09:00 BASE 9.43 340 11.01 338 -1.4 100 -1.4 0 0 1000.9 NA 0.0000 9999 0 0 0 980
2019/09/06 07:10:00 BASE 9.55 341 10.80 344 -1.4 100 -1.4 0 0 1000.9 NA 0.0000 9999 0 0 0 980
2019/09/06 07:11:00 BASE 10.43 339 11.57 334 -1.4 100 -1.4 0 0 1000.9 NA 0.0000 9999 0 0 0 1020
2019/09/06 07:12:00 BASE 10.70 337 11.57 334 -1.4 100 -1.4 0 0 1000.9 NA 0.0000 9999 0 0 0 950
2019/09/06 07:13:00 BASE 9.98 339 11.57 334 -1.4 100 -1.4 0 0 1001.0 NA 0.0000 9999 0 0 0 920
2019/09/06 07:14:00 BASE 9.57 339 11.57 334 -1.4 100 -1.4 0 0 1001.0 NA 0.0000 9999 0 0 0 950
2019/09/06 07:15:00 BASE 10.46 339 11.88 338 -1.4 100 -1.4 0 0 1000.9 NA 0.0000 9999 0 0 0 920
2019/09/06 07:16:00 BASE 11.05 337 12.04 336 -1.4 100 -1.4 0 0 1000.9 NA 0.0000 9999 0 0 0 950
2019/09/06 07:17:00 BASE 10.67 337 12.04 336 -1.4 100 -1.4 0 0 1001.0 NA 0.0000 UP 9999 0 0 0 980
2019/09/06 07:18:00 BASE 10.39 338 12.04 336 -1.4 100 -1.4 0 0 1001.0 NA 0.0000 UP 9999 0 0 0 1050
2019/09/06 07:19:00 BASE 10.17 338 12.04 336 -1.4 100 -1.4 0 0 1001.0 NA 0.0000 UP 9999 0 0 0 1080
2019/09/06 07:20:00 BASE 9.94 337 12.04 336 -1.4 100 -1.4 0 0 1001.0 NA 0.0000 UP 9999 0 0 0 1080
2019/09/06 07:21:00 BASE 10.21 334 12.04 336 -1.4 100 -1.4 0 0 1001.0 NA 0.0000 UP 9999 0 0 0 1120
2019/09/06 07:22:00 BASE 10.35 334 12.04 336 -1.4 100 -1.4 0 0 1001.0 NA 0.0000 UP 9999 0 0 0 1020
2019/09/06 07:23:00 BASE 10.06 335 12.04 336 -1.4 100 -1.4 0 0 1001.0 NA 0.0000 UP 9999 0 0 0 1020
2019/09/06 07:24:00 BASE 10.02 335 12.04 336 -1.4 100 -1.4 0 0 1001.0 NA 0.0000 UP 9999 0 0 0 1080
2019/09/06 07:25:00 BASE 9.73 335 12.04 336 -1.4 100 -1.4 0 0 1001.0 NA 0.0000 UP 9999 0 0 0 1050
2019/09/06 07:26:00 BASE 9.65 335 11.57 330 -1.4 100 -1.4 0 0 1001.0 NA 0.0000 UP 9999 230 0 0 0
2019/09/06 07:27:00 BASE 10.19 337 11.57 330 -1.4 100 -1.4 0 0 1000.9 NA 0.0000 UP 9999 0 0 0 980
2019/09/06 07:28:00 BASE 10.34 337 11.57 330 -1.4 100 -1.4 0 0 1000.9 NA 0.0000 UP 9999 0 0 0 980
2019/09/06 07:29:00 BASE 9.95 336 11.57 330 -1.4 100 -1.4 0 0 1000.9 NA 0.0000 UP 9999 0 0 0 980
2019/09/06 07:30:00 BASE 9.98 336 11.57 330 -1.4 100 -1.4 0 0 1000.9 NA 0.0000 UP 9999 0 0 0 950
2019/09/06 07:31:00 BASE 10.42 338 11.47 333 -1.4 100 -1.4 0 0 1000.9 NA 0.0000 UP 9999 0 0 0 920
2019/09/06 07:32:00 BASE 10.55 338 11.47 333 -1.4 100 -1.4 0 0 1000.9 NA 0.0000 UP 9999 230 0 0 0
2019/09/06 07:33:00 BASE 10.29 337 11.47 333 -1.4 100 -1.4 0 0 1000.9 NA 0.0000 9999 230 0 0 0
2019/09/06 07:34:00 BASE 10.21 337 11.47 333 -1.4 100 -1.4 0 0 1000.9 NA 0.0000 9999 230 0 0 0
2019/09/06 07:35:00 BASE 10.34 335 11.47 333 -1.4 100 -1.4 0 0 1000.9 NA 0.0000 9999 260 0 0 0
2019/09/06 07:36:00 BASE 10.29 334 11.47 333 -1.4 100 -1.4 0 0 1000.9 NA 0.0000 9999 260 0 0 0
2019/09/06 07:37:00 BASE 10.03 336 11.47 333 -1.4 100 -1.4 0 0 1000.9 NA 0.0000 9999 230 0 0 0
2019/09/06 07:38:00 BASE 10.24 338 11.47 333 -1.4 100 -1.4 0 0 1000.8 NA 0.0000 9999 230 0 0 0
2019/09/06 07:39:00 BASE 10.09 337 11.47 333 -1.4 100 -1.4 0 0 1000.8 NA 0.0000 9999 200 0 0 0
2019/09/06 07:40:00 BASE 9.81 336 11.47 333 -1.4 100 -1.4 0 0 1000.8 NA 0.0000 9999 230 0 0 0
2019/09/06 07:41:00 BASE 10.09 337 11.32 331 -1.4 100 -1.4 0 0 1000.8 NA 0.0000 9999 260 0 0 0
2019/09/06 07:42:00 BASE 10.37 338 11.32 331 -1.4 100 -1.4 0 0 1000.8 NA 0.0000 9999 260 0 0 0
2019/09/06 07:43:00 BASE 10.41 339 11.32 331 -1.4 100 -1.4 0 0 1000.7 NA 0.0000 9999 300 0 0 0
2019/09/06 07:44:00 BASE 10.38 338 11.32 331 -1.4 100 -1.4 0 0 1000.8 NA 0.0000 9999 230 0 0 0
2019/09/06 07:45:00 BASE 10.74 339 11.52 335 -1.4 100 -1.4 0 0 1000.8 NA 0.0000 9999 230 0 0 0
2019/09/06 07:46:00 BASE 10.92 338 11.52 335 -1.4 100 -1.4 0 0 1000.7 NA 0.0000 9999 260 0 0 0
2019/09/06 07:47:00 BASE 11.07 338 11.73 338 -1.4 100 -1.4 0 0 1000.7 NA 0.0000 9999 230 0 0 0
2019/09/06 07:48:00 BASE 11.05 339 11.99 341 -1.4 100 -1.4 0 0 1000.7 NA 0.0000 9999 260 0 0 0
2019/09/06 07:49:00 BASE 10.58 338 11.99 341 -1.4 100 -1.4 0 0 1000.7 NA 0.0000 9999 230 0 0 0
2019/09/06 07:50:00 BASE 10.10 337 11.99 341 -1.4 100 -1.4 0 0 1000.7 NA 0.0000 9999 260 0 0 0
2019/09/06 07:51:00 BASE 10.16 338 11.99 341 -1.4 100 -1.4 0 0 1000.7 NA 0.0000 9999 300 0 0 0
2019/09/06 07:52:00 BASE 10.39 337 11.99 341 -1.4 100 -1.4 0 0 1000.7 NA 0.0000 9999 300 0 0 0
2019/09/06 07:53:00 BASE 10.12 337 11.99 341 -1.4 100 -1.4 0 0 1000.8 NA 0.0000 9999 260 0 0 0
2019/09/06 07:54:00 BASE 9.77 337 11.99 341 -1.4 100 -1.4 0 0 1000.8 NA 0.0000 9999 260 0 0 0
2019/09/06 07:55:00 BASE 9.61 336 11.99 341 -1.4 100 -1.4 0 0 1000.8 NA 0.0000 9999 300 0 0 0
2019/09/06 07:56:00 BASE 10.07 336 11.99 341 -1.4 100 -1.4 0 0 1000.7 NA 0.0000 9999 300 0 0 0
2019/09/06 07:57:00 BASE 10.06 335 11.99 341 -1.4 100 -1.4 0 0 1000.8 NA 0.0000 9999 330 0 0 0
2019/09/06 07:58:00 BASE 9.52 336 11.42 336 -1.4 100 -1.4 0 0 1000.7 NA 0.0000 9999 330 0 0 0
2019/09/06 07:59:00 BASE 9.39 337 11.42 336 -1.4 100 -1.4 0 0 1000.7 NA 0.0000 9999 330 0 0 0
2019/09/06 08:00:00 BASE 9.49 338 11.42 336 -1.4 100 -1.4 0 0 1000.6 NA 0.0000 9999 330 0 0 0
2019/09/06 08:01:00 BASE 9.72 337 11.42 336 -1.4 100 -1.4 0 0 1000.7 NA 0.0000 9999 330 0 0 0
2019/09/06 08:02:00 BASE 9.46 336 11.42 336 -1.4 100 -1.4 0 0 1000.7 NA 0.0000 UP 9999 330 0 0 0
2019/09/06 08:03:00 BASE 9.17 336 11.42 336 -1.4 100 -1.4 0 0 1000.6 NA 0.0000 UP 9999 360 0 0 0
2019/09/06 08:04:00 BASE 8.69 336 11.42 336 -1.4 100 -1.4 0 0 1000.6 NA 0.0000 UP 9999 360 0 0 0
2019/09/06 08:05:00 BASE 8.67 337 11.42 336 -1.4 100 -1.4 0 0 1000.6 NA 0.0000 UP 9999 330 0 0 0
2019/09/06 08:06:00 BASE 9.38 337 10.91 327 -1.4 100 -1.4 0 0 1000.5 NA 0.0000 UP 9999 360 0 0 0
2019/09/06 08:07:00 BASE 9.36 339 10.91 327 -1.4 100 -1.4 0 0 1000.5 NA 0.0000 UP 9999 330 0 0 0
2019/09/06 08:08:00 BASE 9.20 340 10.91 327 -1.4 100 -1.4 0 0 1000.5 NA 0.0000 UP 9999 360 0 0 0
2019/09/06 08:09:00 BASE 9.25 340 10.91 327 -1.4 100 -1.4 0 0 1000.5 NA 0.0000 9999 330 0 0 0
2019/09/06 08:10:00 BASE 9.04 338 10.91 327 -1.4 100 -1.4 0 0 1000.5 NA 0.0000 9999 330 0 0 0
2019/09/06 08:11:01 BASE 8.86 339 10.49 337 -1.4 100 -1.4 0 0 1000.5 NA 0.0000 9999 360 0 0 0
2019/09/06 08:12:01 BASE 9.38 339 10.49 337 -1.4 100 -1.4 0 0 1000.5 NA 0.0000 9999 330 0 0 0
2019/09/06 08:13:00 BASE 10.02 338 10.49 334 -1.4 100 -1.4 0 0 1000.5 NA 0.0000 9999 330 0 0 0
2019/09/06 08:14:00 BASE 9.78 339 10.75 335 -1.4 100 -1.4 0 0 1000.5 NA 0.0000 9999 360 0 0 0
2019/09/06 08:15:00 BASE 9.70 339 11.57 334 -1.4 100 -1.4 0 0 1000.5 NA 0.0000 9999 360 0 0 0
2019/09/06 08:16:00 BASE 9.94 338 11.57 334 -1.4 100 -1.4 0 0 1000.4 NA 0.0000 9999 360 0 0 0
2019/09/06 08:17:00 BASE 9.97 340 11.57 334 -1.4 100 -1.4 0 0 1000.4 NA 0.0000 9999 330 0 0 0
2019/09/06 08:18:01 BASE 9.98 340 11.57 334 -1.4 100 -1.4 0 0 1000.4 NA 0.0000 9999 330 0 0 0
2019/09/06 08:19:00 BASE 9.75 339 11.57 334 -1.4 100 -1.4 0 0 1000.4 NA 0.0000 9999 330 0 0 0
2019/09/06 08:20:00 BASE 9.76 337 11.57 334 -1.4 100 -1.4 0 0 1000.4 NA 0.0000 9999 330 0 0 0
2019/09/06 08:21:00 BASE 9.92 335 11.57 334 -1.4 100 -1.4 0 0 1000.4 NA 0.0000 9999 330 0 0 0
2019/09/06 08:22:00 BASE 9.84 336 11.57 334 -1.4 100 -1.4 0 0 1000.4 NA 0.0000 9999 330 0 0 0
2019/09/06 08:23:00 BASE 9.90 337 11.57 334 -1.4 100 -1.4 0 0 1000.4 NA 0.0000 9999 300 0 0 0
2019/09/06 08:24:01 BASE 10.04 338 11.57 334 -1.4 100 -1.4 0 0 1000.3 NA 0.0000 9999 260 0 0 0
2019/09/06 08:25:00 BASE 10.34 338 11.42 338 -1.4 100 -1.4 0 0 1000.3 NA 0.0000 9999 300 0 0 0
2019/09/06 08:26:00 BASE 10.17 340 11.42 338 -1.4 100 -1.4 0 0 1000.3 NA 0.0000 9999 260 0 0 0
2019/09/06 08:27:00 BASE 9.88 341 11.42 338 -1.4 100 -1.4 0 0 1000.3 NA 0.0000 9999 300 0 0 0
2019/09/06 08:28:00 BASE 9.91 340 11.42 338 -1.4 100 -1.4 0 0 1000.3 NA 0.0000 9999 300 0 0 0
2019/09/06 08:29:00 BASE 10.32 336 11.83 329 -1.4 100 -1.4 0 0 1000.3 NA 0.0000 9999 300 0 0 0
2019/09/06 08:30:00 BASE 10.60 335 11.83 329 -1.4 100 -1.4 0 0 1000.3 NA 0.0000 9999 300 0 0 0
2019/09/06 08:31:00 BASE 10.23 337 11.83 329 -1.4 100 -1.4 0 0 1000.3 NA 0.0000 9999 260 0 0 0
2019/09/06 08:32:00 BASE 9.98 339 11.83 329 -1.4 100 -1.4 0 0 1000.3 NA 0.0000 9999 260 0 0 0
2019/09/06 08:33:00 BASE 9.98 340 11.83 329 -1.4 100 -1.4 0 0 1000.3 NA 0.0000 9999 260 0 0 0
2019/09/06 08:34:00 BASE 9.92 341 11.83 329 -1.4 100 -1.4 0 0 1000.3 NA 0.0000 9999 230 0 0 0
2019/09/06 08:35:00 BASE 10.11 340 11.83 329 -1.4 100 -1.4 0 0 1000.3 NA 0.0000 9999 0 0 0 1050
2019/09/06 08:36:00 BASE 10.64 339 11.83 329 -1.4 100 -1.4 0 0 1000.3 NA 0.0000 9999 0 0 0 1050
2019/09/06 08:37:00 BASE 10.66 338 11.83 329 -1.4 100 -1.4 0 0 1000.4 NA 0.0000 9999 0 0 0 1050
2019/09/06 08:38:00 BASE 10.66 338 11.83 329 -1.4 100 -1.4 0 0 1000.3 NA 0.0000 9999 260 0 0 0
2019/09/06 08:39:00 BASE 10.89 337 11.68 335 -1.4 100 -1.4 0 0 1000.4 NA 0.0000 9999 230 0 0 0
2019/09/06 08:40:00 BASE 10.82 336 11.68 335 -1.4 100 -1.4 0 0 1000.4 NA 0.0000 9999 0 0 0 1020
2019/09/06 08:41:00 BASE 10.53 335 11.68 335 -1.4 100 -1.4 0 0 1000.4 NA 0.0000 9999 230 0 0 0
2019/09/06 08:42:00 BASE 10.63 337 11.68 335 -1.4 100 -1.4 0 0 1000.4 NA 0.0000 9999 0 0 0 1050
2019/09/06 08:43:00 BASE 11.12 338 12.19 338 -1.4 100 -1.4 0 0 1000.4 NA 0.0000 9999 0 0 0 1020
2019/09/06 08:44:00 BASE 11.44 340 12.71 338 -1.4 100 -1.4 0 0 1000.4 NA 0.0000 9999 0 0 0 1150
2019/09/06 08:45:00 BASE 11.71 341 12.71 338 -1.4 100 -1.4 0 0 1000.4 NA 0.0000 9999 0 0 0 1120
2019/09/06 08:46:00 BASE 11.55 341 12.71 338 -1.4 100 -1.4 0 0 1000.4 NA 0.0000 UP 9999 0 0 0 1180
2019/09/06 08:47:00 BASE 10.99 340 12.71 338 -1.4 100 -1.4 0 0 1000.4 NA 0.0000 UP 9999 0 0 0 1180
2019/09/06 08:48:01 BASE 11.05 340 12.71 338 -1.4 100 -1.4 0 0 1000.3 NA 0.0000 UP 9999 0 0 0 1180
2019/09/06 08:49:00 BASE 11.22 340 12.71 338 -1.4 100 -1.4 0 0 1000.4 NA 0.0000 UP 9999 0 0 0 1120
2019/09/06 08:50:00 BASE 10.98 339 12.71 338 -1.4 100 -1.4 0 0 1000.4 NA 0.0000 UP 9999 0 0 0 1080
2019/09/06 08:51:00 BASE 10.88 339 12.71 338 -1.4 100 -1.4 0 0 1000.4 NA 0.0000 UP 9999 260 0 0 0
2019/09/06 08:52:01 BASE 10.81 339 12.71 338 -1.5 100 -1.5 0 0 1000.4 NA 0.0000 UP 9999 260 0 0 0
2019/09/06 08:53:00 BASE 10.86 339 12.71 338 -1.5 100 -1.5 0 0 1000.4 NA 0.0000 UP 9999 300 0 0 0
2019/09/06 08:54:00 BASE 11.02 339 12.66 342 -1.5 100 -1.5 0 0 1000.4 NA 0.0000 UP 9999 300 0 0 0
2019/09/06 08:55:00 BASE 10.78 338 11.73 340 -1.5 100 -1.5 0 0 1000.5 NA 0.0000 UP 9999 260 0 0 0
2019/09/06 08:56:00 BASE 10.53 338 11.73 340 -1.5 100 -1.5 0 0 1000.4 NA 0.0000 UP 9999 300 0 0 0
2019/09/06 08:57:00 BASE 10.48 338 11.73 340 -1.5 100 -1.5 0 0 1000.4 NA 0.0000 UP 9999 300 0 0 0
2019/09/06 08:58:00 BASE 10.46 338 11.73 340 -1.5 100 -1.5 0 0 1000.4 NA 0.0000 UP 9999 300 0 0 0
2019/09/06 08:59:00 BASE 10.16 337 11.47 341 -1.5 100 -1.5 0 0 1000.5 NA 0.0000 UP 9999 260 0 0 0
2019/09/06 09:00:00 BASE 9.80 340 11.47 341 -1.5 100 -1.5 0 0 1000.5 NA 0.0000 UP 9999 230 0 0 0
2019/09/06 09:01:00 BASE 9.65 342 11.47 341 -1.5 100 -1.5 0 0 1000.4 NA 0.0000 UP 9999 260 0 0 0
2019/09/06 09:02:01 BASE 9.64 342 11.47 341 -1.5 100 -1.5 0 0 1000.4 NA 0.0000 UP 9999 300 0 0 0
2019/09/06 09:03:00 BASE 9.95 343 11.42 337 -1.5 100 -1.5 0 0 1000.4 NA 0.0000 9999 300 0 0 0
2019/09/06 09:04:00 BASE 10.16 344 11.42 337 -1.5 100 -1.5 0 0 1000.4 NA 0.0000 9999 330 0 0 0
2019/09/06 09:05:00 BASE 10.37 343 11.42 337 -1.5 100 -1.5 0 0 1000.4 NA 0.0000 9999 300 0 0 0
2019/09/06 09:06:00 BASE 10.51 341 11.42 337 -1.5 100 -1.5 0 0 1000.4 NA 0.0000 9999 300 0 0 0
2019/09/06 09:07:00 BASE 10.28 342 11.42 337 -1.4 100 -1.4 0 0 1000.4 NA 0.0000 9999 260 0 0 0
2019/09/06 09:08:00 BASE 10.53 342 11.42 337 -1.4 100 -1.4 0 0 1000.4 NA 0.0000 9999 260 0 0 0
2019/09/06 09:09:00 BASE 10.70 343 11.42 337 -1.4 100 -1.4 0 0 1000.3 NA 0.0000 9999 0 0 0 950
2019/09/06 09:10:00 BASE 10.34 344 11.42 337 -1.4 100 -1.4 0 0 1000.4 NA 0.0000 9999 230 0 0 0
2019/09/06 09:11:00 BASE 10.54 344 11.78 338 -1.4 100 -1.4 0 0 1000.3 NA 0.0000 9999 300 0 0 0
2019/09/06 09:12:00 BASE 10.76 344 11.78 338 -1.4 100 -1.4 0 0 1000.3 NA 0.0000 9999 260 0 0 0
2019/09/06 09:13:00 BASE 10.36 345 11.78 338 -1.4 100 -1.4 0 0 1000.4 NA 0.0000 9999 300 0 0 0
2019/09/06 09:14:00 BASE 10.08 345 11.78 338 -1.4 100 -1.4 0 0 1000.4 NA 0.0000 9999 300 0 0 0
2019/09/06 09:15:00 BASE 9.87 344 11.78 338 -1.4 100 -1.4 0 0 1000.4 NA 0.0000 9999 300 0 0 0
2019/09/06 09:16:01 BASE 9.76 345 11.78 338 -1.4 100 -1.4 0 0 1000.4 NA 0.0000 9999 330 0 0 0
2019/09/06 09:17:00 BASE 9.37 345 11.78 338 -1.4 100 -1.4 0 0 1000.5 NA 0.0000 9999 300 0 0 0
2019/09/06 09:18:01 BASE 8.96 346 11.78 338 -1.4 100 -1.4 0 0 1000.4 NA 0.0000 9999 300 0 0 0
2019/09/06 09:19:00 BASE 9.09 348 11.78 338 -1.4 100 -1.4 0 0 1000.4 NA 0.0000 9999 300 0 0 0
2019/09/06 09:20:00 BASE 9.12 347 11.78 338 -1.4 100 -1.4 0 0 1000.4 NA 0.0000 9999 300 0 0 0
2019/09/06 09:21:00 BASE 9.33 347 11.27 340 -1.4 100 -1.4 0 0 1000.3 NA 0.0000 9999 330 0 0 0
2019/09/06 09:22:01 BASE 9.63 348 10.80 341 -1.4 100 -1.4 0 0 1000.3 NA 0.0000 9999 330 0 0 0
2019/09/06 09:23:01 BASE 9.56 349 10.80 341 -1.4 100 -1.4 0 0 1000.3 NA 0.0000 9999 330 0 0 0
2019/09/06 09:24:01 BASE 9.42 351 11.11 330 -1.4 100 -1.4 0 0 1000.3 NA 0.0000 9999 300 0 0 0
2019/09/06 09:25:00 BASE 9.51 350 11.11 330 -1.3 100 -1.3 0 0 1000.3 NA 0.0000 9999 330 0 0 0
2019/09/06 09:26:01 BASE 9.11 348 11.11 330 -1.3 100 -1.3 0 0 1000.3 NA 0.0000 9999 300 0 0 0
2019/09/06 09:27:00 BASE 8.75 347 11.11 330 -1.3 100 -1.3 0 0 1000.3 NA 0.0000 9999 330 0 0 0
2019/09/06 09:28:01 BASE 9.35 346 11.11 330 -1.3 100 -1.3 0 0 1000.3 NA 0.0000 9999 300 0 0 0
2019/09/06 09:29:00 BASE 9.55 347 11.11 330 -1.3 100 -1.3 0 0 1000.3 NA 0.0000 9999 330 0 0 0
2019/09/06 09:30:00 BASE 9.50 350 11.11 330 -1.3 100 -1.3 0 0 1000.3 NA 0.0000 9999 330 0 0 0
2019/09/06 09:31:00 BASE 9.73 347 11.11 330 -1.3 100 -1.3 0 0 1000.3 NA 0.0000 9999 300 0 0 0
2019/09/06 09:32:01 BASE 9.60 346 11.11 330 -1.3 100 -1.3 0 0 1000.3 NA 0.0000 9999 300 0 0 0
2019/09/06 09:33:00 BASE 9.52 348 11.11 330 -1.3 100 -1.3 0 0 1000.3 NA 0.0000 9999 330 0 0 0
2019/09/06 09:34:01 BASE 9.49 347 10.75 346 -1.3 100 -1.3 0 0 1000.3 NA 0.0000 9999 300 0 0 0
2019/09/06 09:35:00 BASE 9.42 348 10.75 346 -1.3 100 -1.3 0 0 1000.3 NA 0.0000 9999 330 0 0 0
2019/09/06 09:36:00 BASE 9.85 351 10.75 352 -1.2 100 -1.2 0 0 1000.3 NA 0.0000 9999 260 0 0 0
2019/09/06 09:37:00 BASE 9.94 352 10.75 352 -1.2 100 -1.2 0 0 1000.3 NA 0.0000 9999 300 0 0 0
2019/09/06 09:38:01 BASE 9.57 353 10.75 352 -1.2 100 -1.2 0 0 1000.3 NA 0.0000 9999 300 0 0 0
2019/09/06 09:39:00 BASE 9.98 350 11.88 340 -1.2 100 -1.2 0 0 1000.2 NA 0.0000 9999 230 0 0 0
2019/09/06 09:40:00 BASE 10.10 351 11.88 340 -1.2 100 -1.2 0 0 1000.2 NA 0.0000 9999 260 0 0 0
2019/09/06 09:41:00 BASE 9.80 353 11.88 340 -1.2 100 -1.2 0 0 1000.2 NA 0.0000 9999 260 0 0 0
2019/09/06 09:42:00 BASE 9.82 350 11.88 340 -1.2 100 -1.2 0 0 1000.2 NA 0.0000 9999 230 0 0 0
2019/09/06 09:43:00 BASE 9.70 350 11.88 340 -1.2 100 -1.2 0 0 1000.2 NA 0.0000 9999 230 0 0 0
2019/09/06 09:44:00 BASE 10.02 348 11.88 340 -1.2 100 -1.2 0 0 1000.2 NA 0.0000 9999 230 0 0 0
2019/09/06 09:45:00 BASE 10.12 350 11.88 340 -1.2 100 -1.2 0 0 1000.2 NA 0.0000 9999 260 0 0 0
2019/09/06 09:46:00 BASE 9.96 356 11.88 340 -1.2 100 -1.2 0 0 1000.1 NA 0.0000 9999 200 0 0 0
2019/09/06 09:47:00 BASE 9.76 354 11.88 340 -1.2 100 -1.2 0 0 1000.2 NA 0.0000 9999 200 0 0 0
2019/09/06 09:48:00 BASE 9.48 351 11.88 340 -1.2 100 -1.2 0 0 1000.2 NA 0.0000 9999 0 0 0 690
2019/09/06 09:49:00 BASE 9.59 353 11.37 347 -1.2 100 -1.2 0 0 1000.1 NA 0.0000 9999 0 0 0 690
2019/09/06 09:50:00 BASE 9.64 353 11.42 354 -1.2 100 -1.2 0 0 1000.1 NA 0.0000 9999 0 0 0 690
2019/09/06 09:51:00 BASE 9.41 351 11.42 354 -1.2 100 -1.2 0 0 1000.1 NA 0.0000 9999 0 0 0 690
2019/09/06 09:52:01 BASE 9.51 350 11.42 354 -1.2 100 -1.2 0 0 1000.1 NA 0.0000 9999 0 0 0 690
2019/09/06 09:53:00 BASE 9.93 352 11.42 354 -1.2 100 -1.2 0 0 1000.1 NA 0.0000 9999 0 0 0 690
2019/09/06 09:54:01 BASE 9.78 352 11.42 354 -1.2 100 -1.2 0 0 1000.2 NA 0.0000 9999 0 0 0 690
2019/09/06 09:55:01 BASE 9.82 350 11.88 343 -1.1 100 -1.1 0 0 1000.2 NA 0.0000 9999 0 0 0 690
2019/09/06 09:56:01 BASE 9.82 350 11.88 343 -1.1 100 -1.1 0 0 1000.2 NA 0.0000 9999 0 0 0 660
2019/09/06 09:57:01 BASE 9.73 350 11.88 343 -1.1 100 -1.1 0 0 1000.2 NA 0.0000 9999 0 0 0 660
2019/09/06 09:58:01 BASE 10.35 350 11.88 343 -1.1 100 -1.1 0 0 1000.2 NA 0.0000 9999 0 0 0 660
2019/09/06 09:59:01 BASE 10.79 353 11.88 347 -1.1 100 -1.1 0 0 1000.2 NA 0.0000 9999 0 0 0 660
2019/09/06 10:00:01 BASE 10.84 351 12.04 336 -1.1 100 -1.1 0 0 1000.2 NA 0.0000 9999 0 0 0 660
2019/09/06 10:01:01 BASE 10.67 348 12.04 336 -1.1 100 -1.1 0 0 1000.2 NA 0.0000 9999 0 0 0 660
2019/09/06 10:02:01 BASE 10.94 349 12.71 345 -1.1 100 -1.1 0 0 1000.1 NA 0.0000 9999 0 0 0 620
2019/09/06 10:03:01 BASE 11.09 349 12.71 345 -1.1 100 -1.1 0 0 1000.2 NA 0.0000 9999 0 0 0 620
2019/09/06 10:04:01 BASE 10.99 349 12.71 345 -1.1 100 -1.1 0 0 1000.1 NA 0.0000 9999 0 0 0 620
2019/09/06 10:05:00 BASE 11.14 349 12.71 345 -1.1 100 -1.1 0 0 1000.1 NA 0.0000 9999 0 0 0 590
2019/09/06 10:06:01 BASE 10.69 348 12.71 345 -1.1 100 -1.1 0 0 1000.2 NA 0.0000 9999 0 0 0 620
2019/09/06 10:07:00 BASE 10.92 349 12.71 345 -1.1 100 -1.1 0 0 1000.1 NA 0.0000 9999 0 0 0 590
2019/09/06 10:08:00 BASE 11.06 351 12.71 345 -1.1 100 -1.1 0 0 1000.1 NA 0.0000 9999 0 0 0 590
2019/09/06 10:09:00 BASE 10.64 354 12.71 345 -1.1 100 -1.1 0 0 1000.1 NA 0.0000 9999 0 0 0 590
2019/09/06 10:10:00 BASE 10.39 355 12.71 345 -1.1 100 -1.1 0 0 1000.1 NA 0.0000 9999 0 0 0 590
2019/09/06 10:11:00 BASE 10.48 356 12.71 345 -1.1 100 -1.1 0 0 1000.0 NA 0.0000 9999 0 0 0 590
2019/09/06 10:12:01 BASE 11.24 354 12.71 351 -1.1 100 -1.1 0 0 1000.0 NA 0.0000 9999 0 0 0 590
2019/09/06 10:13:00 BASE 11.38 355 12.71 351 -1.1 100 -1.1 0 0 1000.0 NA 0.0000 9999 0 0 0 590
2019/09/06 10:14:01 BASE 11.26 355 12.71 351 -1.1 100 -1.1 0 0 1000.0 NA 0.0000 9999 0 0 0 590
2019/09/06 10:15:00 BASE 11.10 353 12.71 351 -1.1 100 -1.1 0 0 1000.0 NA 0.0000 9999 0 0 0 590
2019/09/06 10:16:00 BASE 11.24 352 12.71 351 -1.1 100 -1.1 0 0 1000.0 NA 0.0000 9999 0 0 0 560
2019/09/06 10:17:00 BASE 10.81 352 12.71 351 -1.1 100 -1.1 0 0 1000.1 NA 0.0000 9999 0 0 0 590
2019/09/06 10:18:00 BASE 10.06 351 12.71 351 -1.1 100 -1.1 0 0 1000.1 NA 0.0000 9999 0 0 0 590
2019/09/06 10:19:00 BASE 10.09 351 12.71 351 -1.0 100 -1.0 0 0 1000.1 NA 0.0000 9999 0 0 0 560
2019/09/06 10:20:00 BASE 10.19 350 12.71 351 -1.0 100 -1.0 0 0 1000.1 NA 0.0000 9999 0 0 0 590
2019/09/06 10:21:00 BASE 10.29 349 12.71 351 -1.0 100 -1.0 0 0 1000.1 NA 0.0000 9999 0 0 0 590
2019/09/06 10:22:00 BASE 10.14 351 12.66 350 -1.0 100 -1.0 0 0 1000.1 NA 0.0000 9999 0 0 0 560
2019/09/06 10:23:00 BASE 9.88 352 12.66 350 -1.0 100 -1.0 0 0 1000.1 NA 0.0000 9999 0 0 0 560
2019/09/06 10:24:00 BASE 10.16 350 12.66 350 -1.0 100 -1.0 0 0 1000.1 NA 0.0000 9999 0 0 0 590
2019/09/06 10:25:00 BASE 10.59 351 12.66 350 -1.0 100 -1.0 0 0 1000.1 NA 0.0000 9999 0 0 0 590
2019/09/06 10:26:01 BASE 10.56 352 11.47 351 -1.0 100 -1.0 0 0 1000.0 NA 0.0000 9999 0 0 0 560
2019/09/06 10:27:01 BASE 10.39 351 11.47 351 -1.0 100 -1.0 0 0 1000.1 NA 0.0000 9999 0 0 0 560
2019/09/06 10:28:01 BASE 10.48 352 11.47 351 -1.0 100 -1.0 0 0 1000.1 NA 0.0000 9999 0 0 0 560
2019/09/06 10:29:01 BASE 10.93 352 13.22 346 -1.0 100 -1.0 0 0 1000.0 NA 0.0000 9999 0 0 0 560
2019/09/06 10:30:01 BASE 10.55 351 13.22 346 -1.0 100 -1.0 0 0 1000.0 NA 0.0000 9999 0 0 0 560
2019/09/06 10:31:01 BASE 9.65 352 13.22 346 -1.0 100 -1.0 0 0 1000.1 NA 0.0000 9999 0 0 0 560
2019/09/06 10:32:01 BASE 9.48 352 13.22 346 -1.0 100 -1.0 0 0 1000.1 NA 0.0000 9999 0 0 0 560
2019/09/06 10:33:01 BASE 9.65 351 13.22 346 -1.0 100 -1.0 0 0 1000.1 NA 0.0000 9999 0 0 0 560
2019/09/06 10:34:01 BASE 9.82 351 13.22 346 -1.0 100 -1.0 0 0 1000.1 NA 0.0000 9999 0 0 0 590
2019/09/06 10:35:01 BASE 9.95 351 13.22 346 -1.0 100 -1.0 0 0 1000.1 NA 0.0000 9999 0 0 0 590
2019/09/06 10:36:01 BASE 9.96 350 13.22 346 -1.0 100 -1.0 0 0 1000.1 NA 0.0000 9999 0 0 0 590
2019/09/06 10:37:01 BASE 10.04 349 13.22 346 -1.0 100 -1.0 0 0 1000.1 NA 0.0000 9999 0 0 0 590
2019/09/06 10:38:01 BASE 10.13 350 13.22 346 -1.0 100 -1.0 0 0 1000.1 NA 0.0000 9999 0 0 0 590
2019/09/06 10:39:00 BASE 10.24 351 13.22 346 -1.0 100 -1.0 0 0 1000.1 NA 0.0000 9999 0 0 0 590
2019/09/06 10:40:00 BASE 10.03 349 11.32 351 -1.0 100 -1.0 0 0 1000.1 NA 0.0000 9999 0 0 0 590
2019/09/06 10:41:01 BASE 10.11 350 11.42 350 -1.0 100 -1.0 0 0 1000.1 NA 0.0000 9999 0 0 0 560
2019/09/06 10:42:01 BASE 9.93 352 11.42 350 -1.0 100 -1.0 0 0 1000.1 NA 0.0000 9999 0 0 0 590
2019/09/06 10:43:00 BASE 8.75 353 11.42 350 -0.9 100 -0.9 0 0 1000.1 NA 0.0000 9999 0 0 0 620
2019/09/06 10:44:01 BASE 8.79 351 11.42 350 -0.9 100 -0.9 0 0 1000.1 NA 0.0000 9999 0 0 0 620
2019/09/06 10:45:00 BASE 9.81 350 11.47 350 -0.9 100 -0.9 0 0 1000.0 NA 0.0000 9999 0 0 0 620
2019/09/06 10:46:01 BASE 9.93 353 11.47 350 -0.9 100 -0.9 0 0 1000.1 NA 0.0000 9999 0 0 0 620
2019/09/06 10:47:00 BASE 9.77 357 11.47 350 -0.9 100 -0.9 0 0 1000.1 NA 0.0000 9999 0 0 0 620
2019/09/06 10:48:01 BASE 9.97 354 11.73 348 -0.9 100 -0.9 0 0 1000.0 NA 0.0000 9999 200 0 0 0
2019/09/06 10:49:00 BASE 9.88 350 11.73 348 -0.9 100 -0.9 0 0 1000.1 NA 0.0000 9999 230 0 0 0
2019/09/06 10:50:00 BASE 9.39 348 11.73 348 -0.9 100 -0.9 0 0 1000.1 NA 0.0000 9999 230 0 0 0
2019/09/06 10:51:00 BASE 9.43 347 11.73 348 -0.9 100 -0.9 0 0 1000.1 NA 0.0000 9999 230 0 0 0
2019/09/06 10:52:00 BASE 9.92 349 11.73 348 -0.9 100 -0.9 0 0 1000.1 NA 0.0000 9999 260 0 0 0
2019/09/06 10:53:00 BASE 9.80 350 11.73 348 -0.9 100 -0.9 0 0 1000.1 NA 0.0000 9999 260 0 0 0
2019/09/06 10:54:00 BASE 9.32 349 11.73 348 -0.9 100 -0.9 0 0 1000.1 NA 0.0000 9999 230 0 0 0
2019/09/06 10:55:00 BASE 9.67 349 11.73 348 -0.9 100 -0.9 0 0 1000.1 NA 0.0000 9999 230 0 0 0
2019/09/06 10:56:00 BASE 9.85 349 11.73 348 -0.9 100 -0.9 1 0 1000.0 NA 0.0000 9999 200 0 0 0
2019/09/06 10:57:00 BASE 9.10 350 11.73 348 -0.9 100 -0.9 1 0 1000.1 NA 0.0000 9999 230 0 0 0
2019/09/06 10:58:00 BASE 9.36 348 11.63 343 -0.9 100 -0.9 1 0 1000.0 NA 0.0000 9999 230 0 0 0
2019/09/06 10:59:00 BASE 10.00 344 11.63 343 -0.9 100 -0.9 1 0 1000.0 NA 0.0000 9999 230 0 0 0
2019/09/06 11:00:00 BASE 10.18 346 11.63 343 -0.9 100 -0.9 1 0 1000.0 NA 0.0000 9999 260 0 0 0
2019/09/06 11:01:00 BASE 9.84 346 11.63 343 -0.9 100 -0.9 1 0 1000.0 NA 0.0000 9999 260 0 0 0
2019/09/06 11:02:00 BASE 9.06 345 11.63 343 -0.9 100 -0.9 1 0 1000.0 NA 0.0000 9999 260 0 0 0
2019/09/06 11:03:00 BASE 9.60 350 11.63 343 -0.9 100 -0.9 1 0 999.9 NA 0.0000 9999 230 0 0 0
2019/09/06 11:04:00 BASE 9.88 350 11.63 343 -0.8 100 -0.8 1 0 999.9 NA 0.0000 9999 260 0 0 0
2019/09/06 11:05:00 BASE 9.43 347 12.24 339 -0.8 100 -0.8 1 0 1000.0 NA 0.0000 9999 300 0 0 0
2019/09/06 11:06:00 BASE 9.51 346 12.24 339 -0.8 100 -0.8 1 0 1000.0 NA 0.0000 9999 300 0 0 0
2019/09/06 11:07:00 BASE 9.72 344 12.24 339 -0.8 100 -0.8 1 0 999.9 NA 0.0000 9999 300 0 0 0
2019/09/06 11:08:00 BASE 9.84 340 12.24 339 -0.8 100 -0.8 2 0 999.9 NA 0.0000 9999 260 0 0 0
2019/09/06 11:09:00 BASE 10.01 341 12.24 339 -0.8 100 -0.8 2 0 1000.0 NA 0.0000 9999 260 0 0 0
2019/09/06 11:10:00 BASE 9.60 346 12.24 339 -0.8 100 -0.8 2 0 1000.0 NA 0.0000 9999 330 0 0 0
2019/09/06 11:11:00 BASE 9.67 349 12.24 339 -0.8 100 -0.8 2 0 1000.0 NA 0.0000 9999 330 0 0 0
2019/09/06 11:12:00 BASE 10.22 346 12.24 339 -0.8 100 -0.8 2 0 1000.0 NA 0.0000 9999 300 0 0 0
2019/09/06 11:13:00 BASE 10.01 344 12.24 339 -0.8 100 -0.8 2 0 1000.1 NA 0.0000 9999 330 0 0 0
2019/09/06 11:14:00 BASE 9.69 345 12.24 339 -0.8 100 -0.8 2 0 1000.1 NA 0.0000 9999 360 0 0 0
2019/09/06 11:15:00 BASE 9.71 344 12.24 339 -0.8 100 -0.8 2 0 1000.0 NA 0.0000 9999 360 0 0 0
2019/09/06 11:16:00 BASE 9.71 344 11.73 351 -0.8 100 -0.8 2 0 1000.0 NA 0.0000 9999 360 0 0 0
2019/09/06 11:17:00 BASE 10.06 345 11.73 351 -0.8 100 -0.8 3 0 1000.0 NA 0.0000 9999 360 0 0 0
2019/09/06 11:18:00 BASE 10.14 342 11.73 351 -0.8 100 -0.8 3 0 1000.0 NA 0.0000 9999 360 0 0 0
2019/09/06 11:19:00 BASE 10.54 346 13.17 349 -0.8 100 -0.8 3 0 999.9 NA 0.0000 9999 390 0 0 0
2019/09/06 11:20:00 BASE 10.60 348 13.17 349 -0.8 100 -0.8 3 0 1000.0 NA 0.0000 9999 390 0 0 0
2019/09/06 11:21:00 BASE 10.05 346 13.17 349 -0.8 100 -0.8 3 0 999.9 NA 0.0000 9999 390 0 0 0
2019/09/06 11:22:00 BASE 10.74 347 13.17 349 -0.7 100 -0.7 3 0 999.9 NA 0.0000 9999 390 0 0 0
2019/09/06 11:23:00 BASE 10.85 343 13.17 349 -0.7 100 -0.7 3 0 999.9 NA 0.0000 9999 360 0 0 0
2019/09/06 11:24:00 BASE 11.03 342 13.17 349 -0.7 100 -0.7 3 0 999.9 NA 0.0000 9999 390 0 0 0
2019/09/06 11:25:00 BASE 11.62 349 13.17 349 -0.7 100 -0.7 3 0 999.8 NA 0.0000 9999 390 0 0 0
2019/09/06 11:26:00 BASE 11.71 353 13.17 349 -0.7 100 -0.7 3 0 999.8 NA 0.0000 9999 430 0 0 0
2019/09/06 11:27:00 BASE 11.68 351 13.17 349 -0.7 100 -0.7 4 0 999.8 NA 0.0000 9999 390 0 0 0
2019/09/06 11:28:00 BASE 11.44 348 13.38 345 -0.7 100 -0.7 4 0 999.9 NA 0.0000 9999 460 0 0 0
2019/09/06 11:29:00 BASE 10.75 349 13.38 345 -0.7 100 -0.7 4 0 999.9 NA 0.0000 9999 460 0 0 0
2019/09/06 11:30:00 BASE 10.73 349 13.38 345 -0.7 100 -0.7 4 0 999.9 NA 0.0000 9999 460 0 0 0
2019/09/06 11:31:00 BASE 10.37 344 13.38 345 -0.7 100 -0.7 4 0 999.9 NA 0.0000 9999 460 0 0 0
2019/09/06 11:32:00 BASE 10.73 345 14.51 341 -0.7 100 -0.7 4 0 999.9 NA 0.0000 9999 560 0 0 0
2019/09/06 11:33:00 BASE 12.03 347 14.51 341 -0.6 100 -0.6 4 0 999.8 NA 0.0000 9999 520 0 0 0
2019/09/06 11:34:00 BASE 11.50 344 14.51 341 -0.6 100 -0.6 4 0 999.8 NA 0.0000 9999 520 0 0 0
2019/09/06 11:35:00 BASE 10.57 344 14.51 341 -0.6 100 -0.6 4 0 999.9 NA 0.0000 9999 520 0 0 0
2019/09/06 11:36:00 BASE 11.35 344 14.51 341 -0.6 100 -0.6 5 0 999.8 NA 0.0000 9999 520 0 0 0
2019/09/06 11:37:00 BASE 11.68 345 14.51 341 -0.7 100 -0.7 5 0 999.8 NA 0.0000 9999 620 0 0 0
2019/09/06 11:38:00 BASE 10.80 345 14.51 341 -0.7 100 -0.7 5 0 999.8 NA 0.0000 9999 560 0 0 0
2019/09/06 11:39:00 BASE 10.91 343 14.51 341 -0.7 100 -0.7 5 0 999.8 NA 0.0000 9999 560 0 0 0
2019/09/06 11:40:00 BASE 10.83 341 14.51 341 -0.7 100 -0.7 5 0 999.8 NA 0.0000 9999 560 0 0 0
2019/09/06 11:41:00 BASE 10.23 344 14.51 341 -0.7 100 -0.7 6 0 999.8 NA 0.0000 9999 520 0 0 0
2019/09/06 11:42:01 BASE 10.28 347 13.48 344 -0.7 100 -0.7 6 0 999.8 NA 0.0000 9999 520 0 0 0
2019/09/06 11:43:00 BASE 10.69 348 13.07 343 -0.7 100 -0.7 6 0 999.8 NA 0.0000 9999 560 0 0 0
2019/09/06 11:44:01 BASE 10.25 348 13.07 343 -0.7 100 -0.7 6 0 999.8 NA 0.0000 9999 590 0 0 0
2019/09/06 11:45:00 BASE 9.90 348 13.07 343 -0.6 100 -0.6 6 0 999.8 NA 0.0000 9999 520 0 0 0
2019/09/06 11:46:01 BASE 9.63 348 12.50 342 -0.6 100 -0.6 7 0 999.8 NA 0.0000 9999 590 0 0 0
2019/09/06 11:47:00 BASE 9.73 347 12.50 342 -0.6 100 -0.6 7 0 999.7 NA 0.0000 9999 560 0 0 0
2019/09/06 11:48:01 BASE 9.84 349 12.50 342 -0.6 100 -0.6 6 0 999.8 NA 0.0000 9999 590 0 0 0
2019/09/06 11:49:00 BASE 9.92 350 12.50 342 -0.6 100 -0.6 6 0 999.7 NA 0.0000 9999 590 0 0 0
2019/09/06 11:50:00 BASE 10.76 348 12.50 342 -0.6 100 -0.6 6 0 999.7 NA 0.0000 9999 590 0 0 0
2019/09/06 11:51:01 BASE 10.85 349 12.50 342 -0.6 100 -0.6 6 0 999.7 NA 0.0000 9999 620 0 0 0
2019/09/06 11:52:01 BASE 10.56 352 12.50 342 -0.6 100 -0.6 6 0 999.7 NA 0.0000 9999 590 0 0 0
2019/09/06 11:53:00 BASE 10.87 353 13.02 346 -0.6 100 -0.6 6 0 999.6 NA 0.0000 9999 590 0 0 0
2019/09/06 11:54:01 BASE 10.96 356 13.02 346 -0.6 100 -0.6 7 0 999.6 NA 0.0000 9999 590 0 0 0
2019/09/06 11:55:00 BASE 10.73 351 13.02 346 -0.6 100 -0.6 7 0 999.6 NA 0.0000 9999 620 0 0 0
2019/09/06 11:56:01 BASE 10.67 347 13.02 346 -0.6 100 -0.6 7 0 999.6 NA 0.0000 9999 660 0 0 0
2019/09/06 11:57:00 BASE 10.67 353 13.02 346 -0.6 100 -0.6 7 0 999.6 NA 0.0000 9999 690 0 0 0
2019/09/06 11:58:01 BASE 11.28 354 13.43 348 -0.5 100 -0.5 7 0 999.6 NA 0.0000 9999 660 0 0 0
2019/09/06 11:59:00 BASE 11.46 351 13.43 348 -0.5 100 -0.5 7 0 999.6 NA 0.0000 9999 660 0 0 0
2019/09/06 12:00:00 BASE 10.91 349 13.43 348 -0.5 100 -0.5 7 0 999.6 NA 0.0000 9999 660 0 0 0
2019/09/06 12:01:00 BASE 11.09 348 13.43 348 -0.5 100 -0.5 8 0 999.5 NA 0.0000 9999 620 0 0 0
2019/09/06 12:02:01 BASE 11.45 349 13.43 348 -0.5 100 -0.5 8 0 999.5 NA 0.0000 9999 660 0 0 0
2019/09/06 12:03:00 BASE 11.11 350 13.43 348 -0.5 100 -0.5 8 0 999.5 NA 0.0000 9999 660 0 0 0
2019/09/06 12:04:00 BASE 10.53 347 13.43 348 -0.5 100 -0.5 8 0 999.5 NA 0.0000 9999 620 0 0 0
2019/09/06 12:05:00 BASE 10.67 348 13.43 348 -0.5 100 -0.5 9 0 999.5 NA 0.0000 9999 660 0 0 0
2019/09/06 12:06:01 BASE 11.03 351 13.43 348 -0.5 100 -0.5 9 0 999.5 NA 0.0000 9999 660 0 0 0
2019/09/06 12:07:00 BASE 11.53 350 13.43 348 -0.5 100 -0.5 9 0 999.4 NA 0.0000 9999 660 0 0 0
2019/09/06 12:08:00 BASE 11.97 349 13.17 352 -0.5 100 -0.5 9 0 999.4 NA 0.0000 9999 660 0 0 0
2019/09/06 12:09:00 BASE 11.83 346 13.17 352 -0.5 100 -0.5 10 0 999.4 NA 0.0000 9999 660 0 0 0
2019/09/06 12:10:00 BASE 11.96 346 13.17 352 -0.5 100 -0.5 10 0 999.4 NA 0.0000 9999 690 0 0 0
2019/09/06 12:11:00 BASE 11.59 348 13.12 353 -0.5 100 -0.5 10 0 999.5 NA 0.0000 9999 690 0 0 0
2019/09/06 12:12:00 BASE 11.08 347 13.12 353 -0.5 100 -0.5 10 0 999.4 NA 0.0000 9999 560 0 0 0
2019/09/06 12:13:00 BASE 11.27 345 13.12 353 -0.5 100 -0.5 10 0 999.5 NA 0.0000 9999 460 0 0 0
2019/09/06 12:14:00 BASE 11.72 347 13.12 353 -0.5 100 -0.5 10 0 999.5 NA 0.0000 9999 390 0 0 0
2019/09/06 12:15:00 BASE 11.76 347 13.12 353 -0.5 100 -0.5 11 0 999.5 NA 0.0000 9999 430 0 0 0
2019/09/06 12:16:00 BASE 11.01 346 13.12 353 -0.5 100 -0.5 11 0 999.5 NA 0.0000 9999 390 0 0 0
2019/09/06 12:17:00 BASE 10.78 348 13.12 353 -0.5 100 -0.5 11 0 999.5 NA 0.0000 9999 360 0 0 0
2019/09/06 12:18:00 BASE 11.52 348 13.02 1 -0.5 100 -0.5 12 0 999.4 NA 0.0000 9999 360 0 0 0
2019/09/06 12:19:00 BASE 11.34 350 12.96 344 -0.6 100 -0.6 12 0 999.5 NA 0.0000 9999 360 0 0 0
2019/09/06 12:20:00 BASE 11.23 349 12.96 344 -0.6 100 -0.6 13 0 999.4 NA 0.0000 9999 360 0 0 0
2019/09/06 12:21:00 BASE 11.28 348 12.96 344 -0.6 100 -0.6 13 0 999.5 NA 0.0000 9999 360 0 0 0
2019/09/06 12:22:00 BASE 10.87 348 12.96 344 -0.6 100 -0.6 13 0 999.5 NA 0.0000 9999 360 0 0 0
2019/09/06 12:23:00 BASE 11.25 348 12.96 344 -0.5 100 -0.5 14 0 999.5 NA 0.0000 9999 360 0 0 0
2019/09/06 12:24:00 BASE 10.96 348 12.96 344 -0.5 100 -0.5 14 0 999.5 NA 0.0000 9999 360 0 0 0
2019/09/06 12:25:00 BASE 10.26 346 12.86 348 -0.5 100 -0.5 15 0 999.5 NA 0.0000 9999 360 0 0 0
2019/09/06 12:26:00 BASE 10.30 343 12.86 348 -0.5 100 -0.5 16 0 999.5 NA 0.0000 9999 360 0 0 0
2019/09/06 12:27:00 BASE 10.82 344 12.86 348 -0.6 100 -0.6 16 0 999.4 NA 0.0000 9999 390 0 0 0
2019/09/06 12:28:00 BASE 10.99 345 12.86 348 -0.6 100 -0.6 16 0 999.5 NA 0.0000 9999 330 0 0 0
2019/09/06 12:29:00 BASE 10.69 344 12.86 348 -0.5 100 -0.5 16 0 999.5 NA 0.0000 UP 9999 300 0 0 0
2019/09/06 12:30:00 BASE 10.90 343 12.86 348 -0.5 100 -0.5 16 0 999.4 NA 0.0000 UP 9999 330 0 0 0
2019/09/06 12:31:00 BASE 10.77 344 12.86 348 -0.5 100 -0.5 17 0 999.4 NA 0.0000 UP 9999 300 0 0 0
2019/09/06 12:32:00 BASE 10.49 343 12.86 348 -0.5 100 -0.5 17 0 999.5 NA 0.0000 UP 9999 300 0 0 0
2019/09/06 12:33:00 BASE 10.51 344 12.55 339 -0.5 100 -0.5 18 0 999.4 NA 0.0000 UP 9999 260 0 0 0
2019/09/06 12:34:00 BASE 10.46 347 12.55 339 -0.6 100 -0.6 18 0 999.4 NA 0.0000 UP 9999 260 0 0 0
2019/09/06 12:35:00 BASE 10.54 349 12.55 339 -0.6 100 -0.6 19 0 999.4 NA 0.0000 UP 9999 260 0 0 0
2019/09/06 12:36:00 BASE 10.67 348 12.55 339 -0.5 100 -0.5 20 0 999.4 NA 0.0000 UP 9999 260 0 0 0
2019/09/06 12:37:00 BASE 10.88 345 12.35 338 -0.5 100 -0.5 20 0 999.4 NA 0.0000 UP 9999 300 0 0 0
2019/09/06 12:38:00 BASE 11.07 345 12.35 338 -0.5 100 -0.5 21 0 999.3 NA 0.0000 UP 9999 300 0 0 0
2019/09/06 12:39:00 BASE 10.90 344 12.35 338 -0.5 100 -0.5 21 0 999.4 NA 0.0000 UP 9999 300 0 0 0
2019/09/06 12:40:00 BASE 10.66 343 11.88 353 -0.5 100 -0.5 22 0 999.4 NA 0.0000 UP 9999 300 0 0 0
2019/09/06 12:41:00 BASE 10.95 344 11.88 353 -0.6 100 -0.6 23 0 999.3 NA 0.0000 UP 9999 300 0 0 0
2019/09/06 12:42:00 BASE 11.42 344 12.40 345 -0.6 100 -0.6 24 0 999.3 NA 0.0000 UP 9999 300 0 0 0
2019/09/06 12:43:00 BASE 11.91 343 13.02 347 -0.6 100 -0.6 24 0 999.2 NA 0.0000 UP 9999 300 0 0 0
2019/09/06 12:44:00 BASE 11.65 344 13.02 347 -0.6 100 -0.6 24 0 999.3 NA 0.0000 UP 9999 260 0 0 0
2019/09/06 12:45:00 BASE 11.59 344 13.27 342 -0.6 100 -0.6 24 0 999.3 NA 0.0000 UP 9999 260 0 0 0
2019/09/06 12:46:00 BASE 12.41 344 14.30 343 -0.5 100 -0.5 25 0 999.2 NA 0.0000 UP 9999 260 0 0 0
2019/09/06 12:47:01 BASE 12.76 342 14.30 343 -0.5 100 -0.5 25 0 999.2 NA 0.0000 UP 9999 300 0 0 0
2019/09/06 12:48:01 BASE 12.56 341 14.30 343 -0.5 100 -0.5 25 0 999.2 NA 0.0000 UP 9999 330 0 0 0
2019/09/06 12:49:00 BASE 12.27 341 14.30 343 -0.5 100 -0.5 26 0 999.3 NA 0.0000 UP 9999 300 0 0 0
2019/09/06 12:50:00 BASE 12.25 341 14.30 343 -0.5 100 -0.5 27 0 999.2 NA 0.0000 UP 9999 300 0 0 0
2019/09/06 12:51:00 BASE 12.03 341 14.30 343 -0.5 100 -0.5 29 0 999.2 NA 0.0000 UP 9999 300 0 0 0
2019/09/06 12:52:00 BASE 11.83 341 14.30 343 -0.6 100 -0.6 31 0 999.2 NA 0.0000 UP 9999 300 0 0 0
2019/09/06 12:53:00 BASE 12.27 342 14.30 343 -0.6 100 -0.6 33 0 999.2 NA 0.0000 UP 9999 330 0 0 0
2019/09/06 12:54:00 BASE 12.31 342 14.30 343 -0.6 100 -0.6 34 0 999.2 NA 0.0000 UP 9999 330 0 0 0
2019/09/06 12:55:00 BASE 11.66 342 14.30 343 -0.5 100 -0.5 34 0 999.2 NA 0.0000 9999 260 0 0 0
2019/09/06 12:56:00 BASE 11.20 344 13.58 344 -0.5 100 -0.5 34 0 999.2 NA 0.0000 9999 300 0 0 0
2019/09/06 12:57:00 BASE 11.54 344 13.58 344 -0.5 100 -0.5 35 0 999.2 NA 0.0000 9999 330 0 0 0
2019/09/06 12:58:00 BASE 11.78 342 13.58 344 -0.5 100 -0.5 36 0 999.2 NA 0.0000 9999 330 0 0 0
2019/09/06 12:59:00 BASE 11.19 342 13.58 344 -0.5 100 -0.5 36 0 999.2 NA 0.0000 9999 330 0 0 0
2019/09/06 13:00:00 BASE 11.13 342 13.58 344 -0.5 100 -0.5 38 0 999.2 NA 0.0000 9999 330 0 0 0
2019/09/06 13:01:00 BASE 10.91 341 13.58 344 -0.5 100 -0.5 39 0 999.2 NA 0.0000 9999 330 0 0 0
2019/09/06 13:02:01 BASE 10.65 341 13.58 344 -0.5 100 -0.5 40 0 999.2 NA 0.0000 9999 360 0 0 0
2019/09/06 13:03:00 BASE 11.38 343 12.60 344 -0.5 100 -0.5 43 0 999.1 NA 0.0000 9999 360 0 0 0
2019/09/06 13:04:00 BASE 11.72 343 12.60 344 -0.5 100 -0.5 46 0 999.2 NA 0.0000 9999 360 0 0 0
2019/09/06 13:05:00 BASE 11.09 342 12.60 344 -0.5 100 -0.5 50 0 999.2 NA 0.0000 9999 360 0 0 0
2019/09/06 13:06:00 BASE 10.80 343 12.60 344 -0.5 100 -0.5 50 0 999.2 NA 0.0000 9999 360 0 0 0
2019/09/06 13:07:00 BASE 11.43 344 12.66 348 -0.5 100 -0.5 49 0 999.1 NA 0.0000 9999 360 0 0 0
2019/09/06 13:08:01 BASE 11.94 342 12.66 343 -0.5 100 -0.5 49 0 999.1 NA 0.0000 9999 390 0 0 0
2019/09/06 13:09:00 BASE 11.65 340 12.66 343 -0.5 100 -0.5 51 0 999.1 NA 0.0000 9999 360 0 0 0
2019/09/06 13:10:00 BASE 11.71 341 12.91 340 -0.5 100 -0.5 52 0 999.1 NA 0.0000 9999 360 0 0 0
2019/09/06 13:11:01 BASE 11.97 341 12.91 340 -0.5 100 -0.5 52 0 999.1 NA 0.0000 9999 360 0 0 0
2019/09/06 13:12:01 BASE 11.89 341 12.91 342 -0.5 100 -0.5 54 0 999.1 NA 0.0000 9999 360 0 0 0
2019/09/06 13:13:00 BASE 11.84 341 12.96 341 -0.5 100 -0.5 57 0 999.1 NA 0.0000 9999 360 0 0 0
2019/09/06 13:14:00 BASE 11.85 340 12.96 341 -0.5 100 -0.5 58 0 999.0 NA 0.0000 9999 360 0 0 0
2019/09/06 13:15:00 BASE 12.03 342 12.96 341 -0.5 100 -0.5 56 0 999.1 NA 0.0000 9999 360 0 0 0
2019/09/06 13:16:00 BASE 11.62 341 12.96 341 -0.5 100 -0.5 54 0 999.1 NA 0.0000 9999 330 0 0 0
2019/09/06 13:17:00 BASE 11.19 340 12.96 341 -0.5 100 -0.5 52 0 999.1 NA 0.0000 9999 330 0 0 0
2019/09/06 13:18:00 BASE 11.49 341 12.96 341 -0.5 100 -0.5 52 0 999.1 NA 0.0000 9999 330 0 0 0
2019/09/06 13:19:00 BASE 11.68 340 12.96 341 -0.5 100 -0.5 53 0 999.1 NA 0.0000 9999 330 0 0 0
2019/09/06 13:20:00 BASE 11.72 339 12.96 341 -0.6 100 -0.6 54 0 999.0 NA 0.0000 9999 330 0 0 0
2019/09/06 13:21:00 BASE 12.02 339 13.27 340 -0.6 100 -0.6 53 0 999.0 NA 0.0000 9999 300 0 0 0
2019/09/06 13:22:00 BASE 12.33 339 13.27 340 -0.6 100 -0.6 52 0 999.0 NA 0.0000 9999 300 0 0 0
2019/09/06 13:23:00 BASE 11.74 339 13.27 340 -0.6 100 -0.6 52 0 999.0 NA 0.0000 9999 330 0 0 0
2019/09/06 13:24:00 BASE 11.43 339 13.27 340 -0.6 100 -0.6 53 0 999.0 NA 0.0000 9999 360 0 0 0
2019/09/06 13:25:00 BASE 11.80 339 13.27 340 -0.5 100 -0.5 55 0 999.0 NA 0.0000 9999 360 0 0 0
2019/09/06 13:26:00 BASE 11.62 339 13.27 340 -0.5 100 -0.5 57 0 999.0 NA 0.0000 9999 330 0 0 0
2019/09/06 13:27:00 BASE 11.89 339 13.27 340 -0.5 100 -0.5 58 0 998.9 NA 0.0000 9999 330 0 0 0
2019/09/06 13:28:00 BASE 12.23 338 13.27 340 -0.5 100 -0.5 59 0 998.9 NA 0.0000 9999 330 0 0 0
2019/09/06 13:29:00 BASE 12.20 338 13.27 337 -0.5 100 -0.5 60 0 998.9 NA 0.0000 UP 9999 330 0 0 0
2019/09/06 13:30:00 BASE 12.35 337 13.27 337 -0.5 100 -0.5 62 0 998.9 NA 0.0000 UP 9999 360 0 0 0
2019/09/06 13:31:00 BASE 12.45 338 13.74 340 -0.5 100 -0.5 64 0 998.9 NA 0.0000 UP 9999 360 0 0 0
2019/09/06 13:32:00 BASE 11.94 340 13.74 340 -0.5 100 -0.5 66 0 998.9 NA 0.0000 UP 9999 330 0 0 0
2019/09/06 13:33:00 BASE 11.86 339 13.94 338 -0.5 100 -0.5 65 0 998.9 NA 0.0000 UP 9999 300 0 0 0
2019/09/06 13:34:01 BASE 12.30 338 13.94 338 -0.4 100 -0.4 65 0 998.9 NA 0.0000 UP 9999 300 0 0 0
2019/09/06 13:35:00 BASE 12.09 338 13.94 338 -0.4 100 -0.4 65 0 998.9 NA 0.0000 UP 9999 260 0 0 0
2019/09/06 13:36:00 BASE 11.99 337 13.94 338 -0.4 100 -0.4 63 0 998.9 NA 0.0000 UP 9999 230 0 0 0
2019/09/06 13:37:00 BASE 11.89 337 13.94 338 -0.4 100 -0.4 61 0 998.9 NA 0.0000 UP 9999 0 0 0 1350
2019/09/06 13:38:00 BASE 12.46 337 14.04 337 -0.4 100 -0.4 59 0 998.9 NA 0.0000 UP 9000 0 0 0 1280
2019/09/06 13:39:00 BASE 12.36 335 14.04 337 -0.4 100 -0.4 58 0 998.9 NA 0.0000 UP 9000 0 0 0 1280
2019/09/06 13:40:00 BASE 11.46 333 14.04 337 -0.4 100 -0.4 57 0 998.9 NA 0.0000 UP BR 7000 0 0 0 1310
2019/09/06 13:41:00 BASE 11.79 335 14.04 337 -0.4 100 -0.4 57 0 998.9 NA 0.0000 UP BR 7000 0 0 0 1280
2019/09/06 13:42:00 BASE 12.76 336 14.25 333 -0.4 100 -0.4 56 0 998.8 NA 0.0000 UP BR 8000 0 0 0 1610
2019/09/06 13:43:00 BASE 12.94 335 14.25 333 -0.4 100 -0.4 57 0 998.9 NA 0.0000 UP BR 9000 0 0 0 1570
2019/09/06 13:44:00 BASE 11.97 334 14.25 333 -0.4 100 -0.4 59 0 998.8 NA 0.0000 UP BR 9000 0 0 0 1540
2019/09/06 13:45:00 BASE 11.53 333 14.25 333 -0.4 100 -0.4 59 0 998.8 NA 0.0000 UP BR 9000 230 0 0 0
2019/09/06 13:46:00 BASE 11.72 331 14.25 333 -0.4 100 -0.4 59 0 998.8 NA 0.0000 UP BR 9000 260 0 0 0
2019/09/06 13:47:00 BASE 11.47 331 14.25 333 -0.4 100 -0.4 59 0 998.9 NA 0.0000 UP BR 9000 300 0 0 0
2019/09/06 13:48:00 BASE 11.45 334 14.25 333 -0.4 100 -0.4 59 0 998.8 NA 0.0000 UP BR 9000 260 0 0 0
2019/09/06 13:49:00 BASE 11.63 334 14.25 333 -0.4 100 -0.4 60 0 998.8 NA 0.0000 UP BR 9000 0 0 0 1180
2019/09/06 13:50:00 BASE 11.10 334 14.25 333 -0.4 100 -0.4 60 0 998.8 NA 0.0000 UP BR 9000 0 0 0 1350
2019/09/06 13:51:00 BASE 11.53 334 14.25 333 -0.4 100 -0.4 61 0 998.8 NA 0.0000 UP BR 9000 0 0 0 1350
2019/09/06 13:52:01 BASE 11.83 336 13.48 332 -0.4 100 -0.4 62 0 998.8 NA 0.0000 UP BR 9999 260 0 0 0
2019/09/06 13:53:00 BASE 11.56 337 13.48 332 -0.3 100 -0.3 61 0 998.7 NA 0.0000 UP BR 9000 230 1150 0 0
2019/09/06 13:54:00 BASE 11.83 337 13.48 332 -0.3 100 -0.3 60 0 998.7 NA 0.0000 UP BR 9000 230 0 0 0
2019/09/06 13:55:00 BASE 11.70 338 13.53 337 -0.3 100 -0.3 59 0 998.8 NA 0.0000 UP BR 9000 230 0 0 0
2019/09/06 13:56:01 BASE 11.91 336 13.53 337 -0.3 100 -0.3 61 0 998.7 NA 0.0000 UP BR 9999 260 0 0 0
2019/09/06 13:57:00 BASE 11.55 333 13.53 337 -0.3 100 -0.3 62 0 998.8 NA 0.0000 UP BR 9999 230 0 0 0
2019/09/06 13:58:01 BASE 11.03 332 13.53 337 -0.3 100 -0.3 61 0 998.7 NA 0.0000 UP BR 9999 0 0 0 1480
2019/09/06 13:59:00 BASE 10.77 336 13.53 337 -0.3 100 -0.3 61 0 998.8 NA 0.0000 UP BR 9999 0 0 0 1410
2019/09/06 14:00:00 BASE 10.91 338 13.53 337 -0.3 100 -0.3 62 0 998.7 NA 0.0000 UP BR 9000 0 0 0 1210
2019/09/06 14:01:00 BASE 10.88 335 13.53 337 -0.3 100 -0.3 65 0 998.7 NA 0.0000 UP BR 9000 0 0 0 1120
2019/09/06 14:02:00 BASE 10.84 332 13.53 337 -0.3 100 -0.3 72 0 998.7 NA 0.0000 UP BR 7000 0 0 0 1120
2019/09/06 14:03:00 BASE 11.31 330 13.53 337 -0.3 100 -0.3 81 0 998.6 NA 0.0000 UP BR 6000 0 0 0 1150
2019/09/06 14:04:01 BASE 10.91 332 13.53 337 -0.3 100 -0.3 89 0 998.6 NA 0.0000 UP BR 8000 0 0 0 1150
2019/09/06 14:05:00 BASE 9.71 334 13.38 340 -0.3 100 -0.3 94 0 998.6 NA 0.0000 UP BR 9000 0 0 0 1180
2019/09/06 14:06:00 BASE 9.00 335 12.91 328 -0.3 100 -0.3 98 0 998.6 NA 0.0000 UP BR 9999 0 0 0 1380
2019/09/06 14:07:00 BASE 9.15 335 12.91 328 -0.3 100 -0.3 101 0 998.6 NA 0.0000 UP BR 9000 0 0 0 1310
2019/09/06 14:08:00 BASE 9.65 334 12.91 328 -0.3 100 -0.3 103 0 998.5 NA 0.0000 UP BR 9000 0 0 0 1280
2019/09/06 14:09:00 BASE 10.10 335 12.91 328 -0.3 100 -0.3 103 0 998.5 NA 0.0000 UP BR 9000 0 0 0 1280
2019/09/06 14:10:00 BASE 10.24 334 12.91 328 -0.3 100 -0.3 99 0 998.5 NA 0.0000 UP BR 9999 0 0 0 1970
2019/09/06 14:11:00 BASE 10.54 332 12.91 328 -0.3 100 -0.3 95 0 998.5 NA 0.0000 UP BR 9999 0 0 0 1540
2019/09/06 14:12:01 BASE 10.63 331 12.09 330 -0.3 100 -0.3 95 0 998.5 NA 0.0000 UP BR 9000 0 0 0 1480
2019/09/06 14:13:01 BASE 10.55 331 11.47 335 -0.3 100 -0.3 94 0 998.5 NA 0.0000 UP BR 9000 0 0 0 1480
2019/09/06 14:14:00 BASE 10.63 331 11.78 329 -0.3 100 -0.3 92 0 998.5 NA 0.0000 UP BR 9000 0 0 0 1610
2019/09/06 14:15:00 BASE 10.96 331 12.50 331 -0.3 100 -0.3 91 0 998.4 NA 0.0000 UP BR 9000 0 0 0 1480
2019/09/06 14:16:00 BASE 11.15 331 12.50 331 -0.3 100 -0.3 91 0 998.5 NA 0.0000 UP BR 9000 0 0 0 1310
2019/09/06 14:17:00 BASE 11.21 333 12.50 331 -0.3 100 -0.3 89 0 998.4 NA 0.0000 UP BR 9000 0 0 0 1380
2019/09/06 14:18:00 BASE 10.85 335 12.50 331 -0.3 100 -0.3 86 0 998.4 NA 0.0000 UP BR 9000 0 0 0 1250
2019/09/06 14:19:00 BASE 10.10 335 12.50 331 -0.3 100 -0.3 84 0 998.4 NA 0.0000 UP BR 9000 0 0 0 1410
2019/09/06 14:20:00 BASE 9.68 336 12.50 331 -0.3 100 -0.3 82 0 998.4 NA 0.0000 UP BR 9999 0 0 0 1410
2019/09/06 14:21:00 BASE 9.60 336 12.50 331 -0.3 100 -0.3 83 0 998.4 NA 0.0000 UP BR 9000 0 0 0 1280
2019/09/06 14:22:00 BASE 9.43 337 12.50 331 -0.3 100 -0.3 84 0 998.4 NA 0.0000 UP BR 8000 0 0 0 1380
2019/09/06 14:23:00 BASE 9.45 342 12.50 331 -0.3 100 -0.3 86 0 998.4 NA 0.0000 UP BR 8000 0 0 0 1480
2019/09/06 14:24:00 BASE 9.44 343 12.50 331 -0.3 100 -0.3 85 0 998.4 NA 0.0000 UP BR 8000 0 0 0 1540
2019/09/06 14:25:00 BASE 9.21 343 11.88 339 -0.3 100 -0.3 83 0 998.4 NA 0.0000 UP BR 9000 0 0 0 1440
2019/09/06 14:26:00 BASE 9.41 343 11.88 339 -0.3 100 -0.3 82 0 998.4 NA 0.0000 UP BR 9999 0 0 0 1180
2019/09/06 14:27:00 BASE 9.34 340 11.11 330 -0.3 100 -0.3 82 0 998.4 NA 0.0000 UP BR 9999 0 0 0 1150
2019/09/06 14:28:00 BASE 9.16 338 10.55 338 -0.3 100 -0.3 84 0 998.4 NA 0.0000 UP BR 9999 0 0 0 980
2019/09/06 14:29:00 BASE 9.19 337 10.55 338 -0.3 100 -0.3 87 0 998.4 NA 0.0000 UP BR 9999 230 0 0 0
2019/09/06 14:30:00 BASE 9.73 336 11.11 333 -0.3 100 -0.3 88 0 998.3 NA 0.0000 UP BR 9000 0 0 0 920
2019/09/06 14:31:00 BASE 10.26 337 11.11 333 -0.3 100 -0.3 88 0 998.3 NA 0.0000 UP BR 8000 230 0 0 0
2019/09/06 14:32:00 BASE 10.70 339 12.04 340 -0.3 100 -0.3 89 0 998.3 NA 0.0000 UP BR 9999 230 0 0 0
2019/09/06 14:33:00 BASE 11.40 341 12.96 336 -0.3 100 -0.3 91 0 998.2 NA 0.0000 UP BR 9999 230 0 0 0
2019/09/06 14:34:00 BASE 10.80 341 12.96 336 -0.3 100 -0.3 92 0 998.3 NA 0.0000 UP BR 9999 260 0 0 0
2019/09/06 14:35:00 BASE 10.01 343 12.96 336 -0.3 100 -0.3 93 0 998.2 NA 0.0000 UP 9999 230 0 0 0
2019/09/06 14:36:00 BASE 10.78 342 12.96 336 -0.3 100 -0.3 95 0 998.2 NA 0.0000 UP 9999 0 0 0 950
2019/09/06 14:37:00 BASE 11.13 341 12.96 336 -0.3 100 -0.3 97 0 998.2 NA 0.0000 UP BR 9999 0 0 0 1050
2019/09/06 14:38:00 BASE 10.91 343 12.96 336 -0.3 100 -0.3 100 0 998.1 NA 0.0000 UP BR 9999 0 0 0 1150
2019/09/06 14:39:00 BASE 10.77 340 12.96 336 -0.3 100 -0.3 104 0 998.1 NA 0.0000 UP BR 9999 0 0 0 1020
2019/09/06 14:40:00 BASE 10.25 337 12.96 336 -0.3 100 -0.3 104 0 998.1 NA 0.0000 UP 9999 0 0 0 1150
2019/09/06 14:41:00 BASE 10.29 337 12.96 336 -0.3 100 -0.3 101 0 998.1 NA 0.0000 UP 9999 0 0 0 1150
2019/09/06 14:42:00 BASE 10.80 339 12.96 336 -0.3 100 -0.3 100 0 998.0 NA 0.0000 UP 9000 0 0 0 1150
2019/09/06 14:43:00 BASE 10.80 336 12.71 341 -0.3 100 -0.3 99 0 998.1 NA 0.0000 UP BR 9000 0 0 0 1180
2019/09/06 14:44:00 BASE 10.22 334 12.71 341 -0.3 100 -0.3 98 0 998.1 NA 0.0000 UP BR 9000 0 0 0 1120
2019/09/06 14:45:00 BASE 10.28 336 12.71 341 -0.3 100 -0.3 97 0 998.0 NA 0.0000 UP BR 9000 0 0 0 1150
2019/09/06 14:46:00 BASE 10.73 337 12.71 341 -0.3 100 -0.3 98 0 998.0 NA 0.0000 UP BR 9000 0 0 0 1120
2019/09/06 14:47:00 BASE 10.65 338 12.71 341 -0.3 100 -0.3 97 0 998.0 NA 0.0000 UP BR 9000 0 0 0 1150
2019/09/06 14:48:00 BASE 10.64 338 12.71 341 -0.3 100 -0.3 97 0 998.0 NA 0.0000 UP BR 9999 0 0 0 1120
2019/09/06 14:49:00 BASE 10.63 338 12.71 341 -0.3 100 -0.3 97 0 998.0 NA 0.0000 UP BR 9999 0 0 0 1150
2019/09/06 14:50:00 BASE 10.79 338 12.71 341 -0.3 100 -0.3 97 0 997.9 NA 0.0000 UP BR 9999 0 0 0 1180
2019/09/06 14:51:00 BASE 10.43 336 12.71 341 -0.3 100 -0.3 97 0 997.9 NA 0.0000 UP BR 9999 0 0 0 1180
2019/09/06 14:52:00 BASE 10.31 335 11.88 333 -0.3 100 -0.3 100 0 997.9 NA 0.0000 UP BR 9999 0 0 0 1180
2019/09/06 14:53:00 BASE 10.66 337 11.88 333 -0.3 100 -0.3 103 0 997.9 NA 0.0000 UP BR 9999 230 0 0 0
2019/09/06 14:54:00 BASE 10.66 339 11.88 333 -0.3 100 -0.3 106 0 997.9 NA 0.0000 UP BR 9999 0 0 0 1210
2019/09/06 14:55:00 BASE 10.87 340 11.88 333 -0.3 100 -0.3 107 0 997.8 NA 0.0000 UP BR 9999 0 0 0 1180
2019/09/06 14:56:00 BASE 10.77 339 11.88 333 -0.3 100 -0.3 108 0 997.9 NA 0.0000 UP BR 9999 0 0 0 1210
2019/09/06 14:57:00 BASE 10.99 337 11.88 335 -0.3 100 -0.3 109 0 997.9 NA 0.0000 UP 9999 0 0 0 1280
2019/09/06 14:58:00 BASE 11.28 338 11.99 337 -0.3 100 -0.3 110 0 997.8 NA 0.0000 UP 9999 0 0 0 1250
2019/09/06 14:59:00 BASE 11.22 338 11.99 339 -0.3 100 -0.3 109 0 997.8 NA 0.0000 UP BR 9000 0 0 0 1310
2019/09/06 15:00:00 BASE 10.73 336 11.99 339 -0.3 100 -0.3 109 0 997.8 NA 0.0000 UP BR 9000 0 0 0 1280
2019/09/06 15:01:00 BASE 9.96 335 11.99 339 -0.3 100 -0.3 110 0 997.8 NA 0.0000 UP BR 9000 0 0 0 1250
2019/09/06 15:02:00 BASE 10.24 337 12.30 338 -0.3 100 -0.3 111 0 997.8 NA 0.0000 UP BR 9000 0 0 0 1310
2019/09/06 15:03:00 BASE 11.08 336 12.30 338 -0.3 100 -0.3 112 0 997.8 NA 0.0000 UP BR 9000 0 0 0 1350
2019/09/06 15:04:01 BASE 11.10 336 12.30 338 -0.3 100 -0.3 116 0 997.8 NA 0.0000 UP BR 9000 230 0 0 0
2019/09/06 15:05:00 BASE 10.66 339 12.30 338 -0.3 100 -0.3 119 0 997.8 NA 0.0000 UP BR 9000 260 0 0 0
2019/09/06 15:06:00 BASE 10.74 337 12.30 338 -0.3 100 -0.3 121 0 997.8 NA 0.0000 UP BR 9000 260 0 0 0
2019/09/06 15:07:00 BASE 10.80 336 12.30 338 -0.3 100 -0.3 124 0 997.8 NA 0.0000 UP BR 9000 300 0 0 0
2019/09/06 15:08:00 BASE 10.36 336 12.30 338 -0.3 100 -0.3 126 0 997.8 NA 0.0000 UP BR 9000 260 0 0 0
2019/09/06 15:09:00 BASE 10.32 337 12.30 338 -0.3 100 -0.3 126 0 997.7 NA 0.0000 BR 9000 230 0 0 0
2019/09/06 15:10:00 BASE 11.07 340 12.81 340 -0.3 100 -0.3 126 0 997.7 NA 0.0000 BR 9000 0 0 0 1280
2019/09/06 15:11:00 BASE 11.57 340 12.81 340 -0.3 100 -0.3 125 0 997.7 NA 0.0000 BR 9000 0 0 0 1310
2019/09/06 15:12:00 BASE 11.42 338 12.81 340 -0.3 100 -0.3 124 0 997.7 NA 0.0000 BR 9000 0 0 0 1380
2019/09/06 15:13:00 BASE 11.34 338 12.81 340 -0.3 100 -0.3 125 0 997.7 NA 0.0000 BR 9000 21420 22970 0 0
2019/09/06 15:14:00 BASE 11.49 338 12.81 340 -0.3 100 -0.3 125 0 997.7 NA 0.0000 BR 9000 0 0 0 1350
2019/09/06 15:15:00 BASE 11.74 337 12.81 340 -0.3 100 -0.3 124 0 997.7 NA 0.0000 BR 9000 0 0 0 1410
2019/09/06 15:16:00 BASE 11.62 336 12.81 340 -0.3 100 -0.3 124 0 997.7 NA 0.0000 BR 9000 0 0 0 1380
2019/09/06 15:17:00 BASE 11.08 333 12.81 340 -0.3 100 -0.3 124 0 997.7 NA 0.0000 BR 9000 0 0 0 1380
2019/09/06 15:18:00 BASE 11.03 334 12.81 340 -0.3 100 -0.3 124 0 997.7 NA 0.0000 UP BR 9000 0 0 0 1480
2019/09/06 15:19:00 BASE 11.45 338 13.94 339 -0.3 100 -0.3 123 0 997.6 NA 0.0000 UP BR 9000 0 0 0 1480
2019/09/06 15:20:00 BASE 12.44 339 14.20 344 -0.3 100 -0.3 124 0 997.5 NA 0.0000 UP BR 9000 0 0 0 1410
2019/09/06 15:21:00 BASE 13.22 339 14.20 344 -0.3 100 -0.3 125 0 997.6 NA 0.0000 UP BR 9000 0 0 0 1410
2019/09/06 15:22:00 BASE 13.10 339 14.20 344 -0.3 100 -0.3 126 0 997.5 NA 0.0000 UP BR 9000 0 0 0 1410
2019/09/06 15:23:00 BASE 12.94 338 14.20 344 -0.3 100 -0.3 127 0 997.5 NA 0.0000 UP BR 9000 0 0 0 1440
2019/09/06 15:24:00 BASE 12.72 340 14.20 344 -0.3 100 -0.3 128 0 997.5 NA 0.0000 UP BR 9000 0 0 0 1440
2019/09/06 15:25:00 BASE 12.41 341 14.20 344 -0.3 100 -0.3 130 0 997.5 NA 0.0000 UP BR 9000 0 0 0 1380
2019/09/06 15:26:00 BASE 12.35 342 14.20 344 -0.4 100 -0.4 131 0 997.4 NA 0.0000 BR 9000 0 0 0 1510
2019/09/06 15:27:00 BASE 12.52 343 14.20 344 -0.4 100 -0.4 133 0 997.4 NA 0.0000 BR 9000 0 0 0 1350
2019/09/06 15:28:00 BASE 12.05 344 14.20 344 -0.4 100 -0.4 134 0 997.4 NA 0.0000 BR 9000 0 0 0 1350
2019/09/06 15:29:00 BASE 11.83 341 14.20 344 -0.4 100 -0.4 135 0 997.4 NA 0.0000 BR 9000 0 0 0 1210
2019/09/06 15:30:00 BASE 11.79 338 13.84 337 -0.4 100 -0.4 138 0 997.5 NA 0.0000 BR 9000 0 0 0 1150
2019/09/06 15:31:00 BASE 11.48 340 13.74 337 -0.4 100 -0.4 138 0 997.5 NA 0.0000 BR 9000 0 0 0 1180
2019/09/06 15:32:00 BASE 11.49 339 13.68 339 -0.4 100 -0.4 140 0 997.4 NA 0.0000 BR 9000 0 0 0 1180
2019/09/06 15:33:00 BASE 11.61 339 13.63 350 -0.4 100 -0.4 141 0 997.4 NA 0.0000 BR 8000 0 0 0 1250
2019/09/06 15:34:00 BASE 12.17 340 13.22 341 -0.4 100 -0.4 141 0 997.3 NA 0.0000 UP BR 7000 0 0 0 1210
2019/09/06 15:35:00 BASE 12.45 341 13.58 342 -0.4 100 -0.4 142 0 997.3 NA 0.0000 UP BR 8000 0 0 0 1120
2019/09/06 15:36:00 BASE 12.46 340 13.58 342 -0.4 100 -0.4 143 0 997.3 NA 0.0000 UP BR 8000 0 0 0 1250
2019/09/06 15:37:00 BASE 12.30 339 13.58 342 -0.4 100 -0.4 145 0 997.3 NA 0.0000 UP BR 7000 0 0 0 1150
2019/09/06 15:38:00 BASE 12.75 336 15.43 327 -0.4 100 -0.4 146 0 997.3 NA 0.0000 UP BR 6000 0 0 0 1310
2019/09/06 15:39:00 BASE 13.52 337 15.43 327 -0.4 100 -0.4 149 0 997.3 NA 0.0000 UP BR 5000 0 0 0 1210
2019/09/06 15:40:00 BASE 12.84 341 15.43 327 -0.5 100 -0.5 151 0 997.3 NA 0.0000 UP BR 7000 0 0 0 1280
2019/09/06 15:41:00 BASE 12.36 342 15.43 327 -0.5 100 -0.5 152 0 997.3 NA 0.0000 UP BR 9000 0 0 0 1410
2019/09/06 15:42:00 BASE 13.03 342 15.43 327 -0.5 100 -0.5 151 0 997.2 NA 0.0000 UP BR 9000 0 0 0 1310
2019/09/06 15:43:00 BASE 13.55 341 15.43 327 -0.5 100 -0.5 150 0 997.2 NA 0.0000 UP BR 9000 0 0 0 1280
2019/09/06 15:44:00 BASE 13.42 341 15.43 327 -0.5 100 -0.5 150 0 997.2 NA 0.0000 UP BR 9000 0 0 0 1250
2019/09/06 15:45:00 BASE 13.38 342 15.43 327 -0.5 100 -0.5 147 0 997.2 NA 0.0000 UP BR 9000 0 0 0 1280
2019/09/06 15:46:00 BASE 13.98 342 15.43 327 -0.5 100 -0.5 144 0 997.1 NA 0.0000 UP BR 9000 0 0 0 1210
2019/09/06 15:47:00 BASE 14.44 341 15.43 327 -0.5 100 -0.5 139 0 997.1 NA 0.0000 UP BR 9000 0 0 0 1280
2019/09/06 15:48:00 BASE 14.29 342 15.33 343 -0.5 100 -0.5 133 0 997.1 NA 0.0000 UP BR 9000 0 0 0 1210
2019/09/06 15:49:00 BASE 14.79 341 17.13 342 -0.5 100 -0.5 127 0 997.0 NA 0.0000 UP BR 9000 0 0 0 1180
2019/09/06 15:50:00 BASE 14.66 339 17.13 342 -0.5 100 -0.5 123 0 997.0 NA 0.0000 BR 9000 0 0 0 1180
2019/09/06 15:51:00 BASE 13.64 341 17.13 342 -0.5 100 -0.5 118 0 997.0 NA 0.0000 BR 9000 19360 0 0 0
2019/09/06 15:52:00 BASE 13.84 344 17.13 342 -0.5 100 -0.5 111 0 997.0 NA 0.0000 BR 9000 0 0 0 1310
2019/09/06 15:53:00 BASE 14.21 342 17.13 342 -0.6 100 -0.6 105 0 997.0 NA 0.0000 BR 9000 0 0 0 1310
2019/09/06 15:54:00 BASE 13.86 341 17.13 342 -0.6 100 -0.6 98 0 997.0 NA 0.0000 BR 9000 0 0 0 1310
2019/09/06 15:55:00 BASE 13.62 342 17.13 342 -0.6 100 -0.6 93 0 997.0 NA 0.0000 BR 9000 0 0 0 1440
2019/09/06 15:56:00 BASE 13.38 342 17.13 342 -0.6 100 -0.6 91 0 997.0 NA 0.0000 BR 9000 0 0 0 1380
2019/09/06 15:57:00 BASE 13.20 341 17.13 342 -0.6 100 -0.6 93 0 997.0 NA 0.0000 BR 9000 0 0 0 1440
2019/09/06 15:58:00 BASE 14.35 339 17.65 336 -0.6 100 -0.6 97 0 996.9 NA 0.0000 BR 9000 0 0 0 1410
2019/09/06 15:59:00 BASE 15.31 337 17.65 336 -0.6 100 -0.6 101 0 996.9 NA 0.0000 BR 9000 230 0 0 0
2019/09/06 16:00:00 BASE 14.57 337 17.65 336 -0.6 100 -0.6 105 0 997.0 NA 0.0000 BR 9000 0 0 0 1540
2019/09/06 16:01:00 BASE 15.07 339 18.16 338 -0.6 100 -0.6 111 0 996.8 NA 0.0000 BR 9000 0 0 0 1440
2019/09/06 16:02:00 BASE 16.73 339 18.47 343 -0.6 100 -0.6 115 0 996.7 NA 0.0000 BR 9000 0 0 0 1540
2019/09/06 16:03:00 BASE 17.01 339 18.57 346 -0.6 100 -0.6 119 0 996.7 NA 0.0000 BR 9000 0 0 0 1570
2019/09/06 16:04:00 BASE 16.18 338 18.57 346 -0.6 100 -0.6 122 0 996.7 NA 0.0000 BR 9000 20080 0 0 0
2019/09/06 16:05:00 BASE 15.37 339 18.57 346 -0.6 100 -0.6 126 0 996.7 NA 0.0000 BR 9000 0 0 0 1610
2019/09/06 16:06:00 BASE 15.27 340 18.57 346 -0.6 100 -0.6 130 0 996.7 NA 0.0000 BR 9000 0 0 0 1510
2019/09/06 16:07:00 BASE 15.02 341 18.57 346 -0.6 100 -0.6 136 0 996.7 NA 0.0000 BR 9000 0 0 0 1670
2019/09/06 16:08:00 BASE 15.15 343 18.57 346 -0.6 100 -0.6 142 0 996.6 NA 0.0000 BR 9000 0 0 0 1640
2019/09/06 16:09:00 BASE 14.47 342 18.57 346 -0.6 100 -0.6 148 0 996.7 NA 0.0000 BR 9000 0 0 0 1800
2019/09/06 16:10:00 BASE 13.65 338 18.57 346 -0.6 100 -0.6 151 0 996.8 NA 0.0000 BR 9000 0 0 0 2000
2019/09/06 16:11:00 BASE 13.64 338 18.57 346 -0.6 100 -0.6 152 0 996.8 NA 0.0000 UP BR 9000 0 0 0 1870
2019/09/06 16:12:00 BASE 13.37 338 18.57 346 -0.6 100 -0.6 152 0 996.8 NA 0.0000 UP BR 9000 0 0 0 1770
2019/09/06 16:13:00 BASE 14.17 339 17.03 346 -0.6 100 -0.6 151 0 996.6 NA 0.0000 UP BR 9000 0 0 0 1710
2019/09/06 16:14:01 BASE 14.16 338 17.03 346 -0.6 100 -0.6 149 0 996.7 NA 0.0000 UP BR 9000 0 0 0 1840
2019/09/06 16:15:00 BASE 13.26 335 17.03 346 -0.6 100 -0.6 147 0 996.7 NA 0.0000 UP BR 9000 0 0 0 1740
2019/09/06 16:16:00 BASE 13.54 338 17.03 346 -0.6 100 -0.6 144 0 996.5 NA 0.0000 UP BR 9000 0 0 0 1800
2019/09/06 16:17:00 BASE 14.41 341 17.03 346 -0.6 100 -0.6 141 0 996.5 NA 0.0000 UP BR 9000 260 0 0 0
2019/09/06 16:18:00 BASE 14.74 343 16.41 349 -0.6 100 -0.6 139 0 996.5 NA 0.0000 UP BR 9000 230 0 0 0
2019/09/06 16:19:00 BASE 14.29 344 16.41 349 -0.6 100 -0.6 138 0 996.5 NA 0.0000 UP BR 9000 260 0 0 0
2019/09/06 16:20:00 BASE 14.22 343 16.41 349 -0.6 100 -0.6 136 0 996.5 NA 0.0000 UP BR 9000 260 0 0 0
2019/09/06 16:21:00 BASE 14.98 343 16.77 340 -0.6 100 -0.6 133 0 996.4 NA 0.0000 UP BR 9000 300 0 0 0
2019/09/06 16:22:00 BASE 15.21 344 16.77 340 -0.6 100 -0.6 131 0 996.4 NA 0.0000 UP BR 9000 260 0 0 0
2019/09/06 16:23:00 BASE 14.90 345 16.77 340 -0.6 100 -0.6 130 0 996.4 NA 0.0000 BR 9000 260 1150 0 0
2019/09/06 16:24:00 BASE 14.80 344 16.77 340 -0.6 100 -0.6 131 0 996.4 NA 0.0000 BR 9000 260 0 0 0
2019/09/06 16:25:00 BASE 14.80 341 16.77 340 -0.6 100 -0.6 131 0 996.5 NA 0.0000 BR 9000 260 24480 0 0
2019/09/06 16:26:00 BASE 14.91 340 16.87 339 -0.6 100 -0.6 129 0 996.4 NA 0.0000 BR 9000 300 0 0 0
2019/09/06 16:27:00 BASE 15.04 341 16.87 339 -0.6 100 -0.6 128 0 996.4 NA 0.0000 BR 9000 300 0 0 0
2019/09/06 16:28:00 BASE 15.64 342 17.44 341 -0.6 100 -0.6 126 0 996.4 NA 0.0000 BR 9000 300 0 0 0
2019/09/06 16:29:00 BASE 15.49 342 17.44 341 -0.6 100 -0.6 123 0 996.5 NA 0.0000 BR 9000 300 0 0 0
2019/09/06 16:30:00 BASE 15.28 341 17.44 341 -0.6 100 -0.6 122 0 996.5 NA 0.0000 BR 9000 330 0 0 0
2019/09/06 16:31:00 BASE 15.47 339 17.44 341 -0.6 100 -0.6 122 0 996.5 NA 0.0000 BR 9000 330 0 0 0
2019/09/06 16:32:00 BASE 14.60 339 17.44 341 -0.6 100 -0.6 122 0 996.5 NA 0.0000 BR 9000 330 0 0 0
2019/09/06 16:33:00 BASE 14.81 337 17.59 328 -0.6 100 -0.6 121 0 996.4 NA 0.0000 BR 9000 330 0 0 0
2019/09/06 16:34:00 BASE 15.29 335 17.59 328 -0.6 100 -0.6 121 0 996.5 NA 0.0000 BR 9000 330 0 0 0
2019/09/06 16:35:00 BASE 15.14 335 17.59 328 -0.6 100 -0.6 119 0 996.4 NA 0.0000 BR 9000 300 0 0 0
2019/09/06 16:36:00 BASE 14.96 335 17.59 328 -0.6 100 -0.6 117 0 996.5 NA 0.0000 BR 9000 260 0 0 0
2019/09/06 16:37:00 BASE 15.61 336 18.52 338 -0.6 100 -0.6 114 0 996.4 NA 0.0000 BR 9000 300 21160 0 0
2019/09/06 16:38:00 BASE 16.75 337 19.39 331 -0.6 100 -0.6 111 0 996.3 NA 0.0000 UP BR 9000 330 0 0 0
2019/09/06 16:39:00 BASE 16.25 335 19.39 331 -0.6 100 -0.6 109 0 996.4 NA 0.0000 UP BR 9000 330 0 0 0
2019/09/06 16:40:00 BASE 15.91 337 19.39 331 -0.6 100 -0.6 108 0 996.4 NA 0.0000 UP BR 9000 330 0 0 0
2019/09/06 16:41:00 BASE 16.30 337 19.39 331 -0.6 100 -0.6 106 0 996.3 NA 0.0000 UP BR 9000 330 0 0 0
2019/09/06 16:42:00 BASE 15.95 335 19.39 331 -0.6 100 -0.6 104 0 996.4 NA 0.0000 UP BR 9000 330 0 0 0
2019/09/06 16:43:00 BASE 15.30 333 19.39 331 -0.6 100 -0.6 105 0 996.4 NA 0.0000 UP BR 9000 330 0 0 0
2019/09/06 16:44:00 BASE 14.72 334 19.39 331 -0.6 100 -0.6 106 0 996.4 NA 0.0000 UP BR 9000 330 0 0 0
2019/09/06 16:45:00 BASE 14.75 336 19.39 331 -0.6 100 -0.6 107 0 996.4 NA 0.0000 UP BR 9000 390 0 0 0
2019/09/06 16:46:00 BASE 14.84 339 19.39 331 -0.6 100 -0.6 107 0 996.4 NA 0.0000 BR 9000 430 0 0 0
2019/09/06 16:47:00 BASE 14.75 341 19.39 331 -0.6 100 -0.6 107 0 996.4 NA 0.0000 BR 9999 390 0 0 0
2019/09/06 16:48:00 BASE 15.58 341 18.42 336 -0.6 100 -0.6 104 0 996.3 NA 0.0000 BR 9999 390 0 0 0
2019/09/06 16:49:00 BASE 15.96 341 18.42 336 -0.6 100 -0.6 102 0 996.3 NA 0.0000 BR 9999 430 0 0 0
2019/09/06 16:50:00 BASE 15.76 341 18.42 336 -0.6 100 -0.6 101 0 996.3 NA 0.0000 9999 750 0 0 0
2019/09/06 16:51:00 BASE 15.44 342 17.54 344 -0.6 100 -0.6 100 0 996.3 NA 0.0000 9999 790 0 0 0
2019/09/06 16:52:00 BASE 16.30 346 19.75 346 -0.5 100 -0.5 101 0 996.2 NA 0.0000 9999 850 0 0 0
2019/09/06 16:53:00 BASE 17.46 347 19.75 346 -0.5 100 -0.5 101 0 996.2 NA 0.0000 9999 1020 0 0 0
2019/09/06 16:54:00 BASE 16.74 348 19.75 346 -0.5 100 -0.5 100 0 996.3 NA 0.0000 9999 590 0 0 0
2019/09/06 16:55:00 BASE 16.79 348 19.75 346 -0.5 100 -0.5 99 0 996.2 NA 0.0000 9999 560 0 0 0
2019/09/06 16:56:00 BASE 16.70 346 19.75 346 -0.5 100 -0.5 99 0 996.3 NA 0.0000 9999 430 0 0 0
2019/09/06 16:57:00 BASE 15.30 345 19.75 346 -0.5 100 -0.5 99 0 996.3 NA 0.0000 9999 850 0 0 0
2019/09/06 16:58:00 BASE 15.84 341 20.53 336 -0.5 100 -0.5 97 0 996.2 NA 0.0000 9999 560 0 0 0
2019/09/06 16:59:00 BASE 17.17 342 20.53 336 -0.5 100 -0.5 94 0 996.2 NA 0.0000 9999 720 0 0 0
2019/09/06 17:00:00 BASE 16.75 344 20.53 336 -0.5 100 -0.5 94 0 996.3 NA 0.0000 9999 430 0 0 0
2019/09/06 17:01:00 BASE 16.35 345 20.53 336 -0.5 100 -0.5 91 0 996.2 NA 0.0000 9999 520 0 0 0
2019/09/06 17:02:00 BASE 16.69 345 20.53 336 -0.5 100 -0.5 86 0 996.2 NA 0.0000 9999 490 0 0 0
2019/09/06 17:03:00 BASE 16.64 343 20.53 336 -0.5 100 -0.5 83 0 996.2 NA 0.0000 9999 430 0 0 0
2019/09/06 17:04:00 BASE 15.73 342 20.53 336 -0.5 100 -0.5 79 0 996.3 NA 0.0000 9999 430 0 0 0
2019/09/06 17:05:00 BASE 15.25 341 20.53 336 -0.5 100 -0.5 78 0 996.3 NA 0.0000 9999 430 0 0 0
2019/09/06 17:06:00 BASE 14.81 342 20.53 336 -0.5 100 -0.5 79 0 996.3 NA 0.0000 9999 430 0 0 0
2019/09/06 17:07:00 BASE 14.26 343 20.53 336 -0.6 100 -0.6 82 0 996.3 NA 0.0000 9999 390 0 0 0
2019/09/06 17:08:00 BASE 14.59 344 18.83 341 -0.6 100 -0.6 86 0 996.3 NA 0.0000 9999 360 0 0 0
2019/09/06 17:09:00 BASE 15.11 347 18.47 346 -0.6 100 -0.6 92 0 996.3 NA 0.0000 9999 360 0 0 0
2019/09/06 17:10:00 BASE 14.68 348 18.47 346 -0.6 100 -0.6 97 0 996.3 NA 0.0000 9999 330 0 0 0
2019/09/06 17:11:00 BASE 14.49 348 18.47 346 -0.6 100 -0.6 102 0 996.3 NA 0.0000 9999 330 0 0 0
2019/09/06 17:12:00 BASE 14.88 349 18.47 346 -0.6 100 -0.6 104 0 996.2 NA 0.0000 9999 360 0 0 0
2019/09/06 17:13:00 BASE 14.81 348 17.03 351 -0.6 100 -0.6 107 0 996.2 NA 0.0000 9999 360 0 0 0
2019/09/06 17:14:00 BASE 16.10 349 18.42 360 -0.6 100 -0.6 109 0 996.1 NA 0.0000 9999 330 0 0 0
2019/09/06 17:15:00 BASE 16.35 350 18.42 360 -0.5 100 -0.5 111 0 996.1 NA 0.0000 9999 330 0 0 0
2019/09/06 17:16:00 BASE 15.77 349 18.42 360 -0.5 100 -0.5 114 0 996.1 NA 0.0000 9999 330 0 0 0
2019/09/06 17:17:00 BASE 15.47 347 18.42 360 -0.5 100 -0.5 117 0 996.1 NA 0.0000 9999 300 0 0 0
2019/09/06 17:18:00 BASE 14.48 345 18.42 360 -0.5 100 -0.5 120 0 996.2 NA 0.0000 9999 300 0 0 0
2019/09/06 17:19:00 BASE 14.23 343 18.42 360 -0.5 100 -0.5 122 0 996.2 NA 0.0000 9999 300 0 0 0
2019/09/06 17:20:00 BASE 15.86 343 18.88 342 -0.6 100 -0.6 125 0 996.0 NA 0.0000 9999 260 0 0 0
2019/09/06 17:21:00 BASE 16.74 343 18.88 342 -0.6 100 -0.6 129 0 996.1 NA 0.0000 9999 300 0 0 0
2019/09/06 17:22:00 BASE 16.31 343 18.88 342 -0.6 100 -0.6 132 0 996.0 NA 0.0000 9999 300 0 0 0
2019/09/06 17:23:00 BASE 16.60 342 18.88 342 -0.6 100 -0.6 133 0 996.0 NA 0.0000 9999 330 0 0 0
2019/09/06 17:24:00 BASE 15.90 338 18.88 342 -0.6 100 -0.6 134 0 996.1 NA 0.0000 9999 360 0 0 0
2019/09/06 17:25:00 BASE 14.89 335 18.88 342 -0.6 100 -0.6 135 0 996.1 NA 0.0000 9999 360 0 0 0
2019/09/06 17:26:00 BASE 14.26 334 18.88 342 -0.6 100 -0.6 136 0 996.1 NA 0.0000 9999 300 0 0 0
2019/09/06 17:27:00 BASE 13.99 337 18.88 342 -0.6 100 -0.6 142 0 996.1 NA 0.0000 9999 300 0 0 0
2019/09/06 17:28:00 BASE 14.30 339 18.88 342 -0.6 100 -0.6 145 0 996.1 NA 0.0000 9999 300 0 0 0
2019/09/06 17:29:00 BASE 14.59 338 18.88 342 -0.6 100 -0.6 147 0 996.1 NA 0.0000 9999 360 0 0 0
2019/09/06 17:30:00 BASE 15.13 338 17.80 340 -0.6 100 -0.6 145 0 996.0 NA 0.0000 9999 300 0 0 0
2019/09/06 17:31:00 BASE 15.77 341 17.80 340 -0.6 100 -0.6 142 0 996.0 NA 0.0000 9999 300 0 0 0
2019/09/06 17:32:00 BASE 16.13 343 17.80 340 -0.6 100 -0.6 140 0 995.9 NA 0.0000 9999 300 0 0 0
2019/09/06 17:33:00 BASE 16.59 342 18.67 336 -0.6 100 -0.6 136 0 995.9 NA 0.0000 9999 260 0 0 0
2019/09/06 17:34:00 BASE 16.52 341 18.67 336 -0.6 100 -0.6 131 0 995.9 NA 0.0000 9999 260 0 0 0
2019/09/06 17:35:00 BASE 15.57 341 18.67 336 -0.6 100 -0.6 127 0 995.9 NA 0.0000 9999 300 22570 0 0
2019/09/06 17:36:00 BASE 14.61 344 18.67 336 -0.6 100 -0.6 128 0 995.9 NA 0.0000 9999 260 0 0 0
2019/09/06 17:37:00 BASE 14.62 347 18.67 336 -0.6 100 -0.6 133 0 995.9 NA 0.0000 9999 330 0 0 0
2019/09/06 17:38:00 BASE 14.42 347 18.67 336 -0.6 100 -0.6 137 0 995.9 NA 0.0000 9999 300 19620 0 0
2019/09/06 17:39:00 BASE 14.75 347 18.67 336 -0.6 100 -0.6 139 0 995.9 NA 0.0000 9999 300 0 0 0
2019/09/06 17:40:00 BASE 15.60 346 18.67 336 -0.6 100 -0.6 140 0 995.8 NA 0.0000 9999 300 0 0 0
2019/09/06 17:41:00 BASE 15.78 346 18.67 336 -0.6 100 -0.6 143 0 995.8 NA 0.0000 9999 300 0 0 0
2019/09/06 17:42:00 BASE 15.61 344 18.67 336 -0.6 100 -0.6 146 0 995.8 NA 0.0000 9999 300 0 0 0
2019/09/06 17:43:00 BASE 14.61 343 17.29 337 -0.6 100 -0.6 145 0 995.9 NA 0.0000 9999 330 0 0 0
2019/09/06 17:44:00 BASE 14.16 343 17.18 344 -0.6 100 -0.6 137 0 995.9 NA 0.0000 9999 300 0 0 0
2019/09/06 17:45:00 BASE 14.85 344 17.18 344 -0.6 100 -0.6 123 0 995.8 NA 0.0000 9999 360 0 0 0
2019/09/06 17:46:00 BASE 15.71 349 18.01 347 -0.6 100 -0.6 111 0 995.8 NA 0.0000 9999 360 20870 0 0
2019/09/06 17:47:00 BASE 15.50 351 18.01 347 -0.6 100 -0.6 105 0 995.8 NA 0.0000 9999 360 0 0 0
2019/09/06 17:48:00 BASE 14.99 345 18.01 347 -0.6 100 -0.6 107 0 995.8 NA 0.0000 9999 360 0 0 0
2019/09/06 17:49:00 BASE 15.66 345 18.01 347 -0.6 100 -0.6 115 0 995.7 NA 0.0000 9999 330 0 0 0
2019/09/06 17:50:00 BASE 15.55 346 18.01 347 -0.6 100 -0.6 125 0 995.8 NA 0.0000 9999 330 0 0 0
2019/09/06 17:51:00 BASE 15.21 343 18.01 347 -0.6 100 -0.6 131 0 995.8 NA 0.0000 9999 260 0 0 0
2019/09/06 17:52:00 BASE 14.89 345 18.01 347 -0.6 100 -0.6 134 0 995.8 NA 0.0000 9999 300 0 0 0
2019/09/06 17:53:00 BASE 14.67 344 18.01 347 -0.6 100 -0.6 135 0 995.8 NA 0.0000 9999 260 0 0 0
2019/09/06 17:54:00 BASE 15.80 343 18.01 347 -0.6 100 -0.6 127 0 995.7 NA 0.0000 9999 260 0 0 0
2019/09/06 17:55:00 BASE 15.27 343 18.01 347 -0.6 100 -0.6 117 0 995.8 NA 0.0000 9999 230 0 0 0
2019/09/06 17:56:00 BASE 14.33 342 17.39 350 -0.6 100 -0.6 111 0 995.8 NA 0.0000 9999 300 0 0 0
2019/09/06 17:57:00 BASE 14.50 341 17.39 350 -0.6 100 -0.6 105 0 995.8 NA 0.0000 9999 260 0 0 0
2019/09/06 17:58:00 BASE 14.18 343 17.39 350 -0.6 100 -0.6 104 0 995.8 NA 0.0000 9999 260 0 0 0
2019/09/06 17:59:00 BASE 13.64 343 17.13 345 -0.6 100 -0.6 101 0 995.9 NA 0.0000 9999 300 0 0 0
2019/09/06 18:00:00 BASE 13.81 344 17.13 345 -0.7 100 -0.7 97 0 995.8 NA 0.0000 9999 260 0 0 0
2019/09/06 18:01:00 BASE 13.70 344 16.98 343 -0.7 100 -0.7 93 0 995.9 NA 0.0000 9999 300 0 0 0
2019/09/06 18:02:00 BASE 13.30 344 16.98 343 -0.7 100 -0.7 94 0 995.8 NA 0.0000 9999 330 0 0 0
2019/09/06 18:03:00 BASE 13.58 344 16.98 343 -0.7 100 -0.7 93 0 995.8 NA 0.0000 9999 300 0 0 0
2019/09/06 18:04:00 BASE 13.51 345 15.74 343 -0.7 100 -0.7 93 0 995.8 NA 0.0000 9999 300 0 0 0
2019/09/06 18:05:00 BASE 13.74 346 15.74 343 -0.7 100 -0.7 93 0 995.7 NA 0.0000 9999 300 0 0 0
2019/09/06 18:06:00 BASE 14.09 347 15.48 343 -0.7 100 -0.7 93 0 995.7 NA 0.0000 9999 300 0 0 0
2019/09/06 18:07:00 BASE 13.79 346 15.28 346 -0.7 100 -0.7 94 0 995.8 NA 0.0000 9999 300 0 0 0
2019/09/06 18:08:00 BASE 13.36 345 15.28 346 -0.7 100 -0.7 94 0 995.8 NA 0.0000 9999 300 0 0 0
2019/09/06 18:09:00 BASE 12.99 346 15.28 346 -0.7 100 -0.7 94 0 995.8 NA 0.0000 9999 300 0 0 0
2019/09/06 18:10:00 BASE 13.13 347 15.28 346 -0.7 100 -0.7 92 0 995.7 NA 0.0000 9999 300 0 0 0
2019/09/06 18:11:00 BASE 13.33 348 15.28 346 -0.7 100 -0.7 90 0 995.7 NA 0.0000 9999 300 0 0 0
2019/09/06 18:12:00 BASE 12.86 349 15.28 346 -0.7 100 -0.7 88 0 995.8 NA 0.0000 9999 330 0 0 0
2019/09/06 18:13:00 BASE 12.58 347 15.28 346 -0.7 100 -0.7 84 0 995.8 NA 0.0000 9999 360 0 0 0
2019/09/06 18:14:00 BASE 13.67 346 16.72 348 -0.7 100 -0.7 85 0 995.7 NA 0.0000 9999 330 0 0 0
2019/09/06 18:15:00 BASE 15.40 347 16.82 345 -0.7 100 -0.7 87 0 995.7 NA 0.0000 9999 330 0 0 0
2019/09/06 18:16:00 BASE 16.05 345 17.03 347 -0.7 100 -0.7 89 0 995.7 NA 0.0000 9999 260 0 0 0
2019/09/06 18:17:00 BASE 14.79 342 17.03 347 -0.7 100 -0.7 88 0 995.8 NA 0.0000 9999 260 0 0 0
2019/09/06 18:18:00 BASE 13.86 339 17.03 347 -0.7 100 -0.7 87 0 995.8 NA 0.0000 9999 260 0 0 0
2019/09/06 18:19:00 BASE 14.30 340 17.03 347 -0.7 100 -0.7 84 0 995.8 NA 0.0000 9999 260 0 0 0
2019/09/06 18:20:00 BASE 14.55 339 17.03 347 -0.7 100 -0.7 82 0 995.8 NA 0.0000 9999 260 0 0 0
2019/09/06 18:21:00 BASE 14.55 339 17.03 347 -0.7 100 -0.7 79 0 995.8 NA 0.0000 9999 260 0 0 0
2019/09/06 18:22:00 BASE 14.04 338 17.03 347 -0.8 100 -0.8 76 0 995.8 NA 0.0000 9999 260 0 0 0
2019/09/06 18:23:00 BASE 13.14 337 17.03 347 -0.8 100 -0.8 73 0 995.9 NA 0.0000 9999 260 0 0 0
2019/09/06 18:24:00 BASE 12.48 337 17.03 347 -0.8 100 -0.8 71 0 995.9 NA 0.0000 9999 300 0 0 0
2019/09/06 18:25:00 BASE 11.80 338 17.03 347 -0.8 100 -0.8 70 0 995.9 NA 0.0000 9999 260 0 0 0
2019/09/06 18:26:00 BASE 11.35 339 15.54 338 -0.8 100 -0.8 69 0 995.9 NA 0.0000 9999 260 0 0 0
2019/09/06 18:27:00 BASE 11.11 339 15.54 338 -0.8 100 -0.8 68 0 995.9 NA 0.0000 9999 260 0 0 0
2019/09/06 18:28:00 BASE 10.57 339 15.33 338 -0.8 100 -0.8 67 0 995.9 NA 0.0000 9999 300 0 0 0
2019/09/06 18:29:00 BASE 10.20 338 15.33 338 -0.8 100 -0.8 66 0 996.0 NA 0.0000 9999 300 0 0 0
2019/09/06 18:30:00 BASE 9.61 339 15.33 338 -0.8 100 -0.8 64 0 996.0 NA 0.0000 9999 300 0 0 0
2019/09/06 18:31:00 BASE 9.40 342 14.71 341 -0.8 100 -0.8 61 0 996.0 NA 0.0000 9999 260 0 0 0
2019/09/06 18:32:00 BASE 9.58 342 13.38 337 -0.7 100 -0.7 58 0 996.0 NA 0.0000 9999 260 0 0 0
2019/09/06 18:33:00 BASE 9.16 339 13.12 339 -0.7 100 -0.7 57 0 996.0 NA 0.0000 9999 260 0 0 0
2019/09/06 18:34:00 BASE 8.33 338 12.30 332 -0.7 100 -0.7 57 0 996.0 NA 0.0000 9999 300 0 0 0
2019/09/06 18:35:00 BASE 7.64 337 12.30 332 -0.7 100 -0.7 57 0 996.0 NA 0.0000 9999 300 0 0 0
2019/09/06 18:36:00 BASE 7.36 339 11.57 336 -0.7 100 -0.7 56 0 996.0 NA 0.0000 9999 300 0 0 0
2019/09/06 18:37:00 BASE 7.68 345 11.42 337 -0.7 100 -0.7 57 0 996.0 NA 0.0000 9999 260 0 0 0
2019/09/06 18:38:00 BASE 7.90 351 10.75 337 -0.7 100 -0.7 57 0 996.0 NA 0.0000 9999 330 0 0 0
2019/09/06 18:39:00 BASE 8.51 357 10.55 1 -0.7 100 -0.7 58 0 995.9 NA 0.0000 9999 300 0 0 0
2019/09/06 18:40:00 BASE 9.77 358 11.01 2 -0.7 100 -0.7 59 0 995.9 NA 0.0000 9999 260 0 0 0
2019/09/06 18:41:00 BASE 10.19 356 11.01 354 -0.7 100 -0.7 60 0 995.9 NA 0.0000 9999 300 0 0 0
2019/09/06 18:42:00 BASE 9.70 354 11.11 360 -0.6 100 -0.6 61 0 995.9 NA 0.0000 9999 330 0 0 0
2019/09/06 18:43:00 BASE 9.68 351 11.11 360 -0.6 100 -0.6 62 0 995.8 NA 0.0000 9999 330 0 0 0
2019/09/06 18:44:00 BASE 10.35 351 11.32 353 -0.6 100 -0.6 62 0 995.8 NA 0.0000 9999 330 0 0 0
2019/09/06 18:45:00 BASE 10.20 352 11.32 353 -0.6 100 -0.6 63 0 995.8 NA 0.0000 9999 300 0 0 0
2019/09/06 18:46:00 BASE 10.03 350 11.32 353 -0.6 100 -0.6 63 0 995.8 NA 0.0000 9999 300 0 0 0
2019/09/06 18:47:00 BASE 9.75 349 11.32 353 -0.6 100 -0.6 63 0 995.9 NA 0.0000 9999 300 0 0 0
2019/09/06 18:48:00 BASE 9.41 349 11.32 353 -0.6 100 -0.6 64 0 995.9 NA 0.0000 9999 300 0 0 0
2019/09/06 18:49:00 BASE 9.28 351 11.32 353 -0.6 100 -0.6 66 0 995.9 NA 0.0000 9999 260 0 0 0
2019/09/06 18:50:00 BASE 9.12 354 11.32 353 -0.6 100 -0.6 68 0 995.9 NA 0.0000 9999 230 0 0 0
2019/09/06 18:51:00 BASE 8.75 353 11.32 353 -0.6 100 -0.6 69 0 995.9 NA 0.0000 9999 260 0 0 0
2019/09/06 18:52:00 BASE 7.79 353 11.32 353 -0.6 100 -0.6 70 0 995.9 NA 0.0000 9999 260 0 0 0
2019/09/06 18:53:00 BASE 7.53 351 11.32 353 -0.6 100 -0.6 71 0 995.8 NA 0.0000 9999 260 0 0 0
2019/09/06 18:54:00 BASE 8.02 354 11.21 348 -0.6 100 -0.6 70 0 995.8 NA 0.0000 9999 300 0 0 0
2019/09/06 18:55:00 BASE 8.02 355 11.21 348 -0.6 100 -0.6 69 0 995.8 NA 0.0000 9999 260 0 0 0
2019/09/06 18:56:00 BASE 7.69 350 10.80 345 -0.6 100 -0.6 68 0 995.8 NA 0.0000 9999 260 0 0 0
2019/09/06 18:57:00 BASE 8.16 351 10.80 345 -0.6 100 -0.6 68 0 995.7 NA 0.0000 9999 300 0 0 0
2019/09/06 18:58:00 BASE 9.12 354 10.08 353 -0.6 100 -0.6 69 0 995.7 NA 0.0000 9999 260 0 0 0
2019/09/06 18:59:00 BASE 9.04 354 10.08 353 -0.5 100 -0.5 70 0 995.7 NA 0.0000 9999 260 0 0 0
2019/09/06 19:00:00 BASE 8.64 354 10.08 353 -0.5 100 -0.5 69 0 995.6 NA 0.0000 9999 260 0 0 0
2019/09/06 19:01:00 BASE 8.39 358 10.08 353 -0.5 100 -0.5 67 0 995.6 NA 0.0000 9999 260 0 0 0
2019/09/06 19:02:00 BASE 8.21 3 10.08 353 -0.5 100 -0.5 66 0 995.6 NA 0.0000 9999 260 0 0 0
2019/09/06 19:03:00 BASE 8.53 0 10.08 353 -0.5 100 -0.5 64 0 995.6 NA 0.0000 9999 260 0 0 0
2019/09/06 19:04:00 BASE 8.76 354 10.08 353 -0.4 100 -0.4 63 0 995.6 NA 0.0000 9999 230 0 0 0
2019/09/06 19:05:00 BASE 8.50 356 10.08 353 -0.4 100 -0.4 61 0 995.6 NA 0.0000 9999 230 0 0 0
2019/09/06 19:06:00 BASE 8.14 354 10.08 353 -0.4 100 -0.4 59 0 995.6 NA 0.0000 9999 260 0 0 0
2019/09/06 19:07:00 BASE 7.80 354 10.08 353 -0.4 100 -0.4 57 0 995.5 NA 0.0000 9999 230 0 0 0
2019/09/06 19:08:00 BASE 7.46 358 9.83 344 -0.4 100 -0.4 56 0 995.6 NA 0.0000 9999 230 0 0 0
2019/09/06 19:09:00 BASE 7.40 355 9.83 344 -0.4 100 -0.4 54 0 995.5 NA 0.0000 9999 230 0 0 0
2019/09/06 19:10:00 BASE 7.58 356 9.83 344 -0.4 100 -0.4 52 0 995.5 NA 0.0000 9999 230 0 0 0
2019/09/06 19:11:00 BASE 7.71 353 9.83 344 -0.4 100 -0.4 51 0 995.5 NA 0.2540 9999 0 0 0 1770
2019/09/06 19:12:00 BASE 7.54 347 9.83 344 -0.4 100 -0.4 50 0 995.5 NA 0.0000 9999 0 0 0 1670
2019/09/06 19:13:00 BASE 8.04 350 9.88 348 -0.4 100 -0.4 49 0 995.5 NA 0.0000 9999 0 0 0 1770
2019/09/06 19:14:00 BASE 8.60 353 9.88 348 -0.4 100 -0.4 48 0 995.5 NA 0.0000 9999 230 0 0 0
2019/09/06 19:15:00 BASE 8.30 351 9.88 348 -0.4 100 -0.4 46 0 995.5 NA 0.0000 9999 260 0 0 0
2019/09/06 19:16:00 BASE 7.80 351 9.88 348 -0.4 100 -0.4 46 0 995.5 NA 0.0000 9999 260 0 0 0
2019/09/06 19:17:00 BASE 7.70 353 9.88 348 -0.3 100 -0.3 45 0 995.6 NA 0.0000 9999 260 0 0 0
2019/09/06 19:18:00 BASE 7.64 354 9.88 348 -0.3 100 -0.3 45 0 995.5 NA 0.0000 9999 300 0 0 0
2019/09/06 19:19:00 BASE 7.56 350 9.88 348 -0.3 100 -0.3 44 0 995.5 NA 0.0000 9999 300 0 0 0
2019/09/06 19:20:00 BASE 7.72 348 9.88 348 -0.3 100 -0.3 44 0 995.5 NA 0.0000 9999 260 0 0 0
2019/09/06 19:21:00 BASE 7.38 353 9.88 348 -0.3 100 -0.3 44 0 995.5 NA 0.0000 9999 260 0 0 0
2019/09/06 19:22:00 BASE 6.86 354 9.88 348 -0.3 100 -0.3 43 0 995.5 NA 0.0000 9999 230 0 0 0
2019/09/06 19:23:00 BASE 7.00 350 9.16 349 -0.3 100 -0.3 43 0 995.5 NA 0.0000 9999 260 0 0 0
2019/09/06 19:24:00 BASE 7.23 348 9.05 353 -0.3 100 -0.3 43 0 995.5 NA 0.0000 9999 0 0 0 1840
2019/09/06 19:25:00 BASE 7.26 346 9.05 353 -0.3 100 -0.3 43 0 995.5 NA 0.0000 9999 0 0 0 1900
2019/09/06 19:26:00 BASE 7.08 346 9.05 353 -0.3 100 -0.3 43 0 995.5 NA 0.0000 9999 0 0 0 1770
2019/09/06 19:27:00 BASE 6.70 348 9.05 353 -0.4 100 -0.4 43 0 995.5 NA 0.0000 9999 200 0 0 0
2019/09/06 19:28:00 BASE 7.02 349 8.69 351 -0.4 100 -0.4 43 0 995.4 NA 0.0000 9999 0 0 0 1940
2019/09/06 19:29:00 BASE 7.32 352 8.69 351 -0.4 100 -0.4 44 0 995.4 NA 0.0000 9999 230 0 0 0
2019/09/06 19:30:00 BASE 6.95 352 8.18 346 -0.4 100 -0.4 45 0 995.5 NA 0.0000 9999 0 0 0 2070
2019/09/06 19:31:00 BASE 6.63 347 8.18 346 -0.4 100 -0.4 45 0 995.5 NA 0.0000 9999 0 0 0 2300
2019/09/06 19:32:00 BASE 6.72 345 8.18 346 -0.4 100 -0.4 45 0 995.4 NA 0.0000 9999 0 0 0 2260
2019/09/06 19:33:00 BASE 6.64 348 8.18 346 -0.4 100 -0.4 45 0 995.4 NA 0.0000 9999 0 0 0 2360
2019/09/06 19:34:00 BASE 6.57 348 8.18 346 -0.4 100 -0.4 45 0 995.4 NA 0.0000 9999 0 0 0 2200
2019/09/06 19:35:00 BASE 6.81 349 8.18 346 -0.4 100 -0.4 45 0 995.4 NA 0.0000 9999 260 0 0 0
2019/09/06 19:36:00 BASE 6.68 347 8.18 346 -0.4 100 -0.4 44 0 995.4 NA 0.0000 9999 260 0 0 0
2019/09/06 19:37:00 BASE 6.62 345 8.18 346 -0.4 100 -0.4 44 0 995.4 NA 0.0000 9999 0 0 0 2300
2019/09/06 19:38:00 BASE 6.87 343 7.87 349 -0.4 100 -0.4 44 0 995.4 NA 0.0000 9999 0 0 0 2070
2019/09/06 19:39:00 BASE 6.63 340 7.72 290 -0.4 100 -0.4 44 0 995.4 NA 0.0000 9999 0 0 0 1670
2019/09/06 19:40:00 BASE 6.29 337 7.72 290 -0.4 100 -0.4 44 0 995.4 NA 0.0000 9999 0 0 0 1480
2019/09/06 19:41:00 BASE 6.04 338 7.72 290 -0.4 100 -0.4 45 0 995.4 NA 0.0000 8000 0 0 0 1570
2019/09/06 19:42:00 BASE 5.81 342 7.72 290 -0.4 100 -0.4 45 0 995.4 NA 0.0000 9000 0 0 0 1710
2019/09/06 19:43:00 BASE 5.48 345 7.72 290 -0.5 100 -0.5 45 0 995.4 NA 0.0000 UP 9999 0 0 0 2530
2019/09/06 19:44:00 BASE 5.35 348 7.72 290 -0.5 100 -0.5 44 0 995.4 NA 0.0000 UP 9999 0 0 0 2820
2019/09/06 19:45:00 BASE 5.38 349 7.72 290 -0.5 100 -0.5 44 0 995.4 NA 0.0000 UP 9999 0 0 0 3020
2019/09/06 19:46:00 BASE 5.89 347 7.72 290 -0.5 100 -0.5 43 0 995.4 NA 0.0000 UP 9999 330 0 0 0
2019/09/06 19:47:00 BASE 6.82 349 7.72 350 -0.5 100 -0.5 43 0 995.3 NA 0.0000 UP 9999 0 0 0 3020
2019/09/06 19:48:00 BASE 7.25 352 8.08 360 -0.5 100 -0.5 43 0 995.3 NA 0.0000 UP 9999 0 0 0 3050
2019/09/06 19:49:00 BASE 7.41 354 8.33 2 -0.5 100 -0.5 42 0 995.3 NA 0.0000 UP 9999 330 0 0 0
2019/09/06 19:50:00 BASE 7.53 354 8.39 353 -0.4 100 -0.4 42 0 995.3 NA 0.0000 UP 9999 0 0 0 3120
2019/09/06 19:51:00 BASE 7.51 353 8.39 353 -0.4 100 -0.4 42 0 995.3 NA 0.0000 UP 9999 0 0 0 3150
2019/09/06 19:52:00 BASE 7.42 352 8.39 353 -0.4 100 -0.4 42 0 995.3 NA 0.0000 UP 9999 0 0 0 3670
2019/09/06 19:53:00 BASE 7.94 350 9.31 347 -0.4 100 -0.4 41 0 995.2 NA 0.0000 UP 9999 0 0 0 3610
2019/09/06 19:54:00 BASE 8.08 353 9.31 347 -0.4 100 -0.4 41 0 995.2 NA 0.0000 UP 9999 300 0 0 0
2019/09/06 19:55:00 BASE 7.78 357 9.31 347 -0.4 100 -0.4 41 0 995.2 NA 0.0000 UP 9999 330 0 0 0
2019/09/06 19:56:00 BASE 7.77 355 9.31 347 -0.3 100 -0.3 40 0 995.2 NA 0.0000 UP 9999 300 0 0 0
2019/09/06 19:57:00 BASE 7.58 349 9.31 347 -0.3 100 -0.3 40 0 995.2 NA 0.0000 9999 300 0 0 0
2019/09/06 19:58:00 BASE 7.41 349 9.31 347 -0.3 100 -0.3 39 0 995.2 NA 0.0000 9999 0 0 0 3480
2019/09/06 19:59:00 BASE 7.59 351 9.31 347 -0.3 100 -0.3 38 0 995.2 NA 0.0000 9999 230 0 0 0
2019/09/06 20:00:00 BASE 7.60 351 9.31 347 -0.3 100 -0.3 36 0 995.2 NA 0.0000 9999 260 0 0 0
2019/09/06 20:01:00 BASE 7.18 350 9.31 347 -0.3 100 -0.3 34 0 995.2 NA 0.0000 9999 260 0 0 0
2019/09/06 20:02:00 BASE 7.05 353 9.31 347 -0.3 100 -0.3 33 0 995.2 NA 0.0000 9999 260 0 0 0
2019/09/06 20:03:00 BASE 7.05 351 8.85 1 -0.3 100 -0.3 32 0 995.2 NA 0.0000 9999 230 0 0 0
2019/09/06 20:04:00 BASE 6.89 350 8.54 352 -0.3 100 -0.3 32 0 995.1 NA 0.0000 9999 0 0 0 1570
2019/09/06 20:05:00 BASE 6.70 351 8.39 351 -0.3 100 -0.3 32 0 995.1 NA 0.0000 9999 0 0 0 1710
2019/09/06 20:06:00 BASE 6.76 348 8.33 342 -0.3 100 -0.3 31 0 995.1 NA 0.0000 UP 9000 0 0 0 1670
2019/09/06 20:07:00 BASE 6.85 352 8.33 342 -0.4 100 -0.4 31 0 995.1 NA 0.0000 UP 9999 0 0 0 1640
2019/09/06 20:08:00 BASE 6.97 358 8.33 342 -0.4 100 -0.4 30 0 995.0 NA 0.0000 UP 9999 0 0 0 1970
2019/09/06 20:09:00 BASE 7.47 2 8.44 2 -0.4 100 -0.4 29 0 994.9 NA 0.0000 UP 9999 0 0 0 2460
2019/09/06 20:10:00 BASE 7.77 3 8.64 1 -0.4 100 -0.4 28 0 994.9 NA 0.0000 UP 9999 0 0 0 2490
2019/09/06 20:11:00 BASE 7.40 1 8.64 1 -0.4 100 -0.4 28 0 994.9 NA 0.0000 UP 9999 260 0 0 0
2019/09/06 20:12:00 BASE 6.56 0 8.64 1 -0.3 100 -0.3 27 0 994.9 NA 0.0000 UP 9999 300 0 0 0
2019/09/06 20:13:00 BASE 6.04 0 8.64 1 -0.3 100 -0.3 26 0 994.9 NA 0.0000 UP 9999 330 0 0 0
2019/09/06 20:14:00 BASE 5.84 360 8.64 1 -0.3 100 -0.3 25 0 994.9 NA 0.0000 UP 9999 330 0 0 0
2019/09/06 20:15:00 BASE 5.89 359 8.64 1 -0.3 100 -0.3 24 0 994.9 NA 0.0000 UP 9999 360 0 0 0
2019/09/06 20:16:00 BASE 5.95 356 8.64 1 -0.3 100 -0.3 23 0 994.8 NA 0.0000 UP 9999 360 0 0 0
2019/09/06 20:17:00 BASE 5.81 354 8.64 1 -0.3 100 -0.3 22 0 994.8 NA 0.0000 UP 9999 390 0 0 0
2019/09/06 20:18:00 BASE 5.98 358 8.64 1 -0.3 100 -0.3 21 0 994.8 NA 0.0000 9999 390 0 0 0
2019/09/06 20:19:00 BASE 6.11 2 8.64 1 -0.3 100 -0.3 20 0 994.8 NA 0.0000 9999 360 0 0 0
2019/09/06 20:20:00 BASE 6.10 2 7.61 1 -0.2 100 -0.2 20 0 994.7 NA 0.0000 9999 430 0 0 0
2019/09/06 20:21:00 BASE 6.12 3 6.69 1 -0.2 100 -0.2 19 0 994.7 NA 0.0000 9999 390 1210 0 0
2019/09/06 20:22:00 BASE 5.95 3 6.69 1 -0.2 100 -0.2 19 0 994.7 NA 0.0000 9999 430 0 0 0
2019/09/06 20:23:00 BASE 5.76 7 6.69 1 -0.2 100 -0.2 19 0 994.7 NA 0.0000 9999 490 0 0 0
2019/09/06 20:24:00 BASE 6.08 14 7.31 18 -0.2 100 -0.2 19 0 994.7 NA 0.0000 9999 460 0 0 0
2019/09/06 20:25:00 BASE 6.58 15 7.31 18 -0.2 100 -0.2 19 0 994.7 NA 0.0000 9999 560 0 0 0
2019/09/06 20:26:00 BASE 6.88 16 7.51 18 -0.2 100 -0.2 19 0 994.6 NA 0.0000 9999 690 0 0 0
2019/09/06 20:27:00 BASE 7.40 16 8.95 360 -0.2 100 -0.2 19 0 994.5 NA 0.0000 9999 720 0 0 0
2019/09/06 20:28:00 BASE 7.79 14 8.95 360 -0.2 100 -0.2 19 0 994.6 NA 0.0000 9999 620 0 0 0
2019/09/06 20:29:00 BASE 7.75 12 8.95 360 -0.1 100 -0.1 20 0 994.5 NA 0.0000 9999 790 0 0 0
2019/09/06 20:30:00 BASE 7.42 7 8.95 360 -0.1 100 -0.1 20 0 994.5 NA 0.0000 9999 890 0 0 0
2019/09/06 20:31:00 BASE 6.79 6 8.95 360 -0.1 100 -0.1 21 0 994.5 NA 0.0000 9999 1210 0 0 0
2019/09/06 20:32:00 BASE 6.62 3 8.95 360 -0.0 100 -0.0 21 0 994.5 NA 0.0000 9999 1350 0 0 0
2019/09/06 20:33:00 BASE 7.01 1 8.95 360 0.0 100 0.0 21 0 994.4 NA 0.0000 9999 1210 0 0 0
2019/09/06 20:34:00 BASE 7.59 357 8.95 360 0.1 100 0.1 20 0 994.4 NA 0.0000 9999 1310 0 0 0
2019/09/06 20:35:00 BASE 7.72 351 8.95 360 0.1 100 0.1 19 0 994.4 NA 0.0000 9999 1350 0 0 0
2019/09/06 20:36:00 BASE 7.72 351 8.95 1 0.2 100 0.2 18 0 994.4 NA 0.0000 9999 1250 0 0 0
2019/09/06 20:37:00 BASE 7.86 346 8.95 1 0.2 100 0.2 18 0 994.4 NA 0.0000 9999 1350 0 0 0
2019/09/06 20:38:00 BASE 7.64 346 8.95 1 0.2 100 0.2 17 0 994.4 NA 0.0000 9999 1350 0 0 0
2019/09/06 20:39:00 BASE 7.00 349 8.95 1 0.2 100 0.2 16 0 994.4 NA 0.0000 9999 1280 0 0 0
2019/09/06 20:40:00 BASE 6.40 348 8.95 1 0.2 100 0.2 16 0 994.5 NA 0.0000 9999 1280 0 0 0
2019/09/06 20:41:00 BASE 6.69 339 8.95 1 0.2 100 0.2 15 0 994.5 NA 0.0000 9999 1180 0 0 0
2019/09/06 20:42:00 BASE 7.95 336 9.88 339 0.2 100 0.2 14 0 994.3 NA 0.0000 9999 1120 0 0 0
2019/09/06 20:43:00 BASE 8.77 337 9.88 338 0.2 100 0.2 14 0 994.3 NA 0.0000 9999 1180 0 0 0
2019/09/06 20:44:00 BASE 7.84 336 9.88 338 0.2 100 0.2 15 0 994.4 NA 0.0000 9999 1080 0 0 0
2019/09/06 20:45:00 BASE 6.62 337 9.88 338 0.2 100 0.2 15 0 994.4 NA 0.0000 9999 1250 0 0 0
2019/09/06 20:46:00 BASE 6.20 336 9.88 338 0.2 100 0.2 14 0 994.4 NA 0.0000 9999 1280 0 0 0
2019/09/06 20:47:00 BASE 6.17 337 9.88 338 0.2 100 0.2 14 0 994.4 NA 0.0000 9999 1180 0 0 0
2019/09/06 20:48:00 BASE 6.19 340 9.88 338 0.1 100 0.1 13 0 994.3 NA 0.0000 9999 1280 0 0 0
2019/09/06 20:49:00 BASE 6.42 340 9.88 338 0.1 100 0.1 13 0 994.3 NA 0.0000 9999 1150 0 0 0
2019/09/06 20:50:00 BASE 6.63 341 9.88 338 0.1 100 0.1 13 0 994.2 NA 0.0000 9999 1120 0 0 0
2019/09/06 20:51:00 BASE 6.33 343 9.88 338 0.1 100 0.1 12 0 994.2 NA 0.0000 9999 1180 0 0 0
2019/09/06 20:52:00 BASE 6.16 345 9.88 338 0.1 100 0.1 12 0 994.2 NA 0.0000 9999 1120 0 0 0
2019/09/06 20:53:00 BASE 6.17 346 7.67 340 0.1 100 0.1 12 0 994.2 NA 0.0000 9999 1250 0 0 0
2019/09/06 20:54:00 BASE 5.86 344 7.56 337 0.1 100 0.1 12 0 994.2 NA 0.0000 9999 1120 0 0 0
2019/09/06 20:55:00 BASE 5.41 344 7.56 337 0.1 100 0.1 12 0 994.1 NA 0.0000 9999 1120 0 0 0
2019/09/06 20:56:00 BASE 5.04 345 7.56 337 0.1 100 0.1 12 0 994.1 NA 0.0000 9999 1050 0 0 0
2019/09/06 20:57:00 BASE 5.31 345 7.56 337 0.1 100 0.1 11 0 994.1 NA 0.0000 9999 690 0 0 0
2019/09/06 20:58:00 BASE 5.64 348 7.56 337 0.1 100 0.1 11 0 994.1 NA 0.0000 9999 790 0 0 0
2019/09/06 20:59:00 BASE 5.54 351 7.56 337 0.1 100 0.1 10 0 994.1 NA 0.0000 9999 1150 0 0 0
2019/09/06 21:00:00 BASE 6.14 355 7.92 360 0.1 100 0.1 10 0 994.1 NA 0.0000 9999 720 0 0 0
2019/09/06 21:01:00 BASE 7.02 357 7.92 3 0.2 100 0.2 9 0 994.1 NA 0.0000 9999 1180 0 0 0
2019/09/06 21:02:00 BASE 7.39 356 7.97 1 0.2 100 0.2 9 0 994.0 NA 0.0000 9999 660 0 0 0
2019/09/06 21:03:00 BASE 7.58 357 7.97 1 0.3 100 0.3 8 0 994.0 NA 0.0000 9999 690 0 0 0
2019/09/06 21:04:00 BASE 7.10 2 7.97 1 0.3 100 0.3 8 0 994.0 NA 0.0000 9999 1210 0 0 0
2019/09/06 21:05:00 BASE 6.73 6 7.97 1 0.4 100 0.4 8 0 994.0 NA 0.0000 9999 620 0 0 0
2019/09/06 21:06:00 BASE 6.78 9 7.97 1 0.4 100 0.4 8 0 994.0 NA 0.0000 9999 660 0 0 0
2019/09/06 21:07:00 BASE 6.99 11 8.03 10 0.4 100 0.4 7 0 993.9 NA 0.0000 9999 520 0 0 0
2019/09/06 21:08:00 BASE 7.75 9 8.64 9 0.4 100 0.4 7 0 993.8 NA 0.0000 9999 490 0 0 0
2019/09/06 21:09:00 BASE 7.57 11 8.64 9 0.5 100 0.5 7 0 993.8 NA 0.0000 9999 520 0 0 0
2019/09/06 21:10:00 BASE 7.29 15 8.64 9 0.5 100 0.5 6 0 993.8 NA 0.0000 9999 1180 0 0 0
2019/09/06 21:11:00 BASE 8.12 19 9.83 23 0.5 100 0.5 6 0 993.7 NA 0.0000 9999 1210 0 0 0
2019/09/06 21:12:00 BASE 8.57 21 9.83 23 0.5 100 0.5 6 0 993.7 NA 0.0000 9999 1180 0 0 0
2019/09/06 21:13:00 BASE 8.03 18 9.83 23 0.6 100 0.6 5 0 993.6 NA 0.0000 9999 590 0 0 0
2019/09/06 21:14:00 BASE 7.87 19 9.83 23 0.6 100 0.6 5 0 993.6 NA 0.0000 9999 1210 0 0 0
2019/09/06 21:15:00 BASE 8.19 17 9.83 23 0.7 100 0.7 5 0 993.6 NA 0.0000 9999 1250 0 0 0
2019/09/06 21:16:00 BASE 8.02 15 9.83 23 0.7 100 0.7 4 0 M NA 0.0000 9999 1180 0 0 0
2019/09/06 21:17:00 BASE 7.55 22 9.83 23 0.7 100 0.7 4 0 993.6 NA 0.0000 9999 1180 0 0 0
2019/09/06 21:18:00 BASE 7.74 20 9.83 23 0.8 100 0.8 3 0 993.6 NA 0.0000 9999 1120 0 0 0
2019/09/06 21:19:00 BASE 8.14 17 9.83 23 0.8 100 0.8 3 0 993.6 NA 0.0000 9999 1310 0 0 0
2019/09/06 21:20:00 BASE 7.95 18 9.83 23 0.8 100 0.8 3 0 993.6 NA 0.0000 9999 1350 0 0 0
2019/09/06 21:21:00 BASE 8.24 18 9.77 14 0.8 100 0.8 3 0 993.6 NA 0.0000 9999 1350 0 0 0
2019/09/06 21:22:00 BASE 8.91 15 9.77 14 0.8 100 0.8 2 0 993.5 NA 0.0000 9999 1380 0 0 0
2019/09/06 21:23:00 BASE 8.58 13 9.77 14 0.8 100 0.8 2 0 993.5 NA 0.0000 9999 1610 0 0 0
2019/09/06 21:24:00 BASE 7.48 8 9.77 14 0.9 100 0.9 2 0 993.5 NA 0.0000 9999 1800 2620 0 0
2019/09/06 21:25:00 BASE 6.70 4 9.77 14 0.9 100 0.9 2 0 993.5 NA 0.0000 9999 1510 0 0 0
2019/09/06 21:26:00 BASE 6.43 6 9.77 14 0.9 100 0.9 2 0 993.5 NA 0.0000 9999 1570 0 0 0
2019/09/06 21:27:00 BASE 6.30 9 9.77 14 0.9 100 0.9 1 0 993.5 NA 0.0000 9999 1710 0 0 0
2019/09/06 21:28:00 BASE 6.37 13 9.77 14 0.9 100 0.9 1 0 993.4 NA 0.0000 9999 1770 0 0 0
2019/09/06 21:29:00 BASE 6.66 14 9.77 14 0.9 100 0.9 1 0 993.4 NA 0.0000 9999 1740 0 0 0
2019/09/06 21:30:00 BASE 6.81 15 9.77 14 0.9 100 0.9 1 0 993.4 NA 0.0000 9999 1540 0 0 0
2019/09/06 21:31:00 BASE 6.53 12 9.57 12 0.9 100 0.9 1 0 993.4 NA 0.0000 9999 1410 0 0 0
2019/09/06 21:32:00 BASE 5.33 358 9.31 12 1.0 100 1.0 1 0 993.4 NA 0.0000 9999 1670 0 0 0
2019/09/06 21:33:00 BASE 3.85 357 7.61 354 1.1 100 1.1 1 0 993.5 NA 0.0000 9999 1710 0 0 0
2019/09/06 21:34:00 BASE 3.51 4 7.46 10 1.1 100 1.1 1 0 993.4 NA 0.0000 9999 1740 0 0 0
2019/09/06 21:35:00 BASE 3.87 10 7.41 20 1.2 100 1.2 1 0 993.4 NA 0.0000 9999 1770 3250 0 0
2019/09/06 21:36:00 BASE 4.07 14 7.41 20 1.2 100 1.2 1 0 993.4 NA 0.0000 9999 1800 2490 0 0
2019/09/06 21:37:00 BASE 4.52 12 7.41 20 1.2 100 1.2 1 0 993.4 NA 0.0000 9999 2000 3220 0 0
2019/09/06 21:38:00 BASE 4.83 12 7.41 20 1.2 100 1.2 1 0 993.4 NA 0.0000 9999 2300 2850 0 0
2019/09/06 21:39:00 BASE 4.30 9 6.94 12 1.2 100 1.2 1 0 993.4 NA 0.0000 9999 1670 3150 0 0
2019/09/06 21:40:00 BASE 4.10 10 6.94 12 1.2 100 1.2 1 0 993.4 NA 0.0000 9999 1740 0 0 0
2019/09/06 21:41:00 BASE 4.51 13 5.86 345 1.2 100 1.2 1 0 993.4 NA 0.0000 9999 1570 2430 3120 0
2019/09/06 21:42:00 BASE 4.46 9 5.50 8 1.2 100 1.2 1 0 993.4 NA 0.0000 9999 1800 2490 3120 0
2019/09/06 21:43:00 BASE 4.18 358 5.50 8 1.2 100 1.2 0 0 993.4 NA 0.0000 9999 1710 3150 0 0
2019/09/06 21:44:00 BASE 4.56 353 5.61 360 1.2 100 1.2 0 0 993.4 NA 0.0000 9999 1770 0 0 0
2019/09/06 21:45:00 BASE 4.51 347 5.61 360 1.2 100 1.2 0 0 993.4 NA 0.0000 9999 1840 0 0 0
2019/09/06 21:46:00 BASE 3.68 331 5.61 360 1.3 100 1.3 0 0 993.4 NA 0.0000 9999 1670 0 0 0
2019/09/06 21:47:00 BASE 3.37 319 5.61 360 1.3 100 1.3 0 0 993.4 NA 0.0000 9999 1800 0 0 0
2019/09/06 21:48:00 BASE 3.67 316 5.61 360 1.2 100 1.2 0 0 993.4 NA 0.2540 9999 1940 0 0 0
2019/09/06 21:49:00 BASE 3.89 320 5.61 360 1.1 100 1.1 0 0 993.3 NA 0.0000 9999 1940 0 0 0
2019/09/06 21:50:00 BASE 4.01 322 5.61 360 1.0 100 1.0 0 0 993.3 NA 0.0000 9999 1970 0 0 0
2019/09/06 21:51:00 BASE 4.20 318 5.61 360 0.9 100 0.9 0 0 993.3 NA 0.0000 9999 1970 0 0 0
2019/09/06 21:52:00 BASE 4.11 317 5.61 360 0.8 100 0.8 0 0 993.3 NA 0.0000 9999 1020 0 0 0
2019/09/06 21:53:00 BASE 3.70 317 5.61 360 0.8 100 0.8 0 0 993.2 NA 0.0000 9999 1940 0 0 0
2019/09/06 21:54:00 BASE 3.45 316 5.04 342 0.8 100 0.8 0 0 993.2 NA 0.0000 9999 0 0 0 2890
2019/09/06 21:55:00 BASE 3.20 312 4.99 322 0.8 100 0.8 0 0 993.2 NA 0.0000 9999 0 0 0 2850
2019/09/06 21:56:00 BASE 3.33 305 4.99 322 0.8 100 0.8 0 0 993.2 NA 0.0000 9999 0 0 0 2760
2019/09/06 21:57:00 BASE 4.00 304 4.99 322 0.8 100 0.8 0 0 993.1 NA 0.0000 9999 1670 0 0 0
2019/09/06 21:58:00 BASE 4.41 310 5.09 322 0.7 100 0.7 0 0 993.0 NA 0.0000 9999 0 0 0 3150
2019/09/06 21:59:00 BASE 4.09 317 5.09 322 0.7 100 0.7 0 0 993.0 NA 0.0000 9999 0 0 0 2790
2019/09/06 22:00:00 BASE 3.70 323 5.09 322 0.6 100 0.6 0 0 993.0 NA 0.0000 9999 0 0 0 2820
2019/09/06 22:01:00 BASE 3.64 322 5.09 322 0.5 100 0.5 0 0 993.0 NA 0.0000 9999 1940 0 0 0
2019/09/06 22:02:00 BASE 3.45 324 5.09 322 0.5 100 0.5 0 0 993.0 NA 0.0000 UP 9999 0 0 0 3480
2019/09/06 22:03:00 BASE 3.32 340 5.09 322 0.5 100 0.5 0 0 992.9 NA 0.0000 UP 9999 0 0 0 3510
2019/09/06 22:04:00 BASE 3.59 357 5.14 360 0.5 100 0.5 0 0 992.9 NA 0.0000 UP 9999 0 0 0 3510
2019/09/06 22:05:00 BASE 4.11 5 5.25 4 0.5 100 0.5 0 0 992.9 NA 0.0000 UP 9999 1970 0 0 0
2019/09/06 22:06:00 BASE 4.74 6 5.66 9 0.6 100 0.6 0 0 992.9 NA 0.0000 UP 9999 1940 0 0 0
2019/09/06 22:07:00 BASE 5.28 11 6.17 17 0.7 100 0.7 0 0 992.9 NA 0.0000 UP 9999 0 0 0 3250
2019/09/06 22:08:00 BASE 6.14 19 7.51 16 0.9 100 0.9 0 0 992.8 NA 0.0000 UP 9999 0 0 0 3180
2019/09/06 22:09:00 BASE 7.46 19 8.59 19 1.0 100 1.0 0 0 992.8 NA 0.0000 -RA 9999 0 0 0 2850
2019/09/06 22:10:00 BASE 8.63 17 10.65 12 1.1 100 1.1 0 0 992.8 NA 0.0000 -RA 9999 0 0 0 2660
2019/09/06 22:11:00 BASE 9.37 15 10.65 12 1.1 100 1.1 0 0 992.8 NA 0.0000 -RA 9999 0 0 0 2400
2019/09/06 22:12:00 BASE 9.89 13 11.57 13 1.1 100 1.1 0 0 992.7 NA 0.0000 -RA 9999 0 0 0 2430
2019/09/06 22:13:00 BASE 10.53 13 11.57 13 1.1 100 1.1 0 0 992.7 NA 0.0000 -RA 9999 0 0 0 2300
2019/09/06 22:14:00 BASE 10.46 12 11.57 13 1.2 100 1.2 0 0 992.7 NA 0.0000 -RA 9999 0 0 0 2260
2019/09/06 22:15:00 BASE 10.19 12 11.57 13 1.2 100 1.2 0 0 992.8 NA 0.0000 -RA 9999 0 0 0 2260
2019/09/06 22:16:00 BASE 9.92 12 11.57 13 1.2 100 1.2 0 0 992.8 NA 0.0000 -RA 9999 0 0 0 2200
2019/09/06 22:17:00 BASE 8.95 9 11.57 13 1.2 100 1.2 0 0 992.8 NA 0.0000 -RA 9999 0 0 0 2230
2019/09/06 22:18:00 BASE 9.30 11 11.57 13 1.2 100 1.2 0 0 992.7 NA 0.0000 -RA 9999 330 0 0 0
2019/09/06 22:19:00 BASE 10.30 13 11.57 13 1.1 100 1.1 0 0 992.8 NA 0.0000 -SN 9999 330 0 0 0
2019/09/06 22:20:00 BASE 10.39 12 11.57 13 1.1 100 1.1 0 0 992.8 NA 0.0000 -SN 9999 0 0 0 1940
2019/09/06 22:21:00 BASE 10.20 11 11.57 13 1.1 100 1.1 0 0 992.8 NA 0.0000 -SN 9999 330 0 0 0
2019/09/06 22:22:00 BASE 9.51 10 11.57 13 1.1 100 1.1 0 0 992.8 NA 0.0000 -SN 9999 0 0 0 1900
2019/09/06 22:23:00 BASE 9.14 8 11.37 10 1.1 100 1.1 0 0 992.8 NA 0.0000 -SN 9999 330 0 0 0
2019/09/06 22:24:00 BASE 9.16 7 11.37 10 1.0 100 1.0 0 0 992.8 NA 0.0000 -SN 9999 330 0 0 0
2019/09/06 22:25:00 BASE 8.99 6 11.37 10 1.0 100 1.0 0 0 992.7 NA 0.0000 -SN 9999 0 0 0 2430
2019/09/06 22:26:00 BASE 8.86 6 11.37 10 1.0 100 1.0 0 0 992.8 NA 0.0000 -SN 9999 0 0 0 2360
2019/09/06 22:27:00 BASE 8.87 5 11.37 10 1.0 100 1.0 0 0 992.8 NA 0.0000 -SN 9999 0 0 0 2430
2019/09/06 22:28:00 BASE 9.03 3 11.37 10 1.0 100 1.0 0 0 992.8 NA 0.0000 -SN 9999 0 0 0 2530
2019/09/06 22:29:00 BASE 8.83 358 11.37 10 1.0 100 1.0 0 0 992.8 NA 0.0000 -SN 9999 0 0 0 2460
2019/09/06 22:30:00 BASE 7.79 352 10.34 360 1.0 100 1.0 0 0 992.8 NA 0.0000 -SN 9999 0 0 0 2850
2019/09/06 22:31:00 BASE 6.95 352 10.34 360 1.0 100 1.0 0 0 992.8 NA 0.0000 -SN 9999 0 0 0 2660
2019/09/06 22:32:00 BASE 6.74 352 10.34 360 0.9 100 0.9 0 0 992.8 NA 0.0000 -SN 9999 660 0 0 0
2019/09/06 22:33:00 BASE 7.18 349 10.34 360 0.9 100 0.9 0 0 992.7 NA 0.0000 -SN 9999 1940 0 0 0
2019/09/06 22:34:00 BASE 8.18 347 10.34 360 0.9 100 0.9 0 0 992.7 NA 0.0000 -SN 9999 0 0 0 2330
2019/09/06 22:35:00 BASE 8.79 349 10.34 360 0.9 100 0.9 0 0 992.7 NA 0.0000 -SN 9999 1210 0 0 0
2019/09/06 22:36:00 BASE 8.82 349 10.34 360 0.9 100 0.9 0 0 992.7 NA 0.0000 -SN 9999 1540 0 0 0
2019/09/06 22:37:00 BASE 9.44 347 11.99 346 0.9 100 0.9 0 0 992.6 NA 0.0000 -SN 9999 0 0 0 2430
2019/09/06 22:38:00 BASE 11.01 351 13.17 355 0.9 100 0.9 0 0 992.6 NA 0.0000 -SN 9999 1150 0 0 0
2019/09/06 22:39:00 BASE 11.91 351 13.74 354 0.9 100 0.9 0 0 992.6 NA 0.0000 -SN 9999 0 0 0 2690
2019/09/06 22:40:00 BASE 11.31 348 13.74 354 0.8 100 0.8 0 0 992.6 NA 0.0000 -SN 9999 0 0 0 2690
2019/09/06 22:41:00 BASE 11.59 350 13.84 354 0.8 100 0.8 0 0 992.5 NA 0.0000 -SN 9999 660 0 0 0
2019/09/06 22:42:00 BASE 12.93 351 14.20 343 0.8 100 0.8 0 0 992.4 NA 0.0000 -SN 9999 0 0 0 2760
2019/09/06 22:43:00 BASE 12.81 351 14.20 343 0.8 100 0.8 0 0 992.5 NA 0.0000 -SN 9999 0 0 0 2690
2019/09/06 22:44:00 BASE 12.71 353 14.20 343 0.8 100 0.8 0 0 992.4 NA 0.0000 -SN 9999 0 0 0 2720
2019/09/06 22:45:00 BASE 13.16 353 14.30 360 0.8 100 0.8 0 0 992.4 NA 0.0000 -SN 9999 0 0 0 2820
2019/09/06 22:46:00 BASE 12.91 354 14.30 360 0.7 100 0.7 0 0 992.4 NA 0.0000 -SN 9999 0 0 0 2990
2019/09/06 22:47:00 BASE 12.68 359 14.30 360 0.7 100 0.7 0 0 992.4 NA 0.0000 -SN 9999 0 0 0 2950
2019/09/06 22:48:00 BASE 13.45 3 14.92 3 0.6 100 0.6 0 0 992.4 NA 0.0000 9999 1080 0 0 0
2019/09/06 22:49:00 BASE 14.08 5 15.02 6 0.6 100 0.6 0 0 992.3 NA 0.0000 9999 0 0 0 3220
2019/09/06 22:50:00 BASE 14.05 5 15.07 6 0.6 100 0.6 0 0 992.4 NA 0.0000 9999 0 0 0 3250
2019/09/06 22:51:00 BASE 13.82 3 15.07 6 0.6 100 0.6 0 0 992.4 NA 0.0000 9999 0 0 0 3870
2019/09/06 22:52:00 BASE 13.15 1 15.07 6 0.6 100 0.6 0 0 992.4 NA 0.0000 9999 0 0 0 3970
2019/09/06 22:53:00 BASE 12.68 2 15.07 6 0.6 100 0.6 0 0 992.4 NA 0.0000 9999 360 0 0 0
2019/09/06 22:54:00 BASE 12.26 3 15.07 6 0.6 100 0.6 0 0 992.4 NA 0.0000 9999 360 0 0 0
2019/09/06 22:55:00 BASE 11.54 3 15.07 6 0.5 100 0.5 0 0 992.4 NA 0.0000 9999 330 0 0 0
2019/09/06 22:56:00 BASE 10.88 355 15.07 6 0.5 100 0.5 0 0 992.4 NA 0.0000 9999 0 0 0 3380
2019/09/06 22:57:00 BASE 9.89 352 15.07 6 0.4 100 0.4 0 0 992.5 NA 0.0000 9999 300 0 0 0
2019/09/06 22:58:00 BASE 9.19 352 15.07 6 0.4 100 0.4 0 0 992.4 NA 0.0000 9999 0 0 0 3180
2019/09/06 22:59:00 BASE 8.82 352 15.07 6 0.4 100 0.4 0 0 992.4 NA 0.0000 9999 0 0 0 3220
2019/09/06 23:00:00 BASE 8.87 358 14.51 360 0.3 100 0.3 0 0 992.4 NA 0.0000 9999 360 0 0 0
2019/09/06 23:01:00 BASE 10.13 2 13.68 1 0.3 100 0.3 0 0 992.3 NA 0.0000 -SN 9999 330 0 0 0
2019/09/06 23:02:00 BASE 10.67 3 13.68 1 0.3 100 0.3 0 0 992.3 NA 0.0000 -SN 9999 0 0 0 3150
2019/09/06 23:03:00 BASE 10.28 359 12.96 5 0.3 100 0.3 0 0 992.3 NA 0.0000 -SN 9999 260 0 0 0
2019/09/06 23:04:00 BASE 10.22 359 12.96 5 0.3 100 0.3 0 0 992.3 NA 0.0000 -SN 9999 0 0 0 3120
2019/09/06 23:05:00 BASE 10.48 356 11.99 354 0.3 100 0.3 0 0 992.3 NA 0.0000 -SN 9999 230 0 0 0
2019/09/06 23:06:00 BASE 10.44 354 11.99 354 0.3 100 0.3 0 0 992.3 NA 0.0000 -SN 9999 260 0 0 0
2019/09/06 23:07:00 BASE 10.61 359 11.99 354 0.3 100 0.3 0 0 992.3 NA 0.0000 -SN 9999 330 0 0 0
2019/09/06 23:08:00 BASE 10.39 354 11.99 354 0.3 100 0.3 0 0 992.3 NA 0.0000 -SN 9999 430 0 0 0
2019/09/06 23:09:00 BASE 11.01 352 13.07 3 0.3 100 0.3 0 0 992.2 NA 0.0000 -SN 9999 490 0 0 0
2019/09/06 23:10:00 BASE 11.80 355 13.07 3 0.4 100 0.4 0 0 992.2 NA 0.0000 -SN 9999 460 0 0 0
2019/09/06 23:11:00 BASE 11.30 358 13.07 3 0.4 100 0.4 0 0 992.2 NA 0.0000 -SN 9999 430 0 0 0
2019/09/06 23:12:00 BASE 11.32 359 13.07 3 0.4 100 0.4 0 0 992.2 NA 0.0000 -SN 9999 620 0 0 0
2019/09/06 23:13:00 BASE 11.40 358 13.07 3 0.4 100 0.4 0 0 992.2 NA 0.0000 -SN 9999 890 0 0 0
2019/09/06 23:14:00 BASE 11.31 359 13.07 2 0.3 100 0.3 0 0 992.2 NA 0.0000 9999 1150 0 0 0
2019/09/06 23:15:00 BASE 11.91 358 15.28 360 0.3 100 0.3 0 0 992.1 NA 0.0000 9999 0 0 0 2230
2019/09/06 23:16:00 BASE 13.12 360 15.28 360 0.3 100 0.3 0 0 992.1 NA 0.0000 9999 0 0 0 2430
2019/09/06 23:17:00 BASE 13.09 358 15.28 360 0.3 100 0.3 0 0 992.1 NA 0.0000 9999 0 0 0 2430
2019/09/06 23:18:00 BASE 12.35 356 15.28 360 0.3 100 0.3 0 0 992.1 NA 0.0000 9999 0 0 0 2400
2019/09/06 23:19:00 BASE 12.25 356 15.28 360 0.3 100 0.3 0 0 992.1 NA 0.0000 9999 0 0 0 2660
2019/09/06 23:20:00 BASE 11.78 357 15.28 360 0.4 100 0.4 0 0 992.1 NA 0.0000 9999 0 0 0 2760
2019/09/06 23:21:00 BASE 10.97 351 15.28 360 0.4 100 0.4 0 0 992.1 NA 0.0000 9999 0 0 0 2460
2019/09/06 23:22:00 BASE 10.56 346 15.28 360 0.4 100 0.4 0 0 992.1 NA 0.0000 9999 0 0 0 2460
2019/09/06 23:23:00 BASE 10.12 348 15.28 360 0.3 100 0.3 0 0 992.1 NA 0.0000 9999 0 0 0 2490
2019/09/06 23:24:00 BASE 10.07 344 15.28 360 0.3 100 0.3 0 0 992.0 NA 0.0000 9999 0 0 0 2490
2019/09/06 23:25:00 BASE 11.56 344 14.61 341 0.3 100 0.3 0 0 992.0 NA 0.0000 9999 0 0 0 2400
2019/09/06 23:26:00 BASE 12.61 347 14.61 341 0.3 100 0.3 0 0 992.0 NA 0.0000 9999 0 0 0 2360
2019/09/06 23:27:00 BASE 12.35 348 14.61 341 0.3 100 0.3 0 0 991.9 NA 0.0000 9999 0 0 0 2430
2019/09/06 23:28:00 BASE 12.53 348 14.61 341 0.3 100 0.3 0 0 991.9 NA 0.2540 9999 390 0 0 0
2019/09/06 23:29:00 BASE 12.97 347 14.82 341 0.3 100 0.3 0 0 991.8 NA 0.0000 9999 0 0 0 3020
2019/09/06 23:30:00 BASE 13.63 346 15.74 342 0.3 100 0.3 0 0 991.8 NA 0.0000 9999 0 0 0 2760
2019/09/06 23:31:00 BASE 14.28 344 15.74 342 0.3 100 0.3 0 0 991.8 NA 0.0000 9999 0 0 0 2850
2019/09/06 23:32:00 BASE 14.16 344 15.74 342 0.3 100 0.3 0 0 991.8 NA 0.0000 9999 0 0 0 2720
2019/09/06 23:33:00 BASE 12.94 341 15.74 342 0.3 100 0.3 0 0 991.9 NA 0.0000 9999 0 0 0 2690
2019/09/06 23:34:00 BASE 11.74 341 15.74 342 0.2 100 0.2 0 0 991.9 NA 0.0000 9999 0 0 0 2430
2019/09/06 23:35:00 BASE 11.51 342 15.74 342 0.2 100 0.2 0 0 991.8 NA 0.0000 9999 0 0 0 2430
2019/09/06 23:36:00 BASE 13.24 345 16.51 339 0.2 100 0.2 0 0 991.7 NA 0.0000 9999 0 0 0 2360
2019/09/06 23:37:00 BASE 14.58 347 16.51 339 0.1 100 0.1 0 0 991.7 NA 0.0000 9999 0 0 0 2230
2019/09/06 23:38:00 BASE 14.11 346 16.51 339 0.1 100 0.1 0 0 991.7 NA 0.0000 9999 0 0 0 2300
2019/09/06 23:39:00 BASE 14.82 345 16.93 340 0.2 100 0.2 0 0 991.6 NA 0.0000 9999 0 0 0 2100
2019/09/06 23:40:00 BASE 15.67 347 16.93 340 0.2 100 0.2 0 0 991.6 NA 0.0000 9999 0 0 0 2130
2019/09/06 23:41:00 BASE 14.74 350 16.93 340 0.2 100 0.2 0 0 991.6 NA 0.0000 9999 0 0 0 2070
2019/09/06 23:42:00 BASE 13.68 348 16.93 340 0.2 100 0.2 0 0 991.7 NA 0.0000 9999 0 0 0 1970
2019/09/06 23:43:00 BASE 13.26 344 16.93 340 0.2 100 0.2 0 0 991.6 NA 0.0000 9999 0 0 0 1940
2019/09/06 23:44:00 BASE 13.64 348 16.93 340 0.2 100 0.2 0 0 991.6 NA 0.0000 9999 0 0 0 1940
2019/09/06 23:45:00 BASE 14.73 351 16.93 340 0.2 100 0.2 0 0 991.6 NA 0.0000 9999 330 0 0 0
2019/09/06 23:46:00 BASE 14.90 349 16.93 340 0.2 100 0.2 0 0 991.6 NA 0.0000 9999 300 0 0 0
2019/09/06 23:47:00 BASE 14.90 349 17.44 4 0.2 100 0.2 0 0 991.5 NA 0.0000 9999 230 0 0 0
2019/09/06 23:48:00 BASE 16.23 352 19.14 354 0.2 100 0.2 0 0 991.4 NA 0.0000 9999 0 0 0 1840
2019/09/06 23:49:00 BASE 16.87 348 19.14 354 0.2 100 0.2 0 0 991.4 NA 0.0000 9999 0 0 0 1800
2019/09/06 23:50:00 BASE 16.95 347 19.91 354 0.2 100 0.2 0 0 991.4 NA 0.0000 9999 0 0 0 1740
2019/09/06 23:51:00 BASE 16.64 352 19.91 354 0.2 100 0.2 0 0 991.4 NA 0.0000 9999 0 0 0 1610
2019/09/06 23:52:00 BASE 15.19 351 19.91 354 0.2 100 0.2 0 0 991.5 NA 0.0000 9999 0 0 0 1540
2019/09/06 23:53:00 BASE 14.70 352 19.91 354 0.2 100 0.2 0 0 991.5 NA 0.0000 9999 0 0 0 1540
2019/09/06 23:54:00 BASE 15.84 349 19.91 354 0.2 100 0.2 0 0 991.4 NA 0.0000 UP 9999 0 0 0 1510
2019/09/06 23:55:00 BASE 16.02 347 19.91 354 0.1 100 0.1 0 0 991.4 NA 0.0000 UP 9999 0 0 0 1540
2019/09/06 23:56:00 BASE 15.29 350 19.91 354 0.1 100 0.1 0 0 991.4 NA 0.0000 UP 9999 0 0 0 1480
2019/09/06 23:57:00 BASE 15.87 354 19.91 354 0.1 100 0.1 0 0 991.3 NA 0.0000 UP 9999 0 0 0 1540
2019/09/06 23:58:00 BASE 16.73 353 19.91 354 0.2 100 0.2 0 0 991.3 NA 0.0000 UP 9999 0 0 0 1510
2019/09/06 23:59:00 BASE 17.01 350 19.91 354 0.2 100 0.2 0 0 991.3 NA 0.0000 UP 9999 0 0 0 1610